Wetterdaten: Montag, 30.10.2023
Datum Zeit Temp. I. Temp. A. Feuchte I. Feuchte A. Luftdruck Regen Wind Richtung Richtung Sonnenschein Solar Taupunkt Windchill Windböen
30.10.2023 00:00 21,2 °C 12,3 °C 63 % 85 % 1002,2 hPa 0,0 l/m² 2,4 km/h (1 Bft) W 262 ° 0 min 0 W/m² 9,9 °C 12,3 °C 3,2 km/h (1 Bft)
30.10.2023 00:01 21,2 °C 12,3 °C 63 % 85 % 1002,2 hPa 0,0 l/m² 5,9 km/h (2 Bft) SW 218 ° 0 min 0 W/m² 9,9 °C 12,3 °C 8,0 km/h (2 Bft)
30.10.2023 00:02 21,2 °C 12,3 °C 63 % 85 % 1002,2 hPa 0,0 l/m² 4,2 km/h (1 Bft) SW 227 ° 0 min 0 W/m² 9,9 °C 12,3 °C 6,4 km/h (2 Bft)
30.10.2023 00:04 21,2 °C 12,3 °C 63 % 85 % 1002,1 hPa 0,0 l/m² 2,7 km/h (1 Bft) W-SW 244 ° 0 min 0 W/m² 9,9 °C 12,3 °C 4,8 km/h (1 Bft)
30.10.2023 00:06 21,2 °C 12,2 °C 63 % 85 % 1002,3 hPa 0,0 l/m² 1,8 km/h (1 Bft) W-SW 250 ° 0 min 0 W/m² 9,8 °C 12,2 °C 4,8 km/h (1 Bft)
30.10.2023 00:08 21,2 °C 12,2 °C 63 % 85 % 1002,3 hPa 0,0 l/m² 2,1 km/h (1 Bft) W-SW 252 ° 0 min 0 W/m² 9,8 °C 12,2 °C 4,8 km/h (1 Bft)
30.10.2023 00:10 21,2 °C 12,1 °C 63 % 85 % 1002,3 hPa 0,0 l/m² 1,3 km/h (1 Bft) SW 228 ° 0 min 0 W/m² 9,7 °C 12,1 °C 3,2 km/h (1 Bft)
30.10.2023 00:11 21,2 °C 12,1 °C 63 % 85 % 1002,4 hPa 0,0 l/m² 4,6 km/h (1 Bft) S-SW 200 ° 0 min 0 W/m² 9,7 °C 12,1 °C 6,4 km/h (2 Bft)
30.10.2023 00:12 21,2 °C 12,1 °C 63 % 85 % 1002,4 hPa 0,0 l/m² 3,6 km/h (1 Bft) S-SW 199 ° 0 min 0 W/m² 9,7 °C 12,1 °C 6,4 km/h (2 Bft)
30.10.2023 00:14 21,2 °C 12,1 °C 63 % 86 % 1002,3 hPa 0,0 l/m² 3,5 km/h (1 Bft) SW 235 ° 0 min 0 W/m² 9,8 °C 12,1 °C 6,4 km/h (2 Bft)
30.10.2023 00:15 21,2 °C 12,1 °C 63 % 86 % 1002,3 hPa 0,0 l/m² 1,7 km/h (1 Bft) W-SW 238 ° 0 min 0 W/m² 9,8 °C 12,1 °C 3,2 km/h (1 Bft)
30.10.2023 00:16 21,2 °C 12,1 °C 63 % 86 % 1002,3 hPa 0,0 l/m² 3,1 km/h (1 Bft) W 266 ° 0 min 0 W/m² 9,8 °C 12,1 °C 4,8 km/h (1 Bft)
30.10.2023 00:18 21,2 °C 12,0 °C 63 % 86 % 1002,3 hPa 0,0 l/m² 2,5 km/h (1 Bft) W 271 ° 0 min 0 W/m² 9,7 °C 12,0 °C 6,4 km/h (2 Bft)
30.10.2023 00:20 21,2 °C 12,0 °C 63 % 86 % 1002,4 hPa 0,0 l/m² 2,0 km/h (1 Bft) S 190 ° 0 min 0 W/m² 9,7 °C 12,0 °C 4,8 km/h (1 Bft)
30.10.2023 00:22 21,2 °C 11,9 °C 63 % 86 % 1002,4 hPa 0,0 l/m² 2,0 km/h (1 Bft) W-SW 256 ° 0 min 0 W/m² 9,6 °C 11,9 °C 4,8 km/h (1 Bft)
30.10.2023 00:23 21,2 °C 11,9 °C 63 % 86 % 1002,5 hPa 0,0 l/m² 0,2 km/h (0 Bft) W-SW 256 ° 0 min 0 W/m² 9,6 °C 11,9 °C 1,6 km/h (1 Bft)
30.10.2023 00:24 21,2 °C 11,9 °C 63 % 86 % 1002,5 hPa 0,0 l/m² 1,3 km/h (1 Bft) W-SW 255 ° 0 min 0 W/m² 9,6 °C 11,9 °C 3,2 km/h (1 Bft)
30.10.2023 00:26 21,2 °C 11,8 °C 63 % 86 % 1002,6 hPa 0,0 l/m² 0,4 km/h (0 Bft) W-SW 255 ° 0 min 0 W/m² 9,5 °C 11,8 °C 3,2 km/h (1 Bft)
30.10.2023 00:28 21,2 °C 11,8 °C 63 % 86 % 1002,6 hPa 0,0 l/m² 0,0 km/h (0 Bft) W-SW 255 ° 0 min 0 W/m² 9,5 °C 11,8 °C 0,0 km/h (0 Bft)
30.10.2023 00:30 21,2 °C 11,6 °C 63 % 86 % 1002,7 hPa 0,0 l/m² 0,0 km/h (0 Bft) W-SW 255 ° 0 min 0 W/m² 9,3 °C 11,6 °C 0,0 km/h (0 Bft)
30.10.2023 00:32 21,2 °C 11,2 °C 63 % 86 % 1002,7 hPa 0,0 l/m² 0,0 km/h (0 Bft) W-SW 255 ° 0 min 0 W/m² 8,9 °C 11,2 °C 0,0 km/h (0 Bft)
30.10.2023 00:33 21,2 °C 11,1 °C 63 % 86 % 1002,6 hPa 0,0 l/m² 0,1 km/h (0 Bft) W-SW 256 ° 0 min 0 W/m² 8,8 °C 11,1 °C 1,6 km/h (1 Bft)
30.10.2023 00:34 21,2 °C 11,0 °C 63 % 86 % 1002,6 hPa 0,0 l/m² 0,5 km/h (0 Bft) W-SW 256 ° 0 min 0 W/m² 8,7 °C 11,0 °C 1,6 km/h (1 Bft)
30.10.2023 00:36 21,2 °C 10,9 °C 63 % 87 % 1002,6 hPa 0,0 l/m² 1,2 km/h (1 Bft) W 269 ° 0 min 0 W/m² 8,8 °C 10,9 °C 4,8 km/h (1 Bft)
30.10.2023 00:38 21,2 °C 10,9 °C 63 % 87 % 1002,6 hPa 0,0 l/m² 0,0 km/h (0 Bft) W 269 ° 0 min 0 W/m² 8,8 °C 10,9 °C 0,0 km/h (0 Bft)
30.10.2023 00:40 21,2 °C 10,7 °C 63 % 88 % 1002,7 hPa 0,0 l/m² 0,1 km/h (0 Bft) W 269 ° 0 min 0 W/m² 8,8 °C 10,7 °C 1,6 km/h (1 Bft)
30.10.2023 00:42 21,2 °C 10,7 °C 63 % 88 % 1002,7 hPa 0,0 l/m² 0,0 km/h (0 Bft) W 269 ° 0 min 0 W/m² 8,8 °C 10,7 °C 0,0 km/h (0 Bft)
30.10.2023 00:43 21,2 °C 10,7 °C 63 % 88 % 1002,8 hPa 0,0 l/m² 0,0 km/h (0 Bft) W 269 ° 0 min 0 W/m² 8,8 °C 10,7 °C 0,0 km/h (0 Bft)
30.10.2023 00:45 21,2 °C 10,7 °C 63 % 89 % 1002,7 hPa 0,0 l/m² 0,0 km/h (0 Bft) W 269 ° 0 min 0 W/m² 9,0 °C 10,7 °C 0,0 km/h (0 Bft)
30.10.2023 00:47 21,2 °C 10,4 °C 63 % 88 % 1002,7 hPa 0,0 l/m² 0,0 km/h (0 Bft) W 269 ° 0 min 0 W/m² 8,5 °C 10,4 °C 0,0 km/h (0 Bft)
30.10.2023 00:49 21,2 °C 10,3 °C 63 % 89 % 1002,8 hPa 0,0 l/m² 0,0 km/h (0 Bft) W 269 ° 0 min 0 W/m² 8,6 °C 10,3 °C 0,0 km/h (0 Bft)
30.10.2023 00:51 21,2 °C 10,3 °C 63 % 89 % 1002,8 hPa 0,0 l/m² 0,0 km/h (0 Bft) W 269 ° 0 min 0 W/m² 8,6 °C 10,3 °C 0,0 km/h (0 Bft)
30.10.2023 00:52 21,2 °C 10,3 °C 63 % 89 % 1002,8 hPa 0,0 l/m² 0,0 km/h (0 Bft) W 269 ° 0 min 0 W/m² 8,6 °C 10,3 °C 0,0 km/h (0 Bft)
30.10.2023 00:53 21,2 °C 10,3 °C 63 % 90 % 1002,8 hPa 0,0 l/m² 0,0 km/h (0 Bft) W 269 ° 0 min 0 W/m² 8,7 °C 10,3 °C 0,0 km/h (0 Bft)
30.10.2023 00:55 21,2 °C 10,3 °C 63 % 90 % 1002,9 hPa 0,0 l/m² 0,0 km/h (0 Bft) W 269 ° 0 min 0 W/m² 8,7 °C 10,3 °C 0,0 km/h (0 Bft)
30.10.2023 00:57 21,2 °C 10,3 °C 63 % 90 % 1002,9 hPa 0,0 l/m² 0,9 km/h (0 Bft) W 269 ° 0 min 0 W/m² 8,7 °C 10,3 °C 3,2 km/h (1 Bft)
30.10.2023 00:59 21,2 °C 10,2 °C 63 % 90 % 1002,9 hPa 0,0 l/m² 2,4 km/h (1 Bft) SW 225 ° 0 min 0 W/m² 8,6 °C 10,2 °C 9,7 km/h (2 Bft)
30.10.2023 01:01 21,2 °C 10,2 °C 63 % 90 % 1002,8 hPa 0,0 l/m² 2,1 km/h (1 Bft) SW 218 ° 0 min 0 W/m² 8,6 °C 10,2 °C 4,8 km/h (1 Bft)
30.10.2023 01:02 21,2 °C 10,2 °C 63 % 90 % 1002,9 hPa 0,0 l/m² 3,6 km/h (1 Bft) S-SW 199 ° 0 min 0 W/m² 8,6 °C 10,2 °C 4,8 km/h (1 Bft)
30.10.2023 01:03 21,2 °C 10,2 °C 63 % 90 % 1002,9 hPa 0,0 l/m² 3,6 km/h (1 Bft) S-SW 202 ° 0 min 0 W/m² 8,6 °C 10,2 °C 6,4 km/h (2 Bft)
30.10.2023 01:05 21,2 °C 10,3 °C 63 % 90 % 1002,8 hPa 0,0 l/m² 5,7 km/h (2 Bft) S-SW 197 ° 0 min 0 W/m² 8,7 °C 10,3 °C 8,0 km/h (2 Bft)
30.10.2023 01:07 21,2 °C 10,3 °C 63 % 90 % 1002,8 hPa 0,0 l/m² 7,2 km/h (2 Bft) S-SW 209 ° 0 min 0 W/m² 8,7 °C 9,7 °C 11,3 km/h (2 Bft)
30.10.2023 01:09 21,2 °C 10,4 °C 63 % 91 % 1002,9 hPa 0,0 l/m² 8,0 km/h (2 Bft) S-SW 193 ° 0 min 0 W/m² 9,0 °C 9,3 °C 9,7 km/h (2 Bft)
30.10.2023 01:11 21,2 °C 10,6 °C 63 % 91 % 1002,9 hPa 0,0 l/m² 10,3 km/h (2 Bft) S-SW 207 ° 0 min 0 W/m² 9,2 °C 8,1 °C 14,5 km/h (3 Bft)
30.10.2023 01:12 21,2 °C 10,7 °C 63 % 91 % 1003,0 hPa 0,0 l/m² 10,9 km/h (2 Bft) S-SW 211 ° 0 min 0 W/m² 9,3 °C 7,9 °C 12,9 km/h (3 Bft)
30.10.2023 01:13 21,2 °C 10,8 °C 63 % 91 % 1002,9 hPa 0,0 l/m² 8,9 km/h (2 Bft) S-SW 205 ° 0 min 0 W/m² 9,4 °C 9,1 °C 11,3 km/h (2 Bft)
30.10.2023 01:15 21,2 °C 10,9 °C 63 % 91 % 1002,9 hPa 0,0 l/m² 8,8 km/h (2 Bft) S-SW 202 ° 0 min 0 W/m² 9,5 °C 9,3 °C 11,3 km/h (2 Bft)
30.10.2023 01:17 21,2 °C 11,0 °C 63 % 91 % 1003,0 hPa 0,0 l/m² 8,4 km/h (2 Bft) S-SW 213 ° 0 min 0 W/m² 9,6 °C 9,6 °C 11,3 km/h (2 Bft)
30.10.2023 01:19 21,2 °C 11,1 °C 63 % 90 % 1003,0 hPa 0,0 l/m² 7,8 km/h (2 Bft) SW 214 ° 0 min 0 W/m² 9,5 °C 10,1 °C 11,3 km/h (2 Bft)
30.10.2023 01:21 21,2 °C 11,2 °C 63 % 90 % 1003,0 hPa 0,0 l/m² 7,3 km/h (2 Bft) SW 216 ° 0 min 0 W/m² 9,6 °C 10,6 °C 9,7 km/h (2 Bft)
30.10.2023 01:22 21,2 °C 11,2 °C 63 % 90 % 1003,0 hPa 0,0 l/m² 6,3 km/h (2 Bft) SW 219 ° 0 min 0 W/m² 9,6 °C 11,2 °C 9,7 km/h (2 Bft)
30.10.2023 01:23 21,2 °C 11,3 °C 63 % 90 % 1003,0 hPa 0,0 l/m² 8,3 km/h (2 Bft) SW 217 ° 0 min 0 W/m² 9,7 °C 10,0 °C 11,3 km/h (2 Bft)
30.10.2023 01:25 21,2 °C 11,3 °C 63 % 90 % 1003,0 hPa 0,0 l/m² 7,2 km/h (2 Bft) S-SW 209 ° 0 min 0 W/m² 9,7 °C 10,8 °C 11,3 km/h (2 Bft)
30.10.2023 01:27 21,2 °C 11,3 °C 63 % 90 % 1003,1 hPa 0,0 l/m² 5,7 km/h (2 Bft) SW 215 ° 0 min 0 W/m² 9,7 °C 11,3 °C 8,0 km/h (2 Bft)
30.10.2023 01:29 21,2 °C 11,3 °C 63 % 89 % 1003,1 hPa 0,0 l/m² 9,9 km/h (2 Bft) SW 217 ° 0 min 0 W/m² 9,6 °C 9,1 °C 16,1 km/h (3 Bft)
30.10.2023 01:31 21,2 °C 11,4 °C 63 % 89 % 1003,1 hPa 0,0 l/m² 5,7 km/h (2 Bft) SW 217 ° 0 min 0 W/m² 9,7 °C 11,4 °C 9,7 km/h (2 Bft)
30.10.2023 01:32 21,2 °C 11,4 °C 63 % 89 % 1003,2 hPa 0,0 l/m² 5,5 km/h (2 Bft) SW 217 ° 0 min 0 W/m² 9,7 °C 11,4 °C 6,4 km/h (2 Bft)
30.10.2023 01:33 21,2 °C 11,4 °C 63 % 89 % 1003,2 hPa 0,0 l/m² 3,5 km/h (1 Bft) SW 217 ° 0 min 0 W/m² 9,7 °C 11,4 °C 4,8 km/h (1 Bft)
30.10.2023 01:35 21,2 °C 11,4 °C 63 % 88 % 1003,1 hPa 0,0 l/m² 4,5 km/h (1 Bft) S-SW 205 ° 0 min 0 W/m² 9,5 °C 11,4 °C 8,0 km/h (2 Bft)
30.10.2023 01:37 21,2 °C 11,3 °C 63 % 88 % 1003,2 hPa 0,0 l/m² 3,5 km/h (1 Bft) S-SW 202 ° 0 min 0 W/m² 9,4 °C 11,3 °C 6,4 km/h (2 Bft)
30.10.2023 01:39 21,2 °C 11,2 °C 63 % 88 % 1003,2 hPa 0,0 l/m² 3,4 km/h (1 Bft) S-SW 201 ° 0 min 0 W/m² 9,3 °C 11,2 °C 4,8 km/h (1 Bft)
30.10.2023 01:41 21,2 °C 11,2 °C 63 % 88 % 1003,3 hPa 0,0 l/m² 3,3 km/h (1 Bft) S-SW 201 ° 0 min 0 W/m² 9,3 °C 11,2 °C 4,8 km/h (1 Bft)
30.10.2023 01:42 21,2 °C 11,2 °C 63 % 88 % 1003,3 hPa 0,0 l/m² 3,0 km/h (1 Bft) S-SW 201 ° 0 min 0 W/m² 9,3 °C 11,2 °C 4,8 km/h (1 Bft)
30.10.2023 01:43 21,2 °C 11,1 °C 63 % 88 % 1003,3 hPa 0,0 l/m² 3,9 km/h (1 Bft) S-SW 201 ° 0 min 0 W/m² 9,2 °C 11,1 °C 4,8 km/h (1 Bft)
30.10.2023 01:45 21,2 °C 11,0 °C 63 % 88 % 1003,2 hPa 0,0 l/m² 3,2 km/h (1 Bft) S-SW 201 ° 0 min 0 W/m² 9,1 °C 11,0 °C 4,8 km/h (1 Bft)
30.10.2023 01:47 21,2 °C 10,9 °C 63 % 88 % 1003,3 hPa 0,0 l/m² 5,7 km/h (2 Bft) S 169 ° 0 min 0 W/m² 9,0 °C 10,9 °C 8,0 km/h (2 Bft)
30.10.2023 01:49 21,2 °C 10,7 °C 63 % 87 % 1003,4 hPa 0,0 l/m² 4,4 km/h (1 Bft) S 176 ° 0 min 0 W/m² 8,6 °C 10,7 °C 8,0 km/h (2 Bft)
30.10.2023 01:51 21,2 °C 10,7 °C 63 % 88 % 1003,3 hPa 0,0 l/m² 3,7 km/h (1 Bft) S 177 ° 0 min 0 W/m² 8,8 °C 10,7 °C 8,0 km/h (2 Bft)
30.10.2023 01:52 21,2 °C 10,6 °C 63 % 88 % 1003,3 hPa 0,0 l/m² 3,3 km/h (1 Bft) S 175 ° 0 min 0 W/m² 8,7 °C 10,6 °C 4,8 km/h (1 Bft)
30.10.2023 01:53 21,2 °C 10,6 °C 63 % 88 % 1003,4 hPa 0,0 l/m² 3,5 km/h (1 Bft) S 175 ° 0 min 0 W/m² 8,7 °C 10,6 °C 4,8 km/h (1 Bft)
30.10.2023 01:55 21,2 °C 10,4 °C 63 % 88 % 1003,5 hPa 0,0 l/m² 4,1 km/h (1 Bft) S 175 ° 0 min 0 W/m² 8,5 °C 10,4 °C 4,8 km/h (1 Bft)
30.10.2023 01:57 21,2 °C 10,3 °C 63 % 88 % 1003,5 hPa 0,0 l/m² 2,9 km/h (1 Bft) S 175 ° 0 min 0 W/m² 8,4 °C 10,3 °C 4,8 km/h (1 Bft)
30.10.2023 01:59 21,2 °C 10,2 °C 63 % 88 % 1003,5 hPa 0,0 l/m² 4,5 km/h (1 Bft) S 170 ° 0 min 0 W/m² 8,3 °C 10,2 °C 8,0 km/h (2 Bft)
30.10.2023 02:01 21,2 °C 10,2 °C 63 % 88 % 1003,5 hPa 0,0 l/m² 2,7 km/h (1 Bft) S 172 ° 0 min 0 W/m² 8,3 °C 10,2 °C 6,4 km/h (2 Bft)
30.10.2023 02:02 21,2 °C 10,1 °C 63 % 89 % 1003,5 hPa 0,0 l/m² 2,0 km/h (1 Bft) S 172 ° 0 min 0 W/m² 8,4 °C 10,1 °C 3,2 km/h (1 Bft)
30.10.2023 02:03 21,2 °C 10,1 °C 63 % 89 % 1003,5 hPa 0,0 l/m² 1,1 km/h (1 Bft) S 172 ° 0 min 0 W/m² 8,4 °C 10,1 °C 3,2 km/h (1 Bft)
30.10.2023 02:05 21,2 °C 10,2 °C 63 % 89 % 1003,5 hPa 0,0 l/m² 0,1 km/h (0 Bft) S 172 ° 0 min 0 W/m² 8,5 °C 10,2 °C 1,6 km/h (1 Bft)
30.10.2023 02:07 21,2 °C 10,2 °C 63 % 89 % 1003,5 hPa 0,0 l/m² 0,0 km/h (0 Bft) S 172 ° 0 min 0 W/m² 8,5 °C 10,2 °C 0,0 km/h (0 Bft)
30.10.2023 02:09 21,2 °C 10,2 °C 63 % 89 % 1003,5 hPa 0,0 l/m² 0,8 km/h (0 Bft) S 172 ° 0 min 0 W/m² 8,5 °C 10,2 °C 3,2 km/h (1 Bft)
30.10.2023 02:11 21,2 °C 10,1 °C 63 % 89 % 1003,6 hPa 0,0 l/m² 1,4 km/h (1 Bft) S 175 ° 0 min 0 W/m² 8,4 °C 10,1 °C 4,8 km/h (1 Bft)
30.10.2023 02:12 21,2 °C 10,1 °C 63 % 90 % 1003,5 hPa 0,0 l/m² 5,7 km/h (2 Bft) S 182 ° 0 min 0 W/m² 8,5 °C 10,1 °C 11,3 km/h (2 Bft)
30.10.2023 02:13 21,2 °C 10,1 °C 63 % 90 % 1003,5 hPa 0,0 l/m² 4,9 km/h (1 Bft) S 176 ° 0 min 0 W/m² 8,5 °C 10,1 °C 6,4 km/h (2 Bft)
30.10.2023 02:15 21,2 °C 10,0 °C 63 % 89 % 1003,5 hPa 0,0 l/m² 4,0 km/h (1 Bft) S 175 ° 0 min 0 W/m² 8,3 °C 10,0 °C 4,8 km/h (1 Bft)
30.10.2023 02:17 21,1 °C 10,1 °C 63 % 90 % 1003,7 hPa 0,0 l/m² 4,1 km/h (1 Bft) S 175 ° 0 min 0 W/m² 8,5 °C 10,1 °C 4,8 km/h (1 Bft)
30.10.2023 02:18 21,2 °C 10,1 °C 63 % 90 % 1003,7 hPa 0,0 l/m² 5,2 km/h (1 Bft) S-SW 197 ° 0 min 0 W/m² 8,5 °C 10,1 °C 6,4 km/h (2 Bft)
30.10.2023 02:19 21,2 °C 10,1 °C 63 % 90 % 1003,6 hPa 0,0 l/m² 5,6 km/h (2 Bft) S-SW 197 ° 0 min 0 W/m² 8,5 °C 10,1 °C 8,0 km/h (2 Bft)
30.10.2023 02:20 21,1 °C 10,1 °C 63 % 90 % 1003,6 hPa 0,0 l/m² 5,1 km/h (1 Bft) S-SW 201 ° 0 min 0 W/m² 8,5 °C 10,1 °C 6,4 km/h (2 Bft)
30.10.2023 02:22 21,2 °C 10,1 °C 63 % 90 % 1003,7 hPa 0,0 l/m² 6,0 km/h (2 Bft) S-SW 199 ° 0 min 0 W/m² 8,5 °C 10,1 °C 8,0 km/h (2 Bft)
30.10.2023 02:23 21,2 °C 10,1 °C 63 % 90 % 1003,7 hPa 0,0 l/m² 8,0 km/h (2 Bft) S-SW 203 ° 0 min 0 W/m² 8,5 °C 9,0 °C 11,3 km/h (2 Bft)
30.10.2023 02:25 21,1 °C 10,2 °C 63 % 90 % 1003,6 hPa 0,0 l/m² 4,5 km/h (1 Bft) S 188 ° 0 min 0 W/m² 8,6 °C 10,2 °C 8,0 km/h (2 Bft)
30.10.2023 02:27 21,2 °C 10,3 °C 63 % 90 % 1003,5 hPa 0,0 l/m² 3,1 km/h (1 Bft) S 182 ° 0 min 0 W/m² 8,7 °C 10,3 °C 6,4 km/h (2 Bft)
30.10.2023 02:29 21,1 °C 10,4 °C 63 % 90 % 1003,6 hPa 0,0 l/m² 4,3 km/h (1 Bft) S 180 ° 0 min 0 W/m² 8,8 °C 10,4 °C 8,0 km/h (2 Bft)
30.10.2023 02:32 21,1 °C 10,6 °C 63 % 90 % 1003,8 hPa 0,0 l/m² 4,7 km/h (1 Bft) S 184 ° 0 min 0 W/m² 9,0 °C 10,6 °C 6,4 km/h (2 Bft)
30.10.2023 02:35 21,2 °C 10,7 °C 63 % 90 % 1003,8 hPa 0,0 l/m² 6,1 km/h (2 Bft) S 174 ° 0 min 0 W/m² 9,1 °C 10,7 °C 9,7 km/h (2 Bft)
30.10.2023 02:37 21,1 °C 10,8 °C 63 % 90 % 1003,7 hPa 0,0 l/m² 6,5 km/h (2 Bft) S-SW 198 ° 0 min 0 W/m² 9,2 °C 10,8 °C 17,7 km/h (3 Bft)
30.10.2023 02:39 21,2 °C 10,9 °C 63 % 90 % 1003,8 hPa 0,0 l/m² 8,5 km/h (2 Bft) S 182 ° 0 min 0 W/m² 9,3 °C 9,5 °C 14,5 km/h (3 Bft)
30.10.2023 02:42 21,1 °C 11,1 °C 63 % 89 % 1003,9 hPa 0,0 l/m² 5,1 km/h (1 Bft) S 169 ° 0 min 0 W/m² 9,4 °C 11,1 °C 11,3 km/h (2 Bft)
30.10.2023 02:45 21,1 °C 11,2 °C 63 % 89 % 1004,0 hPa 0,0 l/m² 7,4 km/h (2 Bft) S 186 ° 0 min 0 W/m² 9,5 °C 10,5 °C 11,3 km/h (2 Bft)
30.10.2023 02:47 21,1 °C 11,3 °C 63 % 89 % 1003,9 hPa 0,0 l/m² 5,5 km/h (2 Bft) S 169 ° 0 min 0 W/m² 9,6 °C 11,3 °C 11,3 km/h (2 Bft)
30.10.2023 02:49 21,1 °C 11,3 °C 63 % 88 % 1003,9 hPa 0,0 l/m² 6,4 km/h (2 Bft) S 186 ° 0 min 0 W/m² 9,4 °C 11,3 °C 9,7 km/h (2 Bft)
30.10.2023 02:52 21,1 °C 11,4 °C 63 % 88 % 1004,0 hPa 0,0 l/m² 5,8 km/h (2 Bft) S 186 ° 0 min 0 W/m² 9,5 °C 11,4 °C 9,7 km/h (2 Bft)
30.10.2023 02:55 21,1 °C 11,4 °C 63 % 88 % 1004,0 hPa 0,0 l/m² 4,4 km/h (1 Bft) S-SO 168 ° 0 min 0 W/m² 9,5 °C 11,4 °C 8,0 km/h (2 Bft)
30.10.2023 02:57 21,1 °C 11,4 °C 63 % 87 % 1003,9 hPa 0,0 l/m² 3,7 km/h (1 Bft) S-SO 162 ° 0 min 0 W/m² 9,3 °C 11,4 °C 6,4 km/h (2 Bft)
30.10.2023 02:59 21,1 °C 11,3 °C 63 % 87 % 1003,9 hPa 0,0 l/m² 3,7 km/h (1 Bft) S 181 ° 0 min 0 W/m² 9,2 °C 11,3 °C 8,0 km/h (2 Bft)
30.10.2023 03:00 21,1 °C 11,3 °C 63 % 87 % 1003,9 hPa 0,0 l/m² 4,8 km/h (1 Bft) S-SO 157 ° 0 min 0 W/m² 9,2 °C 11,3 °C 6,4 km/h (2 Bft)
30.10.2023 03:01 21,1 °C 11,3 °C 63 % 87 % 1004,0 hPa 0,0 l/m² 4,8 km/h (1 Bft) S-SO 157 ° 0 min 0 W/m² 9,2 °C 11,3 °C 8,0 km/h (2 Bft)
30.10.2023 03:07 21,1 °C 11,3 °C 63 % 88 % 1003,7 hPa 0,0 l/m² 6,1 km/h (2 Bft) S-SO 165 ° 0 min 0 W/m² 9,4 °C 11,3 °C 8,0 km/h (2 Bft)
30.10.2023 03:08 21,1 °C 11,3 °C 63 % 88 % 1003,8 hPa 0,0 l/m² 6,3 km/h (2 Bft) S-SO 152 ° 0 min 0 W/m² 9,4 °C 11,3 °C 9,7 km/h (2 Bft)
30.10.2023 03:09 21,1 °C 11,3 °C 63 % 88 % 1003,7 hPa 0,0 l/m² 5,0 km/h (1 Bft) SO 144 ° 0 min 0 W/m² 9,4 °C 11,3 °C 6,4 km/h (2 Bft)
30.10.2023 03:10 21,1 °C 11,3 °C 63 % 88 % 1003,7 hPa 0,0 l/m² 4,9 km/h (1 Bft) SO 139 ° 0 min 0 W/m² 9,4 °C 11,3 °C 8,0 km/h (2 Bft)
30.10.2023 03:12 21,1 °C 11,3 °C 63 % 88 % 1003,6 hPa 0,0 l/m² 5,6 km/h (2 Bft) SO 144 ° 0 min 0 W/m² 9,4 °C 11,3 °C 8,0 km/h (2 Bft)
30.10.2023 03:13 21,1 °C 11,3 °C 63 % 88 % 1003,6 hPa 0,0 l/m² 6,5 km/h (2 Bft) S-SO 158 ° 0 min 0 W/m² 9,4 °C 11,3 °C 8,0 km/h (2 Bft)
30.10.2023 03:15 21,1 °C 11,4 °C 63 % 88 % 1003,6 hPa 0,0 l/m² 6,1 km/h (2 Bft) S-SO 148 ° 0 min 0 W/m² 9,5 °C 11,4 °C 8,0 km/h (2 Bft)
30.10.2023 03:17 21,1 °C 11,4 °C 63 % 88 % 1003,6 hPa 0,0 l/m² 5,9 km/h (2 Bft) S-SO 149 ° 0 min 0 W/m² 9,5 °C 11,4 °C 9,7 km/h (2 Bft)
30.10.2023 03:19 21,1 °C 11,5 °C 63 % 87 % 1003,5 hPa 0,0 l/m² 5,9 km/h (2 Bft) S-SO 156 ° 0 min 0 W/m² 9,4 °C 11,5 °C 8,0 km/h (2 Bft)
30.10.2023 03:20 21,1 °C 11,5 °C 63 % 87 % 1003,5 hPa 0,0 l/m² 5,4 km/h (2 Bft) S-SO 150 ° 0 min 0 W/m² 9,4 °C 11,5 °C 8,0 km/h (2 Bft)
30.10.2023 03:22 21,1 °C 11,6 °C 63 % 87 % 1003,4 hPa 0,0 l/m² 5,8 km/h (2 Bft) S-SO 161 ° 0 min 0 W/m² 9,5 °C 11,6 °C 8,0 km/h (2 Bft)
30.10.2023 03:23 21,1 °C 11,6 °C 63 % 87 % 1003,4 hPa 0,0 l/m² 6,2 km/h (2 Bft) S-SO 161 ° 0 min 0 W/m² 9,5 °C 11,6 °C 8,0 km/h (2 Bft)
30.10.2023 03:25 21,1 °C 11,6 °C 63 % 87 % 1003,5 hPa 0,0 l/m² 5,3 km/h (1 Bft) S-SO 149 ° 0 min 0 W/m² 9,5 °C 11,6 °C 8,0 km/h (2 Bft)
30.10.2023 03:27 21,1 °C 11,6 °C 63 % 87 % 1003,5 hPa 0,0 l/m² 6,1 km/h (2 Bft) S-SO 148 ° 0 min 0 W/m² 9,5 °C 11,6 °C 8,0 km/h (2 Bft)
30.10.2023 03:29 21,1 °C 11,6 °C 63 % 87 % 1003,5 hPa 0,0 l/m² 5,1 km/h (1 Bft) S-SO 149 ° 0 min 0 W/m² 9,5 °C 11,6 °C 6,4 km/h (2 Bft)
30.10.2023 03:30 21,1 °C 11,6 °C 63 % 87 % 1003,5 hPa 0,0 l/m² 6,0 km/h (2 Bft) S-SO 153 ° 0 min 0 W/m² 9,5 °C 11,6 °C 8,0 km/h (2 Bft)
30.10.2023 03:32 21,1 °C 11,6 °C 63 % 87 % 1003,6 hPa 0,0 l/m² 5,4 km/h (2 Bft) S-SO 160 ° 0 min 0 W/m² 9,5 °C 11,6 °C 8,0 km/h (2 Bft)
30.10.2023 03:33 21,1 °C 11,6 °C 63 % 87 % 1003,6 hPa 0,0 l/m² 6,6 km/h (2 Bft) S 175 ° 0 min 0 W/m² 9,5 °C 11,5 °C 8,0 km/h (2 Bft)
30.10.2023 03:35 21,1 °C 11,6 °C 63 % 87 % 1003,7 hPa 0,0 l/m² 7,7 km/h (2 Bft) S-SO 153 ° 0 min 0 W/m² 9,5 °C 10,7 °C 12,9 km/h (3 Bft)
30.10.2023 03:37 21,1 °C 11,6 °C 63 % 87 % 1003,8 hPa 0,0 l/m² 7,2 km/h (2 Bft) S-SO 150 ° 0 min 0 W/m² 9,5 °C 11,1 °C 9,7 km/h (2 Bft)
30.10.2023 03:39 21,1 °C 11,6 °C 63 % 87 % 1003,8 hPa 0,0 l/m² 7,4 km/h (2 Bft) S-SO 163 ° 0 min 0 W/m² 9,5 °C 10,9 °C 9,7 km/h (2 Bft)
30.10.2023 03:40 21,1 °C 11,6 °C 63 % 87 % 1003,7 hPa 0,0 l/m² 6,6 km/h (2 Bft) S-SO 167 ° 0 min 0 W/m² 9,5 °C 11,5 °C 8,0 km/h (2 Bft)
30.10.2023 03:42 21,1 °C 11,6 °C 63 % 87 % 1003,6 hPa 0,0 l/m² 7,4 km/h (2 Bft) SO 143 ° 0 min 0 W/m² 9,5 °C 10,9 °C 11,3 km/h (2 Bft)
30.10.2023 03:43 21,1 °C 11,6 °C 63 % 87 % 1003,6 hPa 0,0 l/m² 6,8 km/h (2 Bft) S-SO 155 ° 0 min 0 W/m² 9,5 °C 11,3 °C 11,3 km/h (2 Bft)
30.10.2023 03:45 21,1 °C 11,5 °C 63 % 87 % 1003,6 hPa 0,0 l/m² 8,4 km/h (2 Bft) S-SO 161 ° 0 min 0 W/m² 9,4 °C 10,2 °C 11,3 km/h (2 Bft)
30.10.2023 03:47 21,1 °C 11,5 °C 63 % 87 % 1003,4 hPa 0,0 l/m² 6,5 km/h (2 Bft) S-SO 155 ° 0 min 0 W/m² 9,4 °C 11,5 °C 11,3 km/h (2 Bft)
30.10.2023 03:48 21,1 °C 11,5 °C 63 % 87 % 1003,5 hPa 0,0 l/m² 6,7 km/h (2 Bft) S-SO 155 ° 0 min 0 W/m² 9,4 °C 11,3 °C 8,0 km/h (2 Bft)
30.10.2023 03:50 21,1 °C 11,4 °C 63 % 87 % 1003,6 hPa 0,0 l/m² 5,0 km/h (1 Bft) S 175 ° 0 min 0 W/m² 9,3 °C 11,4 °C 8,0 km/h (2 Bft)
30.10.2023 03:51 21,1 °C 11,4 °C 63 % 87 % 1003,6 hPa 0,0 l/m² 4,3 km/h (1 Bft) S 184 ° 0 min 0 W/m² 9,3 °C 11,4 °C 8,0 km/h (2 Bft)
30.10.2023 03:52 21,1 °C 11,4 °C 63 % 87 % 1003,6 hPa 0,0 l/m² 3,6 km/h (1 Bft) S 184 ° 0 min 0 W/m² 9,3 °C 11,4 °C 4,8 km/h (1 Bft)
30.10.2023 03:54 21,1 °C 11,4 °C 63 % 87 % 1003,5 hPa 0,0 l/m² 5,5 km/h (2 Bft) S 182 ° 0 min 0 W/m² 9,3 °C 11,4 °C 8,0 km/h (2 Bft)
30.10.2023 03:56 21,1 °C 11,3 °C 63 % 87 % 1003,6 hPa 0,0 l/m² 3,6 km/h (1 Bft) S 177 ° 0 min 0 W/m² 9,2 °C 11,3 °C 6,4 km/h (2 Bft)
30.10.2023 03:58 21,1 °C 11,3 °C 63 % 88 % 1003,5 hPa 0,0 l/m² 4,9 km/h (1 Bft) S-SO 153 ° 0 min 0 W/m² 9,4 °C 11,3 °C 8,0 km/h (2 Bft)
30.10.2023 04:00 21,1 °C 11,3 °C 63 % 88 % 1003,5 hPa 0,0 l/m² 5,3 km/h (1 Bft) S-SO 167 ° 0 min 0 W/m² 9,4 °C 11,3 °C 8,0 km/h (2 Bft)
30.10.2023 04:01 21,1 °C 11,3 °C 63 % 88 % 1003,5 hPa 0,0 l/m² 4,9 km/h (1 Bft) S 180 ° 0 min 0 W/m² 9,4 °C 11,3 °C 6,4 km/h (2 Bft)
30.10.2023 04:02 21,1 °C 11,3 °C 63 % 88 % 1003,5 hPa 0,0 l/m² 3,4 km/h (1 Bft) S 180 ° 0 min 0 W/m² 9,4 °C 11,3 °C 4,8 km/h (1 Bft)
30.10.2023 04:05 21,1 °C 11,3 °C 63 % 88 % 1003,3 hPa 0,0 l/m² 4,4 km/h (1 Bft) S-SO 157 ° 0 min 0 W/m² 9,4 °C 11,3 °C 8,0 km/h (2 Bft)
30.10.2023 04:07 21,1 °C 11,3 °C 63 % 88 % 1003,3 hPa 0,0 l/m² 7,7 km/h (2 Bft) S-SO 161 ° 0 min 0 W/m² 9,4 °C 10,4 °C 12,9 km/h (3 Bft)
30.10.2023 04:09 21,1 °C 11,3 °C 63 % 88 % 1003,3 hPa 0,0 l/m² 4,3 km/h (1 Bft) S 172 ° 0 min 0 W/m² 9,4 °C 11,3 °C 8,0 km/h (2 Bft)
30.10.2023 04:10 21,1 °C 11,3 °C 63 % 88 % 1003,3 hPa 0,0 l/m² 2,0 km/h (1 Bft) S 172 ° 0 min 0 W/m² 9,4 °C 11,3 °C 3,2 km/h (1 Bft)
30.10.2023 04:11 21,1 °C 11,3 °C 63 % 88 % 1003,2 hPa 0,0 l/m² 6,0 km/h (2 Bft) S-SO 163 ° 0 min 0 W/m² 9,4 °C 11,3 °C 8,0 km/h (2 Bft)
30.10.2023 04:12 21,1 °C 11,3 °C 63 % 88 % 1003,2 hPa 0,0 l/m² 5,9 km/h (2 Bft) S-SO 158 ° 0 min 0 W/m² 9,4 °C 11,3 °C 9,7 km/h (2 Bft)
30.10.2023 04:15 21,1 °C 11,3 °C 63 % 88 % 1003,3 hPa 0,0 l/m² 4,8 km/h (1 Bft) S-SO 148 ° 0 min 0 W/m² 9,4 °C 11,3 °C 9,7 km/h (2 Bft)
30.10.2023 04:17 21,1 °C 11,4 °C 63 % 88 % 1003,4 hPa 0,0 l/m² 4,8 km/h (1 Bft) SO 143 ° 0 min 0 W/m² 9,5 °C 11,4 °C 8,0 km/h (2 Bft)
30.10.2023 04:19 21,1 °C 11,4 °C 63 % 88 % 1003,4 hPa 0,0 l/m² 3,0 km/h (1 Bft) S-SO 150 ° 0 min 0 W/m² 9,5 °C 11,4 °C 6,4 km/h (2 Bft)
30.10.2023 04:21 21,1 °C 11,5 °C 63 % 88 % 1003,5 hPa 0,0 l/m² 3,8 km/h (1 Bft) S-SO 149 ° 0 min 0 W/m² 9,6 °C 11,5 °C 4,8 km/h (1 Bft)
30.10.2023 04:22 21,1 °C 11,5 °C 63 % 88 % 1003,5 hPa 0,0 l/m² 3,6 km/h (1 Bft) S-SO 153 ° 0 min 0 W/m² 9,6 °C 11,5 °C 4,8 km/h (1 Bft)
30.10.2023 04:23 21,1 °C 11,5 °C 63 % 88 % 1003,6 hPa 0,0 l/m² 3,1 km/h (1 Bft) S-SO 148 ° 0 min 0 W/m² 9,6 °C 11,5 °C 6,4 km/h (2 Bft)
30.10.2023 04:25 21,1 °C 11,4 °C 63 % 88 % 1003,4 hPa 0,0 l/m² 4,0 km/h (1 Bft) S-SO 153 ° 0 min 0 W/m² 9,5 °C 11,4 °C 6,4 km/h (2 Bft)
30.10.2023 04:27 21,0 °C 11,5 °C 63 % 88 % 1003,5 hPa 0,0 l/m² 2,4 km/h (1 Bft) SO 140 ° 0 min 0 W/m² 9,6 °C 11,5 °C 6,4 km/h (2 Bft)
30.10.2023 04:29 21,1 °C 11,4 °C 63 % 88 % 1003,7 hPa 0,0 l/m² 2,3 km/h (1 Bft) S 171 ° 0 min 0 W/m² 9,5 °C 11,4 °C 8,0 km/h (2 Bft)
30.10.2023 04:31 21,0 °C 11,4 °C 63 % 88 % 1003,7 hPa 0,0 l/m² 3,2 km/h (1 Bft) S-SO 162 ° 0 min 0 W/m² 9,5 °C 11,4 °C 6,4 km/h (2 Bft)
30.10.2023 04:32 21,0 °C 11,4 °C 63 % 88 % 1003,8 hPa 0,0 l/m² 2,1 km/h (1 Bft) S-SO 167 ° 0 min 0 W/m² 9,5 °C 11,4 °C 4,8 km/h (1 Bft)
30.10.2023 04:33 21,0 °C 11,4 °C 63 % 88 % 1003,8 hPa 0,0 l/m² 3,3 km/h (1 Bft) S 171 ° 0 min 0 W/m² 9,5 °C 11,4 °C 8,0 km/h (2 Bft)
30.10.2023 04:35 21,0 °C 11,4 °C 63 % 88 % 1003,8 hPa 0,0 l/m² 4,4 km/h (1 Bft) S-SO 153 ° 0 min 0 W/m² 9,5 °C 11,4 °C 8,0 km/h (2 Bft)
30.10.2023 04:37 21,1 °C 11,4 °C 63 % 88 % 1003,7 hPa 0,0 l/m² 5,2 km/h (1 Bft) S-SO 151 ° 0 min 0 W/m² 9,5 °C 11,4 °C 8,0 km/h (2 Bft)
30.10.2023 04:39 21,1 °C 11,4 °C 63 % 88 % 1003,7 hPa 0,0 l/m² 5,2 km/h (1 Bft) S-SO 150 ° 0 min 0 W/m² 9,5 °C 11,4 °C 9,7 km/h (2 Bft)
30.10.2023 04:41 21,1 °C 11,4 °C 63 % 88 % 1003,7 hPa 0,0 l/m² 4,3 km/h (1 Bft) SO 144 ° 0 min 0 W/m² 9,5 °C 11,4 °C 8,0 km/h (2 Bft)
30.10.2023 04:42 21,1 °C 11,5 °C 63 % 88 % 1003,7 hPa 0,0 l/m² 4,5 km/h (1 Bft) S-SO 149 ° 0 min 0 W/m² 9,6 °C 11,5 °C 8,0 km/h (2 Bft)
30.10.2023 04:43 21,1 °C 11,5 °C 63 % 88 % 1003,6 hPa 0,0 l/m² 5,3 km/h (1 Bft) S 170 ° 0 min 0 W/m² 9,6 °C 11,5 °C 9,7 km/h (2 Bft)
30.10.2023 04:45 21,1 °C 11,4 °C 63 % 88 % 1003,5 hPa 0,0 l/m² 4,3 km/h (1 Bft) SO 138 ° 0 min 0 W/m² 9,5 °C 11,4 °C 8,0 km/h (2 Bft)
30.10.2023 04:47 21,0 °C 11,5 °C 63 % 88 % 1003,4 hPa 0,0 l/m² 1,7 km/h (1 Bft) S-SO 156 ° 0 min 0 W/m² 9,6 °C 11,5 °C 4,8 km/h (1 Bft)
30.10.2023 04:49 21,0 °C 11,5 °C 63 % 88 % 1003,4 hPa 0,0 l/m² 0,7 km/h (0 Bft) S-SO 150 ° 0 min 0 W/m² 9,6 °C 11,5 °C 3,2 km/h (1 Bft)
30.10.2023 04:51 21,1 °C 11,6 °C 63 % 88 % 1003,6 hPa 0,0 l/m² 3,7 km/h (1 Bft) S-SO 159 ° 0 min 0 W/m² 9,7 °C 11,6 °C 8,0 km/h (2 Bft)
30.10.2023 04:52 21,0 °C 11,6 °C 63 % 88 % 1003,6 hPa 0,0 l/m² 3,9 km/h (1 Bft) S-SO 167 ° 0 min 0 W/m² 9,7 °C 11,6 °C 6,4 km/h (2 Bft)
30.10.2023 04:53 21,0 °C 11,6 °C 63 % 88 % 1003,6 hPa 0,0 l/m² 5,2 km/h (1 Bft) S-SO 163 ° 0 min 0 W/m² 9,7 °C 11,6 °C 9,7 km/h (2 Bft)
30.10.2023 04:55 21,0 °C 11,6 °C 63 % 88 % 1003,6 hPa 0,0 l/m² 6,3 km/h (2 Bft) S-SO 168 ° 0 min 0 W/m² 9,7 °C 11,6 °C 11,3 km/h (2 Bft)
30.10.2023 04:57 21,1 °C 11,7 °C 63 % 87 % 1003,7 hPa 0,0 l/m² 5,0 km/h (1 Bft) SO 128 ° 0 min 0 W/m² 9,6 °C 11,7 °C 8,0 km/h (2 Bft)
30.10.2023 04:59 21,0 °C 11,7 °C 63 % 87 % 1003,6 hPa 0,0 l/m² 4,8 km/h (1 Bft) S 169 ° 0 min 0 W/m² 9,6 °C 11,7 °C 8,0 km/h (2 Bft)
30.10.2023 05:01 21,1 °C 11,7 °C 63 % 87 % 1003,6 hPa 0,0 l/m² 3,9 km/h (1 Bft) S-SO 156 ° 0 min 0 W/m² 9,6 °C 11,7 °C 8,0 km/h (2 Bft)
30.10.2023 05:02 21,0 °C 11,7 °C 63 % 87 % 1003,7 hPa 0,0 l/m² 3,8 km/h (1 Bft) S-SO 147 ° 0 min 0 W/m² 9,6 °C 11,7 °C 8,0 km/h (2 Bft)
30.10.2023 05:03 21,0 °C 11,7 °C 63 % 87 % 1003,7 hPa 0,0 l/m² 2,7 km/h (1 Bft) S-SO 153 ° 0 min 0 W/m² 9,6 °C 11,7 °C 3,2 km/h (1 Bft)
30.10.2023 05:05 21,0 °C 11,7 °C 63 % 87 % 1003,7 hPa 0,0 l/m² 2,4 km/h (1 Bft) S-SO 152 ° 0 min 0 W/m² 9,6 °C 11,7 °C 4,8 km/h (1 Bft)
30.10.2023 05:07 21,0 °C 11,7 °C 63 % 87 % 1003,8 hPa 0,0 l/m² 3,2 km/h (1 Bft) S-SO 161 ° 0 min 0 W/m² 9,6 °C 11,7 °C 6,4 km/h (2 Bft)
30.10.2023 05:09 21,0 °C 11,7 °C 63 % 87 % 1003,8 hPa 0,0 l/m² 1,5 km/h (1 Bft) S-SO 163 ° 0 min 0 W/m² 9,6 °C 11,7 °C 3,2 km/h (1 Bft)
30.10.2023 05:11 21,0 °C 11,7 °C 63 % 87 % 1003,8 hPa 0,0 l/m² 0,2 km/h (0 Bft) S-SO 163 ° 0 min 0 W/m² 9,6 °C 11,7 °C 1,6 km/h (1 Bft)
30.10.2023 05:12 21,0 °C 11,7 °C 63 % 87 % 1003,8 hPa 0,0 l/m² 2,7 km/h (1 Bft) S-SO 165 ° 0 min 0 W/m² 9,6 °C 11,7 °C 6,4 km/h (2 Bft)
30.10.2023 05:13 21,0 °C 11,6 °C 63 % 87 % 1003,8 hPa 0,0 l/m² 0,8 km/h (0 Bft) S-SO 164 ° 0 min 0 W/m² 9,5 °C 11,6 °C 3,2 km/h (1 Bft)
30.10.2023 05:15 21,0 °C 11,6 °C 63 % 87 % 1003,7 hPa 0,0 l/m² 3,9 km/h (1 Bft) S-SO 161 ° 0 min 0 W/m² 9,5 °C 11,6 °C 6,4 km/h (2 Bft)
30.10.2023 05:17 21,0 °C 11,6 °C 63 % 87 % 1003,7 hPa 0,0 l/m² 2,3 km/h (1 Bft) S-SO 152 ° 0 min 0 W/m² 9,5 °C 11,6 °C 6,4 km/h (2 Bft)
30.10.2023 05:19 21,0 °C 11,6 °C 63 % 87 % 1003,7 hPa 0,0 l/m² 1,5 km/h (1 Bft) S-SO 163 ° 0 min 0 W/m² 9,5 °C 11,6 °C 6,4 km/h (2 Bft)
30.10.2023 05:21 21,0 °C 11,6 °C 63 % 87 % 1003,7 hPa 0,0 l/m² 2,7 km/h (1 Bft) S 171 ° 0 min 0 W/m² 9,5 °C 11,6 °C 6,4 km/h (2 Bft)
30.10.2023 05:22 21,0 °C 11,6 °C 63 % 87 % 1003,8 hPa 0,0 l/m² 2,7 km/h (1 Bft) S 186 ° 0 min 0 W/m² 9,5 °C 11,6 °C 4,8 km/h (1 Bft)
30.10.2023 05:23 21,0 °C 11,6 °C 63 % 87 % 1003,8 hPa 0,0 l/m² 2,8 km/h (1 Bft) S 186 ° 0 min 0 W/m² 9,5 °C 11,6 °C 4,8 km/h (1 Bft)
30.10.2023 05:24 21,0 °C 11,5 °C 63 % 87 % 1003,8 hPa 0,0 l/m² 2,7 km/h (1 Bft) S 186 ° 0 min 0 W/m² 9,4 °C 11,5 °C 3,2 km/h (1 Bft)
30.10.2023 05:25 21,0 °C 11,5 °C 63 % 87 % 1003,9 hPa 0,0 l/m² 4,6 km/h (1 Bft) S 188 ° 0 min 0 W/m² 9,4 °C 11,5 °C 8,0 km/h (2 Bft)
30.10.2023 05:27 21,0 °C 11,4 °C 63 % 87 % 1003,6 hPa 0,0 l/m² 3,6 km/h (1 Bft) S 177 ° 0 min 0 W/m² 9,3 °C 11,4 °C 6,4 km/h (2 Bft)
30.10.2023 05:29 21,0 °C 11,4 °C 63 % 87 % 1003,7 hPa 0,0 l/m² 3,0 km/h (1 Bft) S 180 ° 0 min 0 W/m² 9,3 °C 11,4 °C 6,4 km/h (2 Bft)
30.10.2023 05:31 21,0 °C 11,4 °C 63 % 87 % 1003,8 hPa 0,0 l/m² 1,9 km/h (1 Bft) S 180 ° 0 min 0 W/m² 9,3 °C 11,4 °C 3,2 km/h (1 Bft)
30.10.2023 05:32 21,0 °C 11,3 °C 63 % 87 % 1003,8 hPa 0,0 l/m² 2,5 km/h (1 Bft) S 180 ° 0 min 0 W/m² 9,2 °C 11,3 °C 3,2 km/h (1 Bft)
30.10.2023 05:33 21,0 °C 11,3 °C 63 % 87 % 1003,8 hPa 0,0 l/m² 4,7 km/h (1 Bft) S-SW 202 ° 0 min 0 W/m² 9,2 °C 11,3 °C 8,0 km/h (2 Bft)
30.10.2023 05:35 21,0 °C 11,3 °C 63 % 87 % 1003,7 hPa 0,0 l/m² 3,0 km/h (1 Bft) S-SO 160 ° 0 min 0 W/m² 9,2 °C 11,3 °C 6,4 km/h (2 Bft)
30.10.2023 05:37 21,0 °C 11,2 °C 63 % 87 % 1003,6 hPa 0,0 l/m² 1,2 km/h (1 Bft) S-SO 160 ° 0 min 0 W/m² 9,1 °C 11,2 °C 3,2 km/h (1 Bft)
30.10.2023 05:39 21,0 °C 11,2 °C 63 % 87 % 1003,5 hPa 0,0 l/m² 3,6 km/h (1 Bft) SO 138 ° 0 min 0 W/m² 9,1 °C 11,2 °C 6,4 km/h (2 Bft)
30.10.2023 05:40 21,0 °C 11,2 °C 63 % 87 % 1003,6 hPa 0,0 l/m² 3,6 km/h (1 Bft) SO 140 ° 0 min 0 W/m² 9,1 °C 11,2 °C 4,8 km/h (1 Bft)
30.10.2023 05:42 21,0 °C 11,1 °C 63 % 87 % 1003,6 hPa 0,0 l/m² 2,6 km/h (1 Bft) SO 140 ° 0 min 0 W/m² 9,0 °C 11,1 °C 3,2 km/h (1 Bft)
30.10.2023 05:43 21,0 °C 11,1 °C 63 % 87 % 1003,5 hPa 0,0 l/m² 2,9 km/h (1 Bft) SO 140 ° 0 min 0 W/m² 9,0 °C 11,1 °C 4,8 km/h (1 Bft)
30.10.2023 05:45 21,0 °C 11,0 °C 63 % 87 % 1003,5 hPa 0,0 l/m² 2,6 km/h (1 Bft) SO 140 ° 0 min 0 W/m² 8,9 °C 11,0 °C 4,8 km/h (1 Bft)
30.10.2023 05:47 21,0 °C 10,9 °C 63 % 88 % 1003,7 hPa 0,0 l/m² 1,9 km/h (1 Bft) SO 139 ° 0 min 0 W/m² 9,0 °C 10,9 °C 3,2 km/h (1 Bft)
30.10.2023 05:49 20,9 °C 10,8 °C 63 % 88 % 1003,9 hPa 0,0 l/m² 1,2 km/h (1 Bft) SO 139 ° 0 min 0 W/m² 8,9 °C 10,8 °C 3,2 km/h (1 Bft)
30.10.2023 05:51 21,0 °C 10,7 °C 63 % 88 % 1003,9 hPa 0,0 l/m² 1,0 km/h (0 Bft) SO 139 ° 0 min 0 W/m² 8,8 °C 10,7 °C 3,2 km/h (1 Bft)
30.10.2023 05:52 21,0 °C 10,7 °C 63 % 89 % 1003,9 hPa 0,0 l/m² 1,8 km/h (1 Bft) SO 142 ° 0 min 0 W/m² 9,0 °C 10,7 °C 6,4 km/h (2 Bft)
30.10.2023 05:53 21,0 °C 10,7 °C 63 % 89 % 1003,9 hPa 0,0 l/m² 5,7 km/h (2 Bft) S 171 ° 0 min 0 W/m² 9,0 °C 10,7 °C 11,3 km/h (2 Bft)
30.10.2023 05:55 21,0 °C 10,8 °C 63 % 89 % 1004,0 hPa 0,0 l/m² 6,5 km/h (2 Bft) S 171 ° 0 min 0 W/m² 9,1 °C 10,8 °C 9,7 km/h (2 Bft)
30.10.2023 05:57 21,0 °C 10,8 °C 63 % 89 % 1003,9 hPa 0,0 l/m² 6,2 km/h (2 Bft) S 178 ° 0 min 0 W/m² 9,1 °C 10,8 °C 9,7 km/h (2 Bft)
30.10.2023 05:59 21,0 °C 10,9 °C 63 % 89 % 1003,8 hPa 0,0 l/m² 4,0 km/h (1 Bft) S 187 ° 0 min 0 W/m² 9,2 °C 10,9 °C 6,4 km/h (2 Bft)
30.10.2023 06:01 21,0 °C 10,9 °C 63 % 88 % 1003,8 hPa 0,0 l/m² 2,0 km/h (1 Bft) S 187 ° 0 min 0 W/m² 9,0 °C 10,9 °C 4,8 km/h (1 Bft)
30.10.2023 06:02 21,0 °C 10,9 °C 63 % 88 % 1003,7 hPa 0,0 l/m² 0,4 km/h (0 Bft) S 187 ° 0 min 0 W/m² 9,0 °C 10,9 °C 1,6 km/h (1 Bft)
30.10.2023 06:03 21,0 °C 10,9 °C 63 % 88 % 1003,8 hPa 0,0 l/m² 1,0 km/h (0 Bft) S 187 ° 0 min 0 W/m² 9,0 °C 10,9 °C 1,6 km/h (1 Bft)
30.10.2023 06:04 21,0 °C 10,9 °C 63 % 88 % 1003,7 hPa 0,0 l/m² 0,3 km/h (0 Bft) S 187 ° 0 min 0 W/m² 9,0 °C 10,9 °C 1,6 km/h (1 Bft)
30.10.2023 06:05 21,0 °C 10,9 °C 63 % 88 % 1003,7 hPa 0,0 l/m² 0,8 km/h (0 Bft) S 184 ° 0 min 0 W/m² 9,0 °C 10,9 °C 3,2 km/h (1 Bft)
30.10.2023 06:07 21,0 °C 10,8 °C 63 % 88 % 1003,8 hPa 0,0 l/m² 0,9 km/h (0 Bft) O-SO 117 ° 0 min 0 W/m² 8,9 °C 10,8 °C 3,2 km/h (1 Bft)
30.10.2023 06:09 21,0 °C 10,8 °C 63 % 89 % 1003,8 hPa 0,0 l/m² 2,3 km/h (1 Bft) O-SO 113 ° 0 min 0 W/m² 9,1 °C 10,8 °C 3,2 km/h (1 Bft)
30.10.2023 06:11 21,0 °C 10,8 °C 63 % 89 % 1003,6 hPa 0,0 l/m² 4,4 km/h (1 Bft) O 89 ° 0 min 0 W/m² 9,1 °C 10,8 °C 6,4 km/h (2 Bft)
30.10.2023 06:12 21,0 °C 10,8 °C 63 % 89 % 1003,6 hPa 0,0 l/m² 2,2 km/h (1 Bft) O 88 ° 0 min 0 W/m² 9,1 °C 10,8 °C 4,8 km/h (1 Bft)
30.10.2023 06:13 21,0 °C 10,9 °C 63 % 89 % 1003,7 hPa 0,0 l/m² 2,5 km/h (1 Bft) O 88 ° 0 min 0 W/m² 9,2 °C 10,9 °C 4,8 km/h (1 Bft)
30.10.2023 06:14 21,0 °C 10,9 °C 63 % 89 % 1003,6 hPa 0,0 l/m² 1,3 km/h (1 Bft) O 88 ° 0 min 0 W/m² 9,2 °C 10,9 °C 3,2 km/h (1 Bft)
30.10.2023 06:15 21,0 °C 10,9 °C 63 % 89 % 1003,6 hPa 0,0 l/m² 2,6 km/h (1 Bft) O 88 ° 0 min 0 W/m² 9,2 °C 10,9 °C 4,8 km/h (1 Bft)
30.10.2023 06:17 21,0 °C 11,0 °C 63 % 89 % 1003,7 hPa 0,0 l/m² 1,4 km/h (1 Bft) O 88 ° 0 min 0 W/m² 9,3 °C 11,0 °C 4,8 km/h (1 Bft)
30.10.2023 06:19 21,0 °C 11,1 °C 63 % 89 % 1003,7 hPa 0,0 l/m² 3,3 km/h (1 Bft) O 88 ° 0 min 0 W/m² 9,4 °C 11,1 °C 6,4 km/h (2 Bft)
30.10.2023 06:21 21,0 °C 11,0 °C 63 % 89 % 1003,8 hPa 0,0 l/m² 3,1 km/h (1 Bft) O 88 ° 0 min 0 W/m² 9,3 °C 11,0 °C 4,8 km/h (1 Bft)
30.10.2023 06:22 21,0 °C 11,0 °C 63 % 89 % 1003,8 hPa 0,0 l/m² 3,2 km/h (1 Bft) O 88 ° 0 min 0 W/m² 9,3 °C 11,0 °C 4,8 km/h (1 Bft)
30.10.2023 06:23 21,0 °C 11,0 °C 63 % 89 % 1003,8 hPa 0,0 l/m² 4,7 km/h (1 Bft) O 90 ° 0 min 0 W/m² 9,3 °C 11,0 °C 6,4 km/h (2 Bft)
30.10.2023 06:25 21,0 °C 11,0 °C 63 % 89 % 1003,7 hPa 0,0 l/m² 3,3 km/h (1 Bft) O 90 ° 0 min 0 W/m² 9,3 °C 11,0 °C 4,8 km/h (1 Bft)
30.10.2023 06:27 21,0 °C 10,9 °C 63 % 89 % 1003,8 hPa 0,0 l/m² 4,2 km/h (1 Bft) O 90 ° 0 min 0 W/m² 9,2 °C 10,9 °C 6,4 km/h (2 Bft)
30.10.2023 06:29 20,9 °C 10,9 °C 63 % 89 % 1003,8 hPa 0,0 l/m² 4,8 km/h (1 Bft) O 92 ° 0 min 0 W/m² 9,2 °C 10,9 °C 6,4 km/h (2 Bft)
30.10.2023 06:31 21,0 °C 10,9 °C 63 % 89 % 1003,8 hPa 0,0 l/m² 5,4 km/h (2 Bft) O-SO 109 ° 0 min 0 W/m² 9,2 °C 10,9 °C 6,4 km/h (2 Bft)
30.10.2023 06:32 21,0 °C 10,9 °C 63 % 89 % 1003,8 hPa 0,0 l/m² 3,2 km/h (1 Bft) O-SO 113 ° 0 min 0 W/m² 9,2 °C 10,9 °C 4,8 km/h (1 Bft)
30.10.2023 06:33 21,0 °C 10,9 °C 63 % 89 % 1003,8 hPa 0,0 l/m² 3,4 km/h (1 Bft) O-SO 113 ° 0 min 0 W/m² 9,2 °C 10,9 °C 4,8 km/h (1 Bft)
30.10.2023 06:35 21,0 °C 10,9 °C 63 % 89 % 1003,8 hPa 0,0 l/m² 3,1 km/h (1 Bft) O-SO 114 ° 0 min 0 W/m² 9,2 °C 10,9 °C 4,8 km/h (1 Bft)
30.10.2023 06:37 20,9 °C 10,9 °C 63 % 89 % 1003,9 hPa 0,0 l/m² 4,0 km/h (1 Bft) O-SO 121 ° 0 min 0 W/m² 9,2 °C 10,9 °C 6,4 km/h (2 Bft)
30.10.2023 06:39 20,9 °C 11,0 °C 63 % 89 % 1003,8 hPa 0,0 l/m² 3,7 km/h (1 Bft) SO 134 ° 0 min 0 W/m² 9,3 °C 11,0 °C 6,4 km/h (2 Bft)
30.10.2023 06:41 20,9 °C 11,0 °C 63 % 89 % 1003,8 hPa 0,0 l/m² 5,2 km/h (1 Bft) SO 136 ° 0 min 0 W/m² 9,3 °C 11,0 °C 6,4 km/h (2 Bft)
30.10.2023 06:42 20,9 °C 11,1 °C 63 % 89 % 1003,7 hPa 0,0 l/m² 4,1 km/h (1 Bft) SO 136 ° 0 min 0 W/m² 9,4 °C 11,1 °C 6,4 km/h (2 Bft)
30.10.2023 06:43 20,9 °C 11,1 °C 63 % 89 % 1003,7 hPa 0,0 l/m² 5,0 km/h (1 Bft) SO 126 ° 0 min 0 W/m² 9,4 °C 11,1 °C 8,0 km/h (2 Bft)
30.10.2023 06:44 20,9 °C 11,1 °C 63 % 89 % 1003,7 hPa 0,0 l/m² 4,9 km/h (1 Bft) SO 131 ° 0 min 0 W/m² 9,4 °C 11,1 °C 8,0 km/h (2 Bft)
30.10.2023 06:46 20,9 °C 11,2 °C 63 % 89 % 1003,7 hPa 0,0 l/m² 7,3 km/h (2 Bft) SO 140 ° 0 min 0 W/m² 9,5 °C 10,6 °C 11,3 km/h (2 Bft)
30.10.2023 06:48 20,9 °C 11,3 °C 63 % 89 % 1003,8 hPa 0,0 l/m² 5,4 km/h (2 Bft) S-SO 154 ° 0 min 0 W/m² 9,6 °C 11,3 °C 9,7 km/h (2 Bft)
30.10.2023 06:50 21,0 °C 11,4 °C 63 % 89 % 1003,8 hPa 0,0 l/m² 5,6 km/h (2 Bft) S-SO 148 ° 0 min 0 W/m² 9,7 °C 11,4 °C 9,7 km/h (2 Bft)
30.10.2023 06:51 20,9 °C 11,4 °C 63 % 89 % 1003,8 hPa 0,0 l/m² 7,7 km/h (2 Bft) S 173 ° 0 min 0 W/m² 9,7 °C 10,5 °C 11,3 km/h (2 Bft)
30.10.2023 06:52 20,9 °C 11,4 °C 63 % 89 % 1003,8 hPa 0,0 l/m² 9,7 km/h (2 Bft) S-SO 163 ° 0 min 0 W/m² 9,7 °C 9,3 °C 14,5 km/h (3 Bft)
30.10.2023 06:53 20,9 °C 11,5 °C 63 % 89 % 1004,0 hPa 0,0 l/m² 9,7 km/h (2 Bft) S 175 ° 0 min 0 W/m² 9,8 °C 9,4 °C 14,5 km/h (3 Bft)
30.10.2023 06:54 20,9 °C 11,5 °C 63 % 89 % 1004,0 hPa 0,0 l/m² 9,0 km/h (2 Bft) S-SO 160 ° 0 min 0 W/m² 9,8 °C 9,8 °C 14,5 km/h (3 Bft)
30.10.2023 06:56 20,9 °C 11,6 °C 63 % 88 % 1004,0 hPa 0,0 l/m² 6,5 km/h (2 Bft) S-SO 162 ° 0 min 0 W/m² 9,7 °C 11,6 °C 12,9 km/h (3 Bft)
30.10.2023 06:58 20,9 °C 11,6 °C 63 % 88 % 1004,0 hPa 0,0 l/m² 5,6 km/h (2 Bft) S-SO 165 ° 0 min 0 W/m² 9,7 °C 11,6 °C 9,7 km/h (2 Bft)
30.10.2023 07:00 20,9 °C 11,6 °C 63 % 88 % 1004,0 hPa 0,0 l/m² 7,9 km/h (2 Bft) SO 146 ° 0 min 0 W/m² 9,7 °C 10,6 °C 12,9 km/h (3 Bft)
30.10.2023 07:01 20,9 °C 11,6 °C 63 % 88 % 1003,9 hPa 0,0 l/m² 5,4 km/h (2 Bft) S-SO 155 ° 0 min 0 W/m² 9,7 °C 11,6 °C 8,0 km/h (2 Bft)
30.10.2023 07:02 20,9 °C 11,6 °C 63 % 88 % 1003,9 hPa 0,0 l/m² 8,4 km/h (2 Bft) SO 144 ° 0 min 0 W/m² 9,7 °C 10,3 °C 12,9 km/h (3 Bft)
30.10.2023 07:03 20,9 °C 11,6 °C 63 % 88 % 1003,9 hPa 0,0 l/m² 7,7 km/h (2 Bft) S-SO 162 ° 0 min 0 W/m² 9,7 °C 10,7 °C 9,7 km/h (2 Bft)
30.10.2023 07:05 20,9 °C 11,6 °C 63 % 88 % 1003,8 hPa 0,0 l/m² 6,3 km/h (2 Bft) S-SO 151 ° 0 min 0 W/m² 9,7 °C 11,6 °C 9,7 km/h (2 Bft)
30.10.2023 07:06 20,9 °C 11,6 °C 63 % 88 % 1003,9 hPa 0,0 l/m² 8,0 km/h (2 Bft) S-SO 159 ° 0 min 0 W/m² 9,7 °C 10,5 °C 11,3 km/h (2 Bft)
30.10.2023 07:08 20,9 °C 11,7 °C 63 % 88 % 1003,8 hPa 0,0 l/m² 4,0 km/h (1 Bft) S 184 ° 0 min 0 W/m² 9,8 °C 11,7 °C 8,0 km/h (2 Bft)
30.10.2023 07:10 20,9 °C 11,7 °C 63 % 87 % 1003,8 hPa 0,0 l/m² 3,7 km/h (1 Bft) S-SO 162 ° 0 min 0 W/m² 9,6 °C 11,7 °C 6,4 km/h (2 Bft)
30.10.2023 07:11 20,9 °C 11,7 °C 63 % 87 % 1003,8 hPa 0,0 l/m² 3,6 km/h (1 Bft) S-SO 162 ° 0 min 0 W/m² 9,6 °C 11,7 °C 6,4 km/h (2 Bft)
30.10.2023 07:12 20,9 °C 11,7 °C 63 % 87 % 1003,8 hPa 0,0 l/m² 4,2 km/h (1 Bft) S-SO 161 ° 0 min 0 W/m² 9,6 °C 11,7 °C 6,4 km/h (2 Bft)
30.10.2023 07:13 20,9 °C 11,7 °C 63 % 87 % 1003,8 hPa 0,0 l/m² 4,8 km/h (1 Bft) S-SO 159 ° 0 min 5 W/m² 9,6 °C 11,7 °C 6,4 km/h (2 Bft)
30.10.2023 07:15 20,9 °C 11,6 °C 63 % 87 % 1003,9 hPa 0,0 l/m² 4,2 km/h (1 Bft) S-SO 159 ° 0 min 5 W/m² 9,5 °C 11,6 °C 6,4 km/h (2 Bft)
30.10.2023 07:17 20,9 °C 11,6 °C 63 % 87 % 1003,9 hPa 0,0 l/m² 3,3 km/h (1 Bft) S-SO 159 ° 0 min 7 W/m² 9,5 °C 11,6 °C 6,4 km/h (2 Bft)
30.10.2023 07:19 20,9 °C 11,6 °C 63 % 87 % 1003,9 hPa 0,0 l/m² 0,9 km/h (0 Bft) S-SO 159 ° 0 min 9 W/m² 9,5 °C 11,6 °C 3,2 km/h (1 Bft)
30.10.2023 07:20 20,9 °C 11,6 °C 63 % 87 % 1003,9 hPa 0,0 l/m² 0,1 km/h (0 Bft) S-SO 159 ° 0 min 9 W/m² 9,5 °C 11,6 °C 1,6 km/h (1 Bft)
30.10.2023 07:22 20,9 °C 11,4 °C 63 % 87 % 1003,9 hPa 0,0 l/m² 1,1 km/h (1 Bft) S-SO 159 ° 0 min 7 W/m² 9,3 °C 11,4 °C 1,6 km/h (1 Bft)
30.10.2023 07:23 20,9 °C 11,4 °C 63 % 87 % 1003,9 hPa 0,0 l/m² 2,2 km/h (1 Bft) S-SO 159 ° 0 min 9 W/m² 9,3 °C 11,4 °C 3,2 km/h (1 Bft)
30.10.2023 07:25 20,9 °C 11,4 °C 63 % 87 % 1003,9 hPa 0,0 l/m² 2,1 km/h (1 Bft) S-SO 159 ° 0 min 9 W/m² 9,3 °C 11,4 °C 3,2 km/h (1 Bft)
30.10.2023 07:27 20,9 °C 11,4 °C 63 % 88 % 1004,0 hPa 0,0 l/m² 2,3 km/h (1 Bft) S-SO 159 ° 0 min 11 W/m² 9,5 °C 11,4 °C 6,4 km/h (2 Bft)
30.10.2023 07:29 20,9 °C 11,3 °C 63 % 88 % 1004,0 hPa 0,0 l/m² 2,4 km/h (1 Bft) S-SO 159 ° 0 min 11 W/m² 9,4 °C 11,3 °C 6,4 km/h (2 Bft)
30.10.2023 07:31 20,9 °C 11,3 °C 63 % 88 % 1003,9 hPa 0,0 l/m² 1,6 km/h (1 Bft) S-SO 159 ° 0 min 11 W/m² 9,4 °C 11,3 °C 3,2 km/h (1 Bft)
30.10.2023 07:32 20,9 °C 11,3 °C 63 % 88 % 1004,0 hPa 0,0 l/m² 2,4 km/h (1 Bft) S-SO 159 ° 0 min 12 W/m² 9,4 °C 11,3 °C 3,2 km/h (1 Bft)
30.10.2023 07:33 20,9 °C 11,3 °C 63 % 88 % 1003,9 hPa 0,0 l/m² 2,8 km/h (1 Bft) S-SO 159 ° 0 min 12 W/m² 9,4 °C 11,3 °C 6,4 km/h (2 Bft)
30.10.2023 07:35 20,9 °C 11,3 °C 63 % 88 % 1004,0 hPa 0,0 l/m² 2,0 km/h (1 Bft) S-SO 159 ° 0 min 12 W/m² 9,4 °C 11,3 °C 3,2 km/h (1 Bft)
30.10.2023 07:37 20,9 °C 11,3 °C 63 % 88 % 1004,0 hPa 0,0 l/m² 3,3 km/h (1 Bft) SO 140 ° 0 min 12 W/m² 9,4 °C 11,3 °C 6,4 km/h (2 Bft)
30.10.2023 07:39 20,9 °C 11,3 °C 63 % 88 % 1003,9 hPa 0,0 l/m² 1,2 km/h (1 Bft) SO 140 ° 0 min 12 W/m² 9,4 °C 11,3 °C 3,2 km/h (1 Bft)
30.10.2023 07:41 20,9 °C 11,3 °C 63 % 88 % 1003,9 hPa 0,0 l/m² 1,1 km/h (1 Bft) SO 140 ° 0 min 14 W/m² 9,4 °C 11,3 °C 3,2 km/h (1 Bft)
30.10.2023 07:42 20,9 °C 11,3 °C 63 % 88 % 1003,8 hPa 0,0 l/m² 2,6 km/h (1 Bft) SO 140 ° 0 min 16 W/m² 9,4 °C 11,3 °C 3,2 km/h (1 Bft)
30.10.2023 07:43 20,9 °C 11,3 °C 63 % 88 % 1003,8 hPa 0,0 l/m² 3,4 km/h (1 Bft) SO 140 ° 0 min 18 W/m² 9,4 °C 11,3 °C 4,8 km/h (1 Bft)
30.10.2023 07:45 20,9 °C 11,3 °C 63 % 89 % 1003,7 hPa 0,0 l/m² 3,8 km/h (1 Bft) SO 140 ° 0 min 21 W/m² 9,6 °C 11,3 °C 6,4 km/h (2 Bft)
30.10.2023 07:47 20,9 °C 11,3 °C 63 % 88 % 1003,8 hPa 0,0 l/m² 4,7 km/h (1 Bft) O-SO 119 ° 0 min 21 W/m² 9,4 °C 11,3 °C 6,4 km/h (2 Bft)
30.10.2023 07:49 20,9 °C 11,3 °C 63 % 88 % 1003,7 hPa 0,0 l/m² 3,9 km/h (1 Bft) O-SO 117 ° 0 min 21 W/m² 9,4 °C 11,3 °C 4,8 km/h (1 Bft)
30.10.2023 07:50 20,9 °C 11,2 °C 63 % 88 % 1003,7 hPa 0,0 l/m² 3,9 km/h (1 Bft) O-SO 117 ° 0 min 21 W/m² 9,3 °C 11,2 °C 4,8 km/h (1 Bft)
30.10.2023 07:51 20,9 °C 11,2 °C 63 % 89 % 1003,9 hPa 0,0 l/m² 3,2 km/h (1 Bft) O-SO 117 ° 0 min 21 W/m² 9,5 °C 11,2 °C 4,8 km/h (1 Bft)
30.10.2023 07:52 20,9 °C 11,2 °C 63 % 89 % 1003,9 hPa 0,0 l/m² 3,5 km/h (1 Bft) O-SO 123 ° 0 min 21 W/m² 9,5 °C 11,2 °C 4,8 km/h (1 Bft)
30.10.2023 07:53 20,9 °C 11,2 °C 63 % 89 % 1003,9 hPa 0,0 l/m² 3,6 km/h (1 Bft) O-SO 123 ° 0 min 21 W/m² 9,5 °C 11,2 °C 4,8 km/h (1 Bft)
30.10.2023 07:54 20,9 °C 11,2 °C 63 % 89 % 1003,9 hPa 0,0 l/m² 3,6 km/h (1 Bft) O-SO 123 ° 0 min 19 W/m² 9,5 °C 11,2 °C 4,8 km/h (1 Bft)
30.10.2023 07:56 20,9 °C 11,3 °C 63 % 89 % 1003,9 hPa 0,0 l/m² 3,3 km/h (1 Bft) O-SO 123 ° 0 min 16 W/m² 9,6 °C 11,3 °C 4,8 km/h (1 Bft)
30.10.2023 07:58 20,9 °C 11,3 °C 63 % 89 % 1003,9 hPa 0,0 l/m² 5,5 km/h (2 Bft) O-SO 120 ° 0 min 14 W/m² 9,6 °C 11,3 °C 8,0 km/h (2 Bft)
30.10.2023 08:00 20,9 °C 11,3 °C 63 % 89 % 1003,9 hPa 0,0 l/m² 4,9 km/h (1 Bft) O-SO 117 ° 0 min 16 W/m² 9,6 °C 11,3 °C 6,4 km/h (2 Bft)
30.10.2023 08:01 20,9 °C 11,2 °C 63 % 89 % 1003,9 hPa 0,0 l/m² 2,6 km/h (1 Bft) O-SO 117 ° 0 min 16 W/m² 9,5 °C 11,2 °C 4,8 km/h (1 Bft)
30.10.2023 08:02 21,0 °C 11,3 °C 63 % 89 % 1003,8 hPa 0,0 l/m² 1,7 km/h (1 Bft) O-SO 117 ° 0 min 16 W/m² 9,6 °C 11,3 °C 3,2 km/h (1 Bft)
30.10.2023 08:03 21,0 °C 11,3 °C 63 % 89 % 1003,8 hPa 0,0 l/m² 1,7 km/h (1 Bft) O-SO 117 ° 0 min 16 W/m² 9,6 °C 11,3 °C 3,2 km/h (1 Bft)
30.10.2023 08:06 20,9 °C 11,3 °C 63 % 89 % 1003,9 hPa 0,0 l/m² 2,3 km/h (1 Bft) O-SO 117 ° 0 min 18 W/m² 9,6 °C 11,3 °C 4,8 km/h (1 Bft)
30.10.2023 08:07 21,0 °C 11,3 °C 63 % 89 % 1003,9 hPa 0,0 l/m² 2,3 km/h (1 Bft) O-SO 117 ° 0 min 18 W/m² 9,6 °C 11,3 °C 3,2 km/h (1 Bft)
30.10.2023 08:08 21,0 °C 11,3 °C 63 % 89 % 1003,9 hPa 0,0 l/m² 2,9 km/h (1 Bft) O-SO 117 ° 0 min 19 W/m² 9,6 °C 11,3 °C 4,8 km/h (1 Bft)
30.10.2023 08:10 21,0 °C 11,3 °C 63 % 89 % 1004,0 hPa 0,0 l/m² 3,2 km/h (1 Bft) O-SO 117 ° 0 min 21 W/m² 9,6 °C 11,3 °C 4,8 km/h (1 Bft)
30.10.2023 08:11 21,0 °C 11,3 °C 64 % 89 % 1004,0 hPa 0,0 l/m² 3,4 km/h (1 Bft) O-SO 117 ° 0 min 21 W/m² 9,6 °C 11,3 °C 4,8 km/h (1 Bft)
30.10.2023 08:12 21,0 °C 11,3 °C 64 % 89 % 1004,0 hPa 0,0 l/m² 2,7 km/h (1 Bft) O-SO 117 ° 0 min 21 W/m² 9,6 °C 11,3 °C 4,8 km/h (1 Bft)
30.10.2023 08:13 21,0 °C 11,3 °C 64 % 89 % 1004,0 hPa 0,0 l/m² 3,3 km/h (1 Bft) O-SO 117 ° 0 min 21 W/m² 9,6 °C 11,3 °C 4,8 km/h (1 Bft)
30.10.2023 08:15 21,0 °C 11,3 °C 64 % 89 % 1004,2 hPa 0,0 l/m² 1,4 km/h (1 Bft) O-SO 117 ° 0 min 25 W/m² 9,6 °C 11,3 °C 4,8 km/h (1 Bft)
30.10.2023 08:17 21,0 °C 11,3 °C 64 % 89 % 1004,3 hPa 0,0 l/m² 0,0 km/h (0 Bft) O-SO 117 ° 0 min 26 W/m² 9,6 °C 11,3 °C 0,0 km/h (0 Bft)
30.10.2023 08:19 21,1 °C 11,4 °C 64 % 89 % 1004,4 hPa 0,0 l/m² 0,0 km/h (0 Bft) O-SO 117 ° 0 min 28 W/m² 9,7 °C 11,4 °C 0,0 km/h (0 Bft)
30.10.2023 08:21 21,0 °C 11,4 °C 64 % 89 % 1004,5 hPa 0,0 l/m² 0,7 km/h (0 Bft) O-SO 117 ° 0 min 28 W/m² 9,7 °C 11,4 °C 3,2 km/h (1 Bft)
30.10.2023 08:22 21,1 °C 11,3 °C 64 % 89 % 1004,5 hPa 0,0 l/m² 1,0 km/h (0 Bft) O-SO 117 ° 0 min 26 W/m² 9,6 °C 11,3 °C 3,2 km/h (1 Bft)
30.10.2023 08:23 21,1 °C 11,4 °C 64 % 89 % 1004,5 hPa 0,0 l/m² 3,3 km/h (1 Bft) O-SO 108 ° 0 min 26 W/m² 9,7 °C 11,4 °C 4,8 km/h (1 Bft)
30.10.2023 08:26 21,1 °C 11,3 °C 64 % 89 % 1004,5 hPa 0,0 l/m² 3,3 km/h (1 Bft) O 94 ° 0 min 28 W/m² 9,6 °C 11,3 °C 6,4 km/h (2 Bft)
30.10.2023 08:28 21,1 °C 11,4 °C 64 % 89 % 1004,5 hPa 0,0 l/m² 0,6 km/h (0 Bft) O 94 ° 0 min 30 W/m² 9,7 °C 11,4 °C 1,6 km/h (1 Bft)
30.10.2023 08:30 21,1 °C 11,3 °C 64 % 89 % 1004,5 hPa 0,0 l/m² 1,0 km/h (0 Bft) O 94 ° 0 min 32 W/m² 9,6 °C 11,3 °C 3,2 km/h (1 Bft)
30.10.2023 08:31 21,1 °C 11,4 °C 64 % 89 % 1004,6 hPa 0,0 l/m² 1,0 km/h (0 Bft) O 94 ° 0 min 33 W/m² 9,7 °C 11,4 °C 3,2 km/h (1 Bft)
30.10.2023 08:32 21,1 °C 11,4 °C 64 % 90 % 1004,7 hPa 0,0 l/m² 2,0 km/h (1 Bft) O 94 ° 0 min 32 W/m² 9,8 °C 11,4 °C 3,2 km/h (1 Bft)
30.10.2023 08:33 21,1 °C 11,3 °C 64 % 89 % 1004,7 hPa 0,0 l/m² 1,3 km/h (1 Bft) O 94 ° 0 min 30 W/m² 9,6 °C 11,3 °C 1,6 km/h (1 Bft)
30.10.2023 08:36 21,1 °C 11,3 °C 64 % 90 % 1004,7 hPa 0,0 l/m² 2,6 km/h (1 Bft) O-SO 116 ° 0 min 26 W/m² 9,7 °C 11,3 °C 6,4 km/h (2 Bft)
30.10.2023 08:38 21,1 °C 11,3 °C 64 % 90 % 1004,7 hPa 0,0 l/m² 3,6 km/h (1 Bft) SO 126 ° 0 min 26 W/m² 9,7 °C 11,3 °C 6,4 km/h (2 Bft)
30.10.2023 08:40 21,1 °C 11,3 °C 64 % 90 % 1004,7 hPa 0,0 l/m² 4,5 km/h (1 Bft) O-SO 121 ° 0 min 26 W/m² 9,7 °C 11,3 °C 11,3 km/h (2 Bft)
30.10.2023 08:41 21,1 °C 11,3 °C 64 % 90 % 1004,6 hPa 0,0 l/m² 5,0 km/h (1 Bft) O-SO 109 ° 0 min 26 W/m² 9,7 °C 11,3 °C 8,0 km/h (2 Bft)
30.10.2023 08:42 21,1 °C 11,3 °C 64 % 90 % 1004,6 hPa 0,0 l/m² 6,2 km/h (2 Bft) O-SO 107 ° 0 min 26 W/m² 9,7 °C 11,3 °C 9,7 km/h (2 Bft)
30.10.2023 08:43 21,1 °C 11,3 °C 64 % 90 % 1004,6 hPa 0,0 l/m² 4,7 km/h (1 Bft) O-SO 117 ° 0 min 26 W/m² 9,7 °C 11,3 °C 6,4 km/h (2 Bft)
30.10.2023 08:46 21,1 °C 11,3 °C 64 % 90 % 1004,5 hPa 0,0 l/m² 5,0 km/h (1 Bft) O-SO 119 ° 0 min 28 W/m² 9,7 °C 11,3 °C 8,0 km/h (2 Bft)
30.10.2023 08:47 21,1 °C 11,4 °C 64 % 90 % 1004,7 hPa 0,0 l/m² 6,5 km/h (2 Bft) SO 133 ° 0 min 30 W/m² 9,8 °C 11,4 °C 9,7 km/h (2 Bft)
30.10.2023 08:48 21,1 °C 11,4 °C 64 % 90 % 1004,7 hPa 0,0 l/m² 5,0 km/h (1 Bft) O-SO 118 ° 0 min 30 W/m² 9,8 °C 11,4 °C 6,4 km/h (2 Bft)
30.10.2023 08:50 21,1 °C 11,4 °C 64 % 90 % 1004,7 hPa 0,0 l/m² 6,2 km/h (2 Bft) SO 139 ° 0 min 32 W/m² 9,8 °C 11,4 °C 11,3 km/h (2 Bft)
30.10.2023 08:51 21,1 °C 11,4 °C 64 % 90 % 1004,6 hPa 0,0 l/m² 6,4 km/h (2 Bft) SO 132 ° 0 min 33 W/m² 9,8 °C 11,4 °C 11,3 km/h (2 Bft)
30.10.2023 08:52 21,1 °C 11,5 °C 64 % 90 % 1004,7 hPa 0,0 l/m² 4,7 km/h (1 Bft) SO 131 ° 0 min 33 W/m² 9,9 °C 11,5 °C 8,0 km/h (2 Bft)
30.10.2023 08:53 21,1 °C 11,6 °C 64 % 90 % 1004,7 hPa 0,0 l/m² 6,6 km/h (2 Bft) SO 135 ° 0 min 35 W/m² 10,0 °C 11,5 °C 8,0 km/h (2 Bft)
30.10.2023 08:56 21,1 °C 11,6 °C 64 % 90 % 1004,7 hPa 0,0 l/m² 3,6 km/h (1 Bft) SO 128 ° 0 min 39 W/m² 10,0 °C 11,6 °C 6,4 km/h (2 Bft)
30.10.2023 08:58 21,2 °C 11,7 °C 64 % 90 % 1004,6 hPa 0,0 l/m² 6,2 km/h (2 Bft) SO 132 ° 0 min 40 W/m² 10,1 °C 11,7 °C 11,3 km/h (2 Bft)
30.10.2023 09:00 21,1 °C 11,8 °C 64 % 89 % 1004,5 hPa 0,0 l/m² 5,6 km/h (2 Bft) SO 128 ° 0 min 42 W/m² 10,0 °C 11,8 °C 8,0 km/h (2 Bft)
30.10.2023 09:01 21,1 °C 11,8 °C 64 % 89 % 1004,5 hPa 0,0 l/m² 6,4 km/h (2 Bft) SO 124 ° 0 min 40 W/m² 10,0 °C 11,8 °C 11,3 km/h (2 Bft)
30.10.2023 09:02 21,1 °C 11,8 °C 64 % 89 % 1004,5 hPa 0,0 l/m² 7,2 km/h (2 Bft) S-SO 153 ° 0 min 39 W/m² 10,0 °C 11,3 °C 12,9 km/h (3 Bft)
30.10.2023 09:03 21,1 °C 11,8 °C 64 % 89 % 1004,5 hPa 0,0 l/m² 5,1 km/h (1 Bft) O-SO 121 ° 0 min 37 W/m² 10,0 °C 11,8 °C 8,0 km/h (2 Bft)
30.10.2023 09:05 21,2 °C 11,9 °C 64 % 89 % 1004,4 hPa 0,0 l/m² 5,1 km/h (1 Bft) SO 146 ° 0 min 32 W/m² 10,1 °C 11,9 °C 9,7 km/h (2 Bft)
30.10.2023 09:06 21,2 °C 11,9 °C 64 % 89 % 1004,5 hPa 0,0 l/m² 5,2 km/h (1 Bft) O-SO 123 ° 0 min 30 W/m² 10,1 °C 11,9 °C 8,0 km/h (2 Bft)
30.10.2023 09:08 21,2 °C 11,9 °C 64 % 89 % 1004,5 hPa 0,0 l/m² 7,1 km/h (2 Bft) SO 132 ° 0 min 26 W/m² 10,1 °C 11,4 °C 11,3 km/h (2 Bft)
30.10.2023 09:10 21,2 °C 12,0 °C 64 % 89 % 1004,4 hPa 0,0 l/m² 6,7 km/h (2 Bft) SO 130 ° 0 min 26 W/m² 10,2 °C 11,8 °C 9,7 km/h (2 Bft)
30.10.2023 09:11 21,2 °C 12,0 °C 64 % 88 % 1004,4 hPa 0,0 l/m² 9,8 km/h (2 Bft) SO 135 ° 0 min 26 W/m² 10,1 °C 9,9 °C 14,5 km/h (3 Bft)
30.10.2023 09:12 21,2 °C 12,0 °C 64 % 88 % 1004,4 hPa 0,0 l/m² 7,1 km/h (2 Bft) SO 136 ° 0 min 28 W/m² 10,1 °C 11,5 °C 11,3 km/h (2 Bft)
30.10.2023 09:13 21,2 °C 12,1 °C 64 % 88 % 1004,4 hPa 0,0 l/m² 8,4 km/h (2 Bft) O-SO 121 ° 0 min 30 W/m² 10,2 °C 10,8 °C 11,3 km/h (2 Bft)
30.10.2023 09:16 21,2 °C 12,0 °C 64 % 88 % 1004,4 hPa 0,0 l/m² 9,7 km/h (2 Bft) SO 144 ° 0 min 37 W/m² 10,1 °C 10,0 °C 14,5 km/h (3 Bft)
30.10.2023 09:18 21,2 °C 12,1 °C 64 % 88 % 1004,5 hPa 0,0 l/m² 6,5 km/h (2 Bft) SO 132 ° 0 min 39 W/m² 10,2 °C 12,1 °C 11,3 km/h (2 Bft)
30.10.2023 09:20 21,2 °C 12,1 °C 64 % 88 % 1004,4 hPa 0,0 l/m² 3,2 km/h (1 Bft) SO 132 ° 0 min 51 W/m² 10,2 °C 12,1 °C 8,0 km/h (2 Bft)
30.10.2023 09:21 21,2 °C 12,1 °C 64 % 88 % 1004,6 hPa 0,0 l/m² 2,0 km/h (1 Bft) S-SO 155 ° 1 min 53 W/m² 10,2 °C 12,1 °C 4,8 km/h (1 Bft)
30.10.2023 09:22 21,2 °C 12,2 °C 64 % 88 % 1004,5 hPa 0,0 l/m² 1,5 km/h (1 Bft) S-SO 155 ° 1 min 53 W/m² 10,3 °C 12,2 °C 3,2 km/h (1 Bft)
30.10.2023 09:23 21,2 °C 12,2 °C 64 % 88 % 1004,6 hPa 0,0 l/m² 0,8 km/h (0 Bft) S-SO 155 ° 1 min 54 W/m² 10,3 °C 12,2 °C 3,2 km/h (1 Bft)
30.10.2023 09:26 21,2 °C 12,2 °C 64 % 88 % 1004,5 hPa 0,0 l/m² 2,9 km/h (1 Bft) SO 145 ° 3 min 62 W/m² 10,3 °C 12,2 °C 8,0 km/h (2 Bft)
30.10.2023 09:28 21,2 °C 12,2 °C 64 % 88 % 1004,6 hPa 0,0 l/m² 3,9 km/h (1 Bft) SO 138 ° 2 min 74 W/m² 10,3 °C 12,2 °C 4,8 km/h (1 Bft)
30.10.2023 09:30 21,2 °C 12,3 °C 64 % 88 % 1004,5 hPa 0,0 l/m² 4,3 km/h (1 Bft) SO 128 ° 2 min 79 W/m² 10,4 °C 12,3 °C 6,4 km/h (2 Bft)
30.10.2023 09:31 21,2 °C 12,3 °C 64 % 88 % 1004,4 hPa 0,0 l/m² 3,7 km/h (1 Bft) O-SO 121 ° 1 min 81 W/m² 10,4 °C 12,3 °C 4,8 km/h (1 Bft)
30.10.2023 09:32 21,2 °C 12,3 °C 64 % 88 % 1004,4 hPa 0,0 l/m² 3,5 km/h (1 Bft) O-SO 116 ° 1 min 84 W/m² 10,4 °C 12,3 °C 6,4 km/h (2 Bft)
30.10.2023 09:33 21,2 °C 12,3 °C 64 % 88 % 1004,4 hPa 0,0 l/m² 3,5 km/h (1 Bft) O-SO 114 ° 1 min 86 W/m² 10,4 °C 12,3 °C 4,8 km/h (1 Bft)
30.10.2023 09:36 21,2 °C 12,4 °C 64 % 88 % 1004,3 hPa 0,0 l/m² 3,0 km/h (1 Bft) O-SO 116 ° 3 min 97 W/m² 10,5 °C 12,4 °C 4,8 km/h (1 Bft)
30.10.2023 09:38 21,2 °C 12,4 °C 64 % 88 % 1004,2 hPa 0,0 l/m² 5,8 km/h (2 Bft) O-SO 112 ° 2 min 109 W/m² 10,5 °C 12,4 °C 9,7 km/h (2 Bft)
30.10.2023 09:40 21,2 °C 12,4 °C 64 % 88 % 1004,1 hPa 0,0 l/m² 6,7 km/h (2 Bft) O-SO 122 ° 2 min 113 W/m² 10,5 °C 12,2 °C 12,9 km/h (3 Bft)
30.10.2023 09:41 21,2 °C 12,5 °C 64 % 88 % 1004,0 hPa 0,0 l/m² 9,6 km/h (2 Bft) O-SO 110 ° 1 min 111 W/m² 10,6 °C 10,6 °C 12,9 km/h (3 Bft)
30.10.2023 09:42 21,2 °C 12,4 °C 64 % 88 % 1004,0 hPa 0,0 l/m² 9,4 km/h (2 Bft) O-SO 105 ° 1 min 111 W/m² 10,5 °C 10,6 °C 12,9 km/h (3 Bft)
30.10.2023 09:43 21,2 °C 12,5 °C 64 % 88 % 1004,0 hPa 0,0 l/m² 11,4 km/h (2 Bft) O-SO 115 ° 1 min 109 W/m² 10,6 °C 9,7 °C 14,5 km/h (3 Bft)
30.10.2023 09:45 21,2 °C 12,6 °C 64 % 88 % 1003,7 hPa 0,0 l/m² 11,9 km/h (2 Bft) O 88 ° 2 min 107 W/m² 10,7 °C 9,6 °C 14,5 km/h (3 Bft)
30.10.2023 09:47 21,2 °C 12,6 °C 64 % 88 % 1003,7 hPa 0,0 l/m² 13,0 km/h (3 Bft) O-SO 121 ° 2 min 109 W/m² 10,7 °C 9,1 °C 17,7 km/h (3 Bft)
30.10.2023 09:49 21,2 °C 12,6 °C 63 % 88 % 1003,7 hPa 0,0 l/m² 12,9 km/h (3 Bft) O 82 ° 2 min 107 W/m² 10,7 °C 9,1 °C 16,1 km/h (3 Bft)
30.10.2023 09:50 21,2 °C 12,6 °C 63 % 88 % 1003,7 hPa 0,0 l/m² 13,0 km/h (3 Bft) O-SO 122 ° 1 min 107 W/m² 10,7 °C 9,1 °C 17,7 km/h (3 Bft)
30.10.2023 09:52 21,2 °C 12,6 °C 63 % 88 % 1003,7 hPa 0,0 l/m² 12,9 km/h (3 Bft) O-SO 102 ° 2 min 97 W/m² 10,7 °C 9,1 °C 16,1 km/h (3 Bft)
30.10.2023 09:54 21,2 °C 12,6 °C 63 % 87 % 1003,8 hPa 0,0 l/m² 13,0 km/h (3 Bft) O 93 ° 2 min 77 W/m² 10,5 °C 9,1 °C 17,7 km/h (3 Bft)
30.10.2023 09:56 21,2 °C 12,7 °C 62 % 87 % 1003,8 hPa 0,0 l/m² 11,4 km/h (2 Bft) O-SO 119 ° 2 min 70 W/m² 10,6 °C 9,9 °C 17,7 km/h (3 Bft)
30.10.2023 09:58 21,1 °C 12,6 °C 62 % 87 % 1004,0 hPa 0,0 l/m² 9,7 km/h (2 Bft) O-SO 116 ° 2 min 69 W/m² 10,5 °C 10,6 °C 14,5 km/h (3 Bft)
30.10.2023 10:00 21,1 °C 12,7 °C 61 % 87 % 1004,3 hPa 0,0 l/m² 7,2 km/h (2 Bft) O-SO 115 ° 2 min 74 W/m² 10,6 °C 12,2 °C 11,3 km/h (2 Bft)
30.10.2023 10:01 21,1 °C 12,7 °C 61 % 87 % 1004,5 hPa 0,0 l/m² 2,4 km/h (1 Bft) O-SO 104 ° 1 min 83 W/m² 10,6 °C 12,7 °C 4,8 km/h (1 Bft)
30.10.2023 10:02 21,1 °C 12,7 °C 61 % 87 % 1004,5 hPa 0,0 l/m² 1,1 km/h (1 Bft) O-SO 105 ° 1 min 91 W/m² 10,6 °C 12,7 °C 3,2 km/h (1 Bft)
30.10.2023 10:04 21,1 °C 12,8 °C 61 % 87 % 1004,5 hPa 0,0 l/m² 0,0 km/h (0 Bft) O-SO 105 ° 2 min 111 W/m² 10,7 °C 12,8 °C 0,0 km/h (0 Bft)
30.10.2023 10:05 21,1 °C 12,8 °C 61 % 87 % 1004,7 hPa 0,0 l/m² 0,0 km/h (0 Bft) O-SO 105 ° 1 min 116 W/m² 10,7 °C 12,8 °C 0,0 km/h (0 Bft)
30.10.2023 10:07 21,1 °C 12,9 °C 62 % 87 % 1004,6 hPa 0,0 l/m² 0,1 km/h (0 Bft) O-SO 105 ° 2 min 141 W/m² 10,8 °C 12,9 °C 1,6 km/h (1 Bft)
30.10.2023 10:09 21,1 °C 13,1 °C 62 % 86 % 1004,4 hPa 0,0 l/m² 0,7 km/h (0 Bft) O-SO 105 ° 2 min 151 W/m² 10,8 °C 13,1 °C 3,2 km/h (1 Bft)
30.10.2023 10:10 21,1 °C 13,1 °C 62 % 86 % 1004,5 hPa 0,0 l/m² 3,9 km/h (1 Bft) O-SO 118 ° 1 min 151 W/m² 10,8 °C 13,1 °C 6,4 km/h (2 Bft)
30.10.2023 10:11 21,1 °C 13,1 °C 62 % 86 % 1004,4 hPa 0,0 l/m² 1,8 km/h (1 Bft) O-SO 118 ° 1 min 155 W/m² 10,8 °C 13,1 °C 3,2 km/h (1 Bft)
30.10.2023 10:12 21,1 °C 13,2 °C 62 % 86 % 1004,4 hPa 0,0 l/m² 0,0 km/h (0 Bft) O-SO 118 ° 1 min 155 W/m² 10,9 °C 13,2 °C 0,0 km/h (0 Bft)
30.10.2023 10:14 21,1 °C 13,2 °C 61 % 85 % 1004,5 hPa 0,0 l/m² 0,1 km/h (0 Bft) O-SO 118 ° 2 min 142 W/m² 10,7 °C 13,2 °C 1,6 km/h (1 Bft)
30.10.2023 10:15 21,1 °C 13,2 °C 61 % 86 % 1004,5 hPa 0,0 l/m² 0,8 km/h (0 Bft) O-SO 118 ° 1 min 135 W/m² 10,9 °C 13,2 °C 3,2 km/h (1 Bft)
30.10.2023 10:17 21,1 °C 13,3 °C 62 % 86 % 1004,5 hPa 0,0 l/m² 2,5 km/h (1 Bft) O-SO 118 ° 2 min 130 W/m² 11,0 °C 13,3 °C 3,2 km/h (1 Bft)
30.10.2023 10:19 21,1 °C 13,3 °C 62 % 86 % 1004,6 hPa 0,0 l/m² 2,5 km/h (1 Bft) O-SO 118 ° 2 min 155 W/m² 11,0 °C 13,3 °C 4,8 km/h (1 Bft)
30.10.2023 10:20 21,1 °C 13,3 °C 62 % 85 % 1004,5 hPa 0,0 l/m² 2,0 km/h (1 Bft) O-SO 118 ° 1 min 167 W/m² 10,8 °C 13,3 °C 3,2 km/h (1 Bft)
30.10.2023 10:22 21,1 °C 13,3 °C 62 % 85 % 1004,5 hPa 0,0 l/m² 3,8 km/h (1 Bft) SO 132 ° 2 min 181 W/m² 10,8 °C 13,3 °C 6,4 km/h (2 Bft)
30.10.2023 10:24 21,1 °C 13,4 °C 62 % 86 % 1004,5 hPa 0,0 l/m² 3,8 km/h (1 Bft) S-SO 150 ° 2 min 181 W/m² 11,1 °C 13,4 °C 4,8 km/h (1 Bft)
30.10.2023 10:26 21,1 °C 13,4 °C 62 % 85 % 1004,5 hPa 0,0 l/m² 3,8 km/h (1 Bft) S-SO 154 ° 2 min 183 W/m² 10,9 °C 13,4 °C 4,8 km/h (1 Bft)
30.10.2023 10:27 21,1 °C 13,4 °C 62 % 86 % 1004,4 hPa 0,0 l/m² 5,4 km/h (2 Bft) S-SO 165 ° 1 min 188 W/m² 11,1 °C 13,4 °C 8,0 km/h (2 Bft)
30.10.2023 10:28 21,1 °C 13,4 °C 62 % 86 % 1004,4 hPa 0,0 l/m² 4,2 km/h (1 Bft) S-SO 165 ° 1 min 192 W/m² 11,1 °C 13,4 °C 6,4 km/h (2 Bft)
30.10.2023 10:30 21,1 °C 13,4 °C 62 % 86 % 1004,5 hPa 0,0 l/m² 6,0 km/h (2 Bft) S-SO 157 ° 2 min 172 W/m² 11,1 °C 13,4 °C 8,0 km/h (2 Bft)
30.10.2023 10:31 21,1 °C 13,4 °C 62 % 86 % 1004,4 hPa 0,0 l/m² 7,2 km/h (2 Bft) S-SO 157 ° 1 min 167 W/m² 11,1 °C 12,9 °C 9,7 km/h (2 Bft)
30.10.2023 10:32 21,1 °C 13,4 °C 62 % 85 % 1004,4 hPa 0,0 l/m² 7,7 km/h (2 Bft) SO 146 ° 1 min 162 W/m² 10,9 °C 12,6 °C 11,3 km/h (2 Bft)
30.10.2023 10:33 21,1 °C 13,4 °C 62 % 85 % 1004,4 hPa 0,0 l/m² 6,9 km/h (2 Bft) SO 136 ° 1 min 156 W/m² 10,9 °C 13,1 °C 8,0 km/h (2 Bft)
30.10.2023 10:34 21,1 °C 13,4 °C 62 % 85 % 1004,4 hPa 0,0 l/m² 6,7 km/h (2 Bft) SO 146 ° 1 min 148 W/m² 10,9 °C 13,2 °C 9,7 km/h (2 Bft)
30.10.2023 10:35 21,1 °C 13,4 °C 62 % 85 % 1004,4 hPa 0,0 l/m² 7,6 km/h (2 Bft) S-SO 154 ° 1 min 127 W/m² 10,9 °C 12,7 °C 9,7 km/h (2 Bft)
30.10.2023 10:37 21,1 °C 13,4 °C 62 % 85 % 1004,4 hPa 0,0 l/m² 6,8 km/h (2 Bft) SO 144 ° 2 min 116 W/m² 10,9 °C 13,2 °C 9,7 km/h (2 Bft)
30.10.2023 10:39 21,2 °C 13,3 °C 62 % 85 % 1004,5 hPa 0,0 l/m² 4,7 km/h (1 Bft) S-SO 152 ° 2 min 109 W/m² 10,8 °C 13,3 °C 6,4 km/h (2 Bft)
30.10.2023 10:40 21,2 °C 13,3 °C 62 % 86 % 1004,5 hPa 0,0 l/m² 1,7 km/h (1 Bft) S-SO 152 ° 1 min 104 W/m² 11,0 °C 13,3 °C 3,2 km/h (1 Bft)
30.10.2023 10:41 21,2 °C 13,3 °C 62 % 86 % 1004,5 hPa 0,0 l/m² 0,5 km/h (0 Bft) S-SO 152 ° 1 min 98 W/m² 11,0 °C 13,3 °C 1,6 km/h (1 Bft)
30.10.2023 10:42 21,2 °C 13,3 °C 62 % 86 % 1004,5 hPa 0,0 l/m² 1,9 km/h (1 Bft) S-SO 152 ° 1 min 93 W/m² 11,0 °C 13,3 °C 3,2 km/h (1 Bft)
30.10.2023 10:44 21,1 °C 13,3 °C 62 % 86 % 1004,5 hPa 0,0 l/m² 2,4 km/h (1 Bft) S-SO 152 ° 2 min 84 W/m² 11,0 °C 13,3 °C 3,2 km/h (1 Bft)
30.10.2023 10:45 21,1 °C 13,3 °C 62 % 86 % 1004,6 hPa 0,0 l/m² 1,9 km/h (1 Bft) S-SO 152 ° 1 min 83 W/m² 11,0 °C 13,3 °C 3,2 km/h (1 Bft)
30.10.2023 10:47 21,1 °C 13,3 °C 62 % 86 % 1004,6 hPa 0,0 l/m² 3,1 km/h (1 Bft) SO 139 ° 2 min 79 W/m² 11,0 °C 13,3 °C 4,8 km/h (1 Bft)
30.10.2023 10:49 21,1 °C 13,3 °C 62 % 86 % 1004,6 hPa 0,0 l/m² 3,3 km/h (1 Bft) SO 139 ° 2 min 83 W/m² 11,0 °C 13,3 °C 4,8 km/h (1 Bft)
30.10.2023 10:50 21,2 °C 13,3 °C 62 % 86 % 1004,6 hPa 0,0 l/m² 2,0 km/h (1 Bft) SO 139 ° 1 min 86 W/m² 11,0 °C 13,3 °C 3,2 km/h (1 Bft)
30.10.2023 10:52 21,1 °C 13,2 °C 62 % 87 % 1004,6 hPa 0,0 l/m² 2,6 km/h (1 Bft) SO 139 ° 2 min 88 W/m² 11,1 °C 13,2 °C 4,8 km/h (1 Bft)
30.10.2023 10:53 21,2 °C 13,3 °C 62 % 87 % 1004,6 hPa 0,0 l/m² 5,0 km/h (1 Bft) SO 138 ° 1 min 93 W/m² 11,2 °C 13,3 °C 6,4 km/h (2 Bft)
30.10.2023 10:54 21,1 °C 13,2 °C 62 % 87 % 1004,6 hPa 0,0 l/m² 5,3 km/h (1 Bft) SO 126 ° 1 min 97 W/m² 11,1 °C 13,2 °C 6,4 km/h (2 Bft)
30.10.2023 10:56 21,2 °C 13,2 °C 62 % 87 % 1004,6 hPa 0,0 l/m² 5,0 km/h (1 Bft) O-SO 123 ° 2 min 105 W/m² 11,1 °C 13,2 °C 6,4 km/h (2 Bft)
30.10.2023 10:58 21,2 °C 13,2 °C 62 % 87 % 1004,6 hPa 0,0 l/m² 4,5 km/h (1 Bft) SO 126 ° 2 min 111 W/m² 11,1 °C 13,2 °C 6,4 km/h (2 Bft)
30.10.2023 11:00 21,1 °C 13,2 °C 62 % 87 % 1004,5 hPa 0,0 l/m² 3,7 km/h (1 Bft) O-SO 119 ° 2 min 118 W/m² 11,1 °C 13,2 °C 4,8 km/h (1 Bft)
30.10.2023 11:01 21,2 °C 13,3 °C 62 % 87 % 1004,5 hPa 0,0 l/m² 4,2 km/h (1 Bft) O-SO 109 ° 1 min 123 W/m² 11,2 °C 13,3 °C 6,4 km/h (2 Bft)
30.10.2023 11:02 21,1 °C 13,2 °C 62 % 87 % 1004,6 hPa 0,0 l/m² 3,8 km/h (1 Bft) O-SO 103 ° 1 min 127 W/m² 11,1 °C 13,2 °C 6,4 km/h (2 Bft)
30.10.2023 11:03 21,1 °C 13,2 °C 62 % 87 % 1004,6 hPa 0,0 l/m² 4,6 km/h (1 Bft) O-SO 103 ° 1 min 125 W/m² 11,1 °C 13,2 °C 6,4 km/h (2 Bft)
30.10.2023 11:05 21,2 °C 13,3 °C 62 % 87 % 1004,6 hPa 0,0 l/m² 3,3 km/h (1 Bft) O 99 ° 2 min 93 W/m² 11,2 °C 13,3 °C 6,4 km/h (2 Bft)
30.10.2023 11:06 21,2 °C 13,3 °C 62 % 87 % 1004,6 hPa 0,0 l/m² 2,5 km/h (1 Bft) O 98 ° 1 min 90 W/m² 11,2 °C 13,3 °C 4,8 km/h (1 Bft)
30.10.2023 11:08 21,2 °C 13,3 °C 62 % 87 % 1004,5 hPa 0,0 l/m² 3,7 km/h (1 Bft) O-NO 71 ° 2 min 91 W/m² 11,2 °C 13,3 °C 6,4 km/h (2 Bft)
30.10.2023 11:10 21,1 °C 13,4 °C 62 % 86 % 1004,5 hPa 0,0 l/m² 3,1 km/h (1 Bft) O-NO 63 ° 2 min 104 W/m² 11,1 °C 13,4 °C 6,4 km/h (2 Bft)
30.10.2023 11:12 21,2 °C 13,4 °C 62 % 86 % 1004,5 hPa 0,0 l/m² 3,6 km/h (1 Bft) O-NO 76 ° 2 min 114 W/m² 11,1 °C 13,4 °C 4,8 km/h (1 Bft)
30.10.2023 11:14 21,2 °C 13,4 °C 62 % 87 % 1004,5 hPa 0,0 l/m² 2,5 km/h (1 Bft) O-NO 76 ° 2 min 118 W/m² 11,3 °C 13,4 °C 4,8 km/h (1 Bft)
30.10.2023 11:16 21,2 °C 13,4 °C 62 % 87 % 1004,4 hPa 0,0 l/m² 2,6 km/h (1 Bft) O-NO 74 ° 2 min 114 W/m² 11,3 °C 13,4 °C 6,4 km/h (2 Bft)
30.10.2023 11:18 21,1 °C 13,5 °C 62 % 87 % 1004,4 hPa 0,0 l/m² 4,7 km/h (1 Bft) O-NO 74 ° 2 min 109 W/m² 11,4 °C 13,5 °C 8,0 km/h (2 Bft)
30.10.2023 11:20 21,2 °C 13,5 °C 62 % 86 % 1004,3 hPa 0,0 l/m² 4,6 km/h (1 Bft) O-NO 65 ° 2 min 104 W/m² 11,2 °C 13,5 °C 8,0 km/h (2 Bft)
30.10.2023 11:21 21,1 °C 13,5 °C 62 % 86 % 1004,2 hPa 0,0 l/m² 3,6 km/h (1 Bft) O-NO 62 ° 1 min 100 W/m² 11,2 °C 13,5 °C 6,4 km/h (2 Bft)
30.10.2023 11:22 21,2 °C 13,5 °C 62 % 86 % 1004,2 hPa 0,0 l/m² 4,9 km/h (1 Bft) O-NO 62 ° 1 min 98 W/m² 11,2 °C 13,5 °C 6,4 km/h (2 Bft)
30.10.2023 11:23 21,2 °C 13,4 °C 62 % 86 % 1004,2 hPa 0,0 l/m² 5,3 km/h (1 Bft) NO 51 ° 1 min 97 W/m² 11,1 °C 13,4 °C 8,0 km/h (2 Bft)
30.10.2023 11:25 21,2 °C 13,5 °C 62 % 86 % 1004,2 hPa 0,0 l/m² 3,2 km/h (1 Bft) NO 52 ° 2 min 93 W/m² 11,2 °C 13,5 °C 4,8 km/h (1 Bft)
30.10.2023 11:26 21,1 °C 13,5 °C 62 % 86 % 1004,2 hPa 0,0 l/m² 2,1 km/h (1 Bft) NO 50 ° 1 min 93 W/m² 11,2 °C 13,5 °C 6,4 km/h (2 Bft)
30.10.2023 11:28 21,2 °C 13,4 °C 62 % 86 % 1004,3 hPa 0,0 l/m² 4,2 km/h (1 Bft) O-NO 74 ° 2 min 95 W/m² 11,1 °C 13,4 °C 8,0 km/h (2 Bft)
30.10.2023 11:30 21,1 °C 13,4 °C 62 % 86 % 1004,3 hPa 0,0 l/m² 3,8 km/h (1 Bft) O-NO 78 ° 2 min 100 W/m² 11,1 °C 13,4 °C 6,4 km/h (2 Bft)
30.10.2023 11:31 21,1 °C 13,4 °C 62 % 86 % 1004,3 hPa 0,0 l/m² 5,8 km/h (2 Bft) O 81 ° 1 min 104 W/m² 11,1 °C 13,4 °C 8,0 km/h (2 Bft)
30.10.2023 11:32 21,1 °C 13,4 °C 62 % 86 % 1004,3 hPa 0,0 l/m² 5,2 km/h (1 Bft) O 80 ° 1 min 107 W/m² 11,1 °C 13,4 °C 6,4 km/h (2 Bft)
30.10.2023 11:33 21,1 °C 13,4 °C 62 % 87 % 1004,3 hPa 0,0 l/m² 5,6 km/h (2 Bft) O 79 ° 1 min 113 W/m² 11,3 °C 13,4 °C 6,4 km/h (2 Bft)
30.10.2023 11:36 21,1 °C 13,4 °C 62 % 87 % 1004,3 hPa 0,0 l/m² 4,8 km/h (1 Bft) O 79 ° 3 min 134 W/m² 11,3 °C 13,4 °C 6,4 km/h (2 Bft)
30.10.2023 11:38 21,1 °C 13,4 °C 62 % 87 % 1004,4 hPa 0,0 l/m² 5,9 km/h (2 Bft) O 87 ° 2 min 146 W/m² 11,3 °C 13,4 °C 8,0 km/h (2 Bft)
30.10.2023 11:40 21,2 °C 13,5 °C 62 % 87 % 1004,3 hPa 0,0 l/m² 5,9 km/h (2 Bft) O-NO 76 ° 2 min 163 W/m² 11,4 °C 13,5 °C 9,7 km/h (2 Bft)
30.10.2023 11:41 21,1 °C 13,5 °C 62 % 87 % 1004,3 hPa 0,0 l/m² 8,3 km/h (2 Bft) O-NO 63 ° 1 min 163 W/m² 11,4 °C 12,4 °C 11,3 km/h (2 Bft)
30.10.2023 11:42 21,2 °C 13,6 °C 62 % 87 % 1004,3 hPa 0,0 l/m² 7,0 km/h (2 Bft) O 83 ° 1 min 162 W/m² 11,5 °C 13,2 °C 8,0 km/h (2 Bft)
30.10.2023 11:43 21,2 °C 13,6 °C 62 % 87 % 1004,3 hPa 0,0 l/m² 3,8 km/h (1 Bft) O-NO 65 ° 1 min 156 W/m² 11,5 °C 13,6 °C 8,0 km/h (2 Bft)
30.10.2023 11:46 21,1 °C 13,7 °C 62 % 86 % 1004,3 hPa 0,0 l/m² 3,5 km/h (1 Bft) O 81 ° 3 min 139 W/m² 11,4 °C 13,7 °C 6,4 km/h (2 Bft)
30.10.2023 11:48 21,1 °C 13,7 °C 62 % 86 % 1004,4 hPa 0,0 l/m² 4,8 km/h (1 Bft) O-NO 61 ° 2 min 155 W/m² 11,4 °C 13,7 °C 8,0 km/h (2 Bft)
30.10.2023 11:50 21,1 °C 13,7 °C 62 % 86 % 1004,3 hPa 0,0 l/m² 4,9 km/h (1 Bft) NO 53 ° 2 min 151 W/m² 11,4 °C 13,7 °C 6,4 km/h (2 Bft)
30.10.2023 11:51 21,1 °C 13,8 °C 62 % 86 % 1004,4 hPa 0,0 l/m² 2,8 km/h (1 Bft) NO 44 ° 1 min 146 W/m² 11,5 °C 13,8 °C 4,8 km/h (1 Bft)
30.10.2023 11:52 21,1 °C 13,8 °C 62 % 85 % 1004,4 hPa 0,0 l/m² 1,9 km/h (1 Bft) NO 50 ° 1 min 144 W/m² 11,3 °C 13,8 °C 4,8 km/h (1 Bft)
30.10.2023 11:53 21,1 °C 13,8 °C 62 % 85 % 1004,4 hPa 0,0 l/m² 3,2 km/h (1 Bft) O-NO 58 ° 1 min 142 W/m² 11,3 °C 13,8 °C 4,8 km/h (1 Bft)
30.10.2023 11:55 21,1 °C 13,8 °C 62 % 85 % 1004,3 hPa 0,0 l/m² 5,8 km/h (2 Bft) O-NO 71 ° 2 min 142 W/m² 11,3 °C 13,8 °C 8,0 km/h (2 Bft)
30.10.2023 11:56 21,1 °C 13,8 °C 62 % 85 % 1004,4 hPa 0,0 l/m² 5,9 km/h (2 Bft) NO 56 ° 1 min 144 W/m² 11,3 °C 13,8 °C 8,0 km/h (2 Bft)
30.10.2023 11:58 21,1 °C 13,8 °C 62 % 85 % 1004,4 hPa 0,0 l/m² 3,3 km/h (1 Bft) NO 51 ° 2 min 144 W/m² 11,3 °C 13,8 °C 6,4 km/h (2 Bft)
30.10.2023 12:00 21,1 °C 13,8 °C 62 % 85 % 1004,5 hPa 0,0 l/m² 4,1 km/h (1 Bft) O 79 ° 2 min 151 W/m² 11,3 °C 13,8 °C 6,4 km/h (2 Bft)
30.10.2023 12:01 21,1 °C 13,8 °C 62 % 86 % 1004,5 hPa 0,0 l/m² 4,2 km/h (1 Bft) O 79 ° 1 min 156 W/m² 11,5 °C 13,8 °C 6,4 km/h (2 Bft)
30.10.2023 12:02 21,1 °C 13,9 °C 62 % 85 % 1004,5 hPa 0,0 l/m² 2,2 km/h (1 Bft) O 79 ° 1 min 176 W/m² 11,4 °C 13,9 °C 4,8 km/h (1 Bft)
30.10.2023 12:03 21,1 °C 13,9 °C 62 % 85 % 1004,5 hPa 0,0 l/m² 2,4 km/h (1 Bft) O 79 ° 1 min 192 W/m² 11,4 °C 13,9 °C 4,8 km/h (1 Bft)
30.10.2023 12:06 21,1 °C 14,2 °C 61 % 85 % 1004,4 hPa 0,0 l/m² 3,8 km/h (1 Bft) O 89 ° 3 min 248 W/m² 11,7 °C 14,2 °C 8,0 km/h (2 Bft)
30.10.2023 12:08 21,1 °C 14,3 °C 60 % 83 % 1004,4 hPa 0,0 l/m² 3,4 km/h (1 Bft) O 91 ° 2 min 285 W/m² 11,5 °C 14,3 °C 6,4 km/h (2 Bft)
30.10.2023 12:10 21,1 °C 14,4 °C 60 % 83 % 1004,3 hPa 0,0 l/m² 2,8 km/h (1 Bft) O 92 ° 2 min 297 W/m² 11,5 °C 14,4 °C 6,4 km/h (2 Bft)
30.10.2023 12:11 21,1 °C 14,5 °C 60 % 82 % 1004,3 hPa 0,0 l/m² 2,5 km/h (1 Bft) O 92 ° 1 min 309 W/m² 11,5 °C 14,5 °C 4,8 km/h (1 Bft)
30.10.2023 12:12 21,1 °C 14,5 °C 60 % 82 % 1004,3 hPa 0,0 l/m² 1,0 km/h (0 Bft) O 92 ° 1 min 309 W/m² 11,5 °C 14,5 °C 3,2 km/h (1 Bft)
30.10.2023 12:13 21,1 °C 14,5 °C 60 % 82 % 1004,3 hPa 0,0 l/m² 0,2 km/h (0 Bft) O 92 ° 1 min 309 W/m² 11,5 °C 14,5 °C 1,6 km/h (1 Bft)
30.10.2023 12:15 21,1 °C 14,6 °C 60 % 81 % 1004,2 hPa 0,0 l/m² 0,4 km/h (0 Bft) O 92 ° 2 min 241 W/m² 11,4 °C 14,6 °C 1,6 km/h (1 Bft)
30.10.2023 12:17 21,1 °C 14,7 °C 60 % 83 % 1004,2 hPa 0,0 l/m² 0,2 km/h (0 Bft) O 92 ° 2 min 197 W/m² 11,8 °C 14,7 °C 1,6 km/h (1 Bft)
30.10.2023 12:19 21,1 °C 14,6 °C 59 % 81 % 1004,2 hPa 0,0 l/m² 1,9 km/h (1 Bft) O-SO 112 ° 2 min 160 W/m² 11,4 °C 14,6 °C 4,8 km/h (1 Bft)
30.10.2023 12:21 21,1 °C 14,5 °C 59 % 81 % 1004,0 hPa 0,0 l/m² 4,0 km/h (1 Bft) S 169 ° 2 min 127 W/m² 11,3 °C 14,5 °C 8,0 km/h (2 Bft)
30.10.2023 12:22 21,1 °C 14,4 °C 59 % 81 % 1004,0 hPa 0,0 l/m² 4,6 km/h (1 Bft) S 177 ° 1 min 121 W/m² 11,2 °C 14,4 °C 8,0 km/h (2 Bft)
30.10.2023 12:23 21,1 °C 14,4 °C 59 % 82 % 1004,1 hPa 0,0 l/m² 3,8 km/h (1 Bft) S 177 ° 1 min 116 W/m² 11,4 °C 14,4 °C 6,4 km/h (2 Bft)
30.10.2023 12:25 21,1 °C 14,3 °C 59 % 82 % 1004,0 hPa 0,0 l/m² 3,1 km/h (1 Bft) S 177 ° 2 min 116 W/m² 11,3 °C 14,3 °C 4,8 km/h (1 Bft)
30.10.2023 12:27 21,1 °C 14,3 °C 60 % 84 % 1004,1 hPa 0,0 l/m² 3,6 km/h (1 Bft) S 171 ° 2 min 121 W/m² 11,6 °C 14,3 °C 6,4 km/h (2 Bft)
30.10.2023 12:29 21,1 °C 14,2 °C 60 % 84 % 1004,0 hPa 0,0 l/m² 2,4 km/h (1 Bft) S 171 ° 2 min 123 W/m² 11,5 °C 14,2 °C 3,2 km/h (1 Bft)
30.10.2023 12:31 21,2 °C 14,3 °C 61 % 84 % 1004,1 hPa 0,0 l/m² 3,2 km/h (1 Bft) S 171 ° 2 min 130 W/m² 11,6 °C 14,3 °C 6,4 km/h (2 Bft)
30.10.2023 12:32 21,1 °C 14,3 °C 61 % 84 % 1004,1 hPa 0,0 l/m² 2,8 km/h (1 Bft) S 171 ° 1 min 137 W/m² 11,6 °C 14,3 °C 6,4 km/h (2 Bft)
30.10.2023 12:33 21,1 °C 14,2 °C 61 % 84 % 1004,1 hPa 0,0 l/m² 3,8 km/h (1 Bft) S 171 ° 1 min 137 W/m² 11,5 °C 14,2 °C 6,4 km/h (2 Bft)
30.10.2023 12:35 21,1 °C 14,3 °C 61 % 84 % 1004,1 hPa 0,0 l/m² 1,9 km/h (1 Bft) S 171 ° 2 min 151 W/m² 11,6 °C 14,3 °C 3,2 km/h (1 Bft)
30.10.2023 12:37 21,2 °C 14,3 °C 61 % 84 % 1004,1 hPa 0,0 l/m² 1,6 km/h (1 Bft) S 171 ° 2 min 181 W/m² 11,6 °C 14,3 °C 3,2 km/h (1 Bft)
30.10.2023 12:39 21,2 °C 14,4 °C 61 % 84 % 1004,0 hPa 0,0 l/m² 0,7 km/h (0 Bft) S 171 ° 2 min 239 W/m² 11,7 °C 14,4 °C 3,2 km/h (1 Bft)
30.10.2023 12:41 21,2 °C 14,5 °C 62 % 83 % 1003,9 hPa 0,0 l/m² 0,0 km/h (0 Bft) S 171 ° 2 min 272 W/m² 11,6 °C 14,5 °C 0,0 km/h (0 Bft)
30.10.2023 12:42 21,2 °C 14,6 °C 62 % 84 % 1003,9 hPa 0,0 l/m² 0,0 km/h (0 Bft) S 171 ° 1 min 320 W/m² 11,9 °C 14,6 °C 0,0 km/h (0 Bft)
30.10.2023 12:43 21,2 °C 14,7 °C 62 % 83 % 1003,9 hPa 0,0 l/m² 0,0 km/h (0 Bft) S 171 ° 1 min 294 W/m² 11,8 °C 14,7 °C 0,0 km/h (0 Bft)
30.10.2023 12:46 21,2 °C 14,9 °C 62 % 83 % 1003,9 hPa 0,0 l/m² 0,0 km/h (0 Bft) S 171 ° 3 min 250 W/m² 12,0 °C 14,9 °C 1,6 km/h (1 Bft)
30.10.2023 12:48 21,2 °C 14,9 °C 62 % 82 % 1003,8 hPa 0,0 l/m² 0,0 km/h (0 Bft) S 171 ° 2 min 260 W/m² 11,9 °C 14,9 °C 0,0 km/h (0 Bft)
30.10.2023 12:50 21,2 °C 15,1 °C 61 % 82 % 1003,7 hPa 0,0 l/m² 0,0 km/h (0 Bft) S 171 ° 2 min 267 W/m² 12,0 °C 15,1 °C 0,0 km/h (0 Bft)
30.10.2023 12:52 21,2 °C 15,2 °C 61 % 82 % 1003,8 hPa 0,0 l/m² 0,0 km/h (0 Bft) S 171 ° 2 min 264 W/m² 12,1 °C 15,2 °C 0,0 km/h (0 Bft)
30.10.2023 12:53 21,2 °C 15,2 °C 61 % 81 % 1003,9 hPa 0,0 l/m² 0,0 km/h (0 Bft) S 171 ° 1 min 262 W/m² 12,0 °C 15,2 °C 0,0 km/h (0 Bft)
30.10.2023 12:54 21,2 °C 15,2 °C 61 % 80 % 1003,9 hPa 0,0 l/m² 0,0 km/h (0 Bft) S 171 ° 1 min 257 W/m² 11,8 °C 15,2 °C 0,0 km/h (0 Bft)
30.10.2023 12:56 21,2 °C 15,2 °C 60 % 80 % 1003,8 hPa 0,0 l/m² 0,0 km/h (0 Bft) S 171 ° 2 min 216 W/m² 11,8 °C 15,2 °C 0,0 km/h (0 Bft)
30.10.2023 12:58 21,2 °C 15,1 °C 60 % 81 % 1003,8 hPa 0,0 l/m² 0,0 km/h (0 Bft) S 171 ° 2 min 193 W/m² 11,9 °C 15,1 °C 0,0 km/h (0 Bft)
30.10.2023 13:00 21,2 °C 15,2 °C 60 % 83 % 1003,7 hPa 0,0 l/m² 0,1 km/h (0 Bft) S 171 ° 2 min 179 W/m² 12,3 °C 15,2 °C 1,6 km/h (1 Bft)
30.10.2023 13:02 21,1 °C 15,2 °C 60 % 81 % 1003,7 hPa 0,0 l/m² 1,2 km/h (1 Bft) S 171 ° 2 min 134 W/m² 12,0 °C 15,2 °C 3,2 km/h (1 Bft)
30.10.2023 13:03 21,1 °C 15,1 °C 60 % 81 % 1003,6 hPa 0,0 l/m² 2,8 km/h (1 Bft) S 171 ° 1 min 128 W/m² 11,9 °C 15,1 °C 6,4 km/h (2 Bft)
30.10.2023 13:04 21,1 °C 15,1 °C 60 % 81 % 1003,6 hPa 0,0 l/m² 1,1 km/h (1 Bft) S 171 ° 1 min 121 W/m² 11,9 °C 15,1 °C 1,6 km/h (1 Bft)
30.10.2023 13:06 21,1 °C 15,0 °C 60 % 81 % 1003,6 hPa 0,0 l/m² 4,3 km/h (1 Bft) S 176 ° 2 min 113 W/m² 11,8 °C 15,0 °C 8,0 km/h (2 Bft)
30.10.2023 13:08 21,1 °C 14,9 °C 60 % 82 % 1003,6 hPa 0,0 l/m² 3,1 km/h (1 Bft) S 185 ° 2 min 127 W/m² 11,9 °C 14,9 °C 4,8 km/h (1 Bft)
30.10.2023 13:10 21,1 °C 14,9 °C 60 % 83 % 1003,6 hPa 0,0 l/m² 1,1 km/h (1 Bft) S 184 ° 2 min 118 W/m² 12,0 °C 14,9 °C 4,8 km/h (1 Bft)
30.10.2023 13:12 21,1 °C 14,8 °C 60 % 81 % 1003,5 hPa 0,0 l/m² 4,0 km/h (1 Bft) S 188 ° 2 min 114 W/m² 11,6 °C 14,8 °C 6,4 km/h (2 Bft)
30.10.2023 13:13 21,1 °C 14,8 °C 60 % 82 % 1003,4 hPa 0,0 l/m² 3,8 km/h (1 Bft) S 189 ° 1 min 116 W/m² 11,8 °C 14,8 °C 4,8 km/h (1 Bft)
30.10.2023 13:14 21,1 °C 14,8 °C 60 % 82 % 1003,4 hPa 0,0 l/m² 3,0 km/h (1 Bft) S 189 ° 1 min 114 W/m² 11,8 °C 14,8 °C 4,8 km/h (1 Bft)
30.10.2023 13:16 21,1 °C 14,8 °C 60 % 83 % 1003,4 hPa 0,0 l/m² 3,8 km/h (1 Bft) S 190 ° 2 min 114 W/m² 11,9 °C 14,8 °C 6,4 km/h (2 Bft)
30.10.2023 13:18 21,1 °C 14,8 °C 60 % 82 % 1003,5 hPa 0,0 l/m² 4,5 km/h (1 Bft) S 191 ° 2 min 118 W/m² 11,8 °C 14,8 °C 6,4 km/h (2 Bft)
30.10.2023 13:20 21,1 °C 14,7 °C 60 % 82 % 1003,5 hPa 0,0 l/m² 4,8 km/h (1 Bft) S 191 ° 2 min 111 W/m² 11,7 °C 14,7 °C 6,4 km/h (2 Bft)
30.10.2023 13:22 21,1 °C 14,7 °C 60 % 83 % 1003,5 hPa 0,0 l/m² 2,9 km/h (1 Bft) S 191 ° 2 min 97 W/m² 11,8 °C 14,7 °C 6,4 km/h (2 Bft)
30.10.2023 13:23 21,1 °C 14,7 °C 61 % 83 % 1003,5 hPa 0,0 l/m² 5,0 km/h (1 Bft) S 189 ° 1 min 93 W/m² 11,8 °C 14,7 °C 8,0 km/h (2 Bft)
30.10.2023 13:24 21,1 °C 14,7 °C 61 % 82 % 1003,5 hPa 0,0 l/m² 3,9 km/h (1 Bft) S 189 ° 1 min 95 W/m² 11,7 °C 14,7 °C 4,8 km/h (1 Bft)
30.10.2023 13:26 21,1 °C 14,7 °C 61 % 83 % 1003,4 hPa 0,0 l/m² 2,7 km/h (1 Bft) S 189 ° 2 min 86 W/m² 11,8 °C 14,7 °C 4,8 km/h (1 Bft)
30.10.2023 13:28 21,1 °C 14,7 °C 61 % 82 % 1003,4 hPa 0,0 l/m² 3,3 km/h (1 Bft) S 190 ° 2 min 72 W/m² 11,7 °C 14,7 °C 4,8 km/h (1 Bft)
30.10.2023 13:30 21,1 °C 14,6 °C 61 % 83 % 1003,4 hPa 0,0 l/m² 2,1 km/h (1 Bft) S 190 ° 2 min 62 W/m² 11,7 °C 14,6 °C 3,2 km/h (1 Bft)
30.10.2023 13:32 21,1 °C 14,6 °C 61 % 82 % 1003,4 hPa 0,0 l/m² 2,3 km/h (1 Bft) S 191 ° 0 min 49 W/m² 11,6 °C 14,6 °C 4,8 km/h (1 Bft)
30.10.2023 13:33 21,1 °C 14,6 °C 61 % 82 % 1003,5 hPa 0,0 l/m² 3,9 km/h (1 Bft) S-SW 194 ° 0 min 46 W/m² 11,6 °C 14,6 °C 6,4 km/h (2 Bft)
30.10.2023 13:34 21,1 °C 14,6 °C 61 % 83 % 1003,5 hPa 0,0 l/m² 4,8 km/h (1 Bft) S-SW 194 ° 0 min 42 W/m² 11,7 °C 14,6 °C 4,8 km/h (1 Bft)
30.10.2023 13:36 21,1 °C 14,5 °C 61 % 83 % 1003,4 hPa 0,0 l/m² 4,0 km/h (1 Bft) S-SW 194 ° 0 min 39 W/m² 11,6 °C 14,5 °C 4,8 km/h (1 Bft)
30.10.2023 13:38 21,1 °C 14,4 °C 61 % 83 % 1003,3 hPa 0,0 l/m² 3,8 km/h (1 Bft) S-SW 194 ° 0 min 37 W/m² 11,5 °C 14,4 °C 4,8 km/h (1 Bft)
30.10.2023 13:40 21,1 °C 14,3 °C 61 % 84 % 1003,3 hPa 0,0 l/m² 2,5 km/h (1 Bft) S-SW 194 ° 0 min 35 W/m² 11,6 °C 14,3 °C 6,4 km/h (2 Bft)
30.10.2023 13:42 21,1 °C 14,3 °C 61 % 84 % 1003,2 hPa 0,0 l/m² 0,5 km/h (0 Bft) S-SW 194 ° 0 min 35 W/m² 11,6 °C 14,3 °C 1,6 km/h (1 Bft)
30.10.2023 13:43 21,1 °C 14,2 °C 61 % 84 % 1003,1 hPa 0,0 l/m² 0,0 km/h (0 Bft) S-SW 194 ° 0 min 35 W/m² 11,5 °C 14,2 °C 0,0 km/h (0 Bft)
30.10.2023 13:44 21,1 °C 14,2 °C 61 % 84 % 1003,1 hPa 0,0 l/m² 0,9 km/h (0 Bft) S-SW 194 ° 0 min 35 W/m² 11,5 °C 14,2 °C 1,6 km/h (1 Bft)
30.10.2023 13:46 21,1 °C 14,2 °C 61 % 84 % 1003,1 hPa 0,0 l/m² 0,5 km/h (0 Bft) S-SW 194 ° 0 min 37 W/m² 11,5 °C 14,2 °C 1,6 km/h (1 Bft)
30.10.2023 13:48 21,1 °C 14,2 °C 61 % 84 % 1003,1 hPa 0,0 l/m² 0,3 km/h (0 Bft) S-SW 194 ° 0 min 39 W/m² 11,5 °C 14,2 °C 1,6 km/h (1 Bft)
30.10.2023 13:50 21,1 °C 14,1 °C 61 % 85 % 1003,1 hPa 0,0 l/m² 0,1 km/h (0 Bft) S-SW 194 ° 0 min 37 W/m² 11,6 °C 14,1 °C 1,6 km/h (1 Bft)
30.10.2023 13:52 21,1 °C 14,1 °C 61 % 85 % 1003,0 hPa 0,0 l/m² 0,1 km/h (0 Bft) S-SW 194 ° 0 min 39 W/m² 11,6 °C 14,1 °C 1,6 km/h (1 Bft)
30.10.2023 13:53 21,1 °C 14,1 °C 61 % 86 % 1002,9 hPa 0,0 l/m² 0,0 km/h (0 Bft) S-SW 194 ° 0 min 40 W/m² 11,8 °C 14,1 °C 0,0 km/h (0 Bft)
30.10.2023 13:54 21,1 °C 14,1 °C 61 % 86 % 1002,9 hPa 0,0 l/m² 0,0 km/h (0 Bft) S-SW 194 ° 0 min 42 W/m² 11,8 °C 14,1 °C 0,0 km/h (0 Bft)
30.10.2023 13:56 21,1 °C 14,1 °C 61 % 86 % 1002,8 hPa 0,0 l/m² 1,6 km/h (1 Bft) S-SW 194 ° 0 min 46 W/m² 11,8 °C 14,1 °C 3,2 km/h (1 Bft)
30.10.2023 13:58 21,1 °C 14,1 °C 61 % 86 % 1002,8 hPa 0,0 l/m² 3,4 km/h (1 Bft) S-SW 193 ° 2 min 53 W/m² 11,8 °C 14,1 °C 4,8 km/h (1 Bft)
30.10.2023 14:00 21,1 °C 14,1 °C 61 % 87 % 1002,9 hPa 0,0 l/m² 4,0 km/h (1 Bft) S 175 ° 2 min 58 W/m² 12,0 °C 14,1 °C 6,4 km/h (2 Bft)
30.10.2023 14:02 21,1 °C 14,0 °C 62 % 87 % 1002,9 hPa 0,0 l/m² 4,7 km/h (1 Bft) SO 138 ° 2 min 60 W/m² 11,9 °C 14,0 °C 6,4 km/h (2 Bft)
30.10.2023 14:03 21,1 °C 13,9 °C 62 % 87 % 1002,9 hPa 0,0 l/m² 4,8 km/h (1 Bft) SO 132 ° 1 min 60 W/m² 11,8 °C 13,9 °C 6,4 km/h (2 Bft)
30.10.2023 14:05 21,1 °C 13,9 °C 62 % 87 % 1002,8 hPa 0,0 l/m² 3,6 km/h (1 Bft) SO 132 ° 2 min 63 W/m² 11,8 °C 13,9 °C 4,8 km/h (1 Bft)
30.10.2023 14:06 21,1 °C 13,9 °C 62 % 87 % 1002,7 hPa 0,0 l/m² 3,2 km/h (1 Bft) SO 132 ° 1 min 69 W/m² 11,8 °C 13,9 °C 4,8 km/h (1 Bft)
30.10.2023 14:07 21,1 °C 13,9 °C 63 % 87 % 1002,7 hPa 0,0 l/m² 2,6 km/h (1 Bft) SO 132 ° 1 min 72 W/m² 11,8 °C 13,9 °C 4,8 km/h (1 Bft)
30.10.2023 14:08 21,1 °C 13,9 °C 63 % 87 % 1002,7 hPa 0,0 l/m² 1,6 km/h (1 Bft) SO 132 ° 1 min 74 W/m² 11,8 °C 13,9 °C 3,2 km/h (1 Bft)
30.10.2023 14:10 21,1 °C 13,9 °C 63 % 87 % 1002,7 hPa 0,0 l/m² 0,1 km/h (0 Bft) SO 132 ° 2 min 81 W/m² 11,8 °C 13,9 °C 1,6 km/h (1 Bft)
30.10.2023 14:12 21,1 °C 13,9 °C 63 % 87 % 1002,7 hPa 0,0 l/m² 1,3 km/h (1 Bft) SO 132 ° 2 min 79 W/m² 11,8 °C 13,9 °C 3,2 km/h (1 Bft)
30.10.2023 14:13 21,1 °C 14,0 °C 64 % 86 % 1002,7 hPa 0,0 l/m² 1,0 km/h (0 Bft) SO 132 ° 1 min 79 W/m² 11,7 °C 14,0 °C 1,6 km/h (1 Bft)
30.10.2023 14:14 21,1 °C 14,0 °C 64 % 86 % 1002,7 hPa 0,0 l/m² 0,3 km/h (0 Bft) SO 132 ° 1 min 79 W/m² 11,7 °C 14,0 °C 1,6 km/h (1 Bft)
30.10.2023 14:16 21,2 °C 14,1 °C 64 % 86 % 1002,8 hPa 0,0 l/m² 0,5 km/h (0 Bft) SO 132 ° 2 min 79 W/m² 11,8 °C 14,1 °C 3,2 km/h (1 Bft)
30.10.2023 14:18 21,2 °C 14,1 °C 64 % 86 % 1002,7 hPa 0,0 l/m² 1,8 km/h (1 Bft) SO 132 ° 2 min 77 W/m² 11,8 °C 14,1 °C 3,2 km/h (1 Bft)
30.10.2023 14:20 21,2 °C 14,2 °C 64 % 86 % 1002,7 hPa 0,0 l/m² 0,8 km/h (0 Bft) SO 132 ° 2 min 81 W/m² 11,9 °C 14,2 °C 3,2 km/h (1 Bft)
30.10.2023 14:22 21,2 °C 14,3 °C 64 % 86 % 1002,6 hPa 0,0 l/m² 1,5 km/h (1 Bft) SO 132 ° 2 min 88 W/m² 12,0 °C 14,3 °C 3,2 km/h (1 Bft)
30.10.2023 14:23 21,2 °C 14,3 °C 64 % 86 % 1002,6 hPa 0,0 l/m² 1,4 km/h (1 Bft) SO 132 ° 1 min 88 W/m² 12,0 °C 14,3 °C 3,2 km/h (1 Bft)
30.10.2023 14:24 21,2 °C 14,2 °C 64 % 86 % 1002,6 hPa 0,0 l/m² 1,2 km/h (1 Bft) SO 132 ° 1 min 88 W/m² 11,9 °C 14,2 °C 3,2 km/h (1 Bft)
30.10.2023 14:26 21,2 °C 14,2 °C 65 % 86 % 1002,5 hPa 0,0 l/m² 1,0 km/h (0 Bft) SO 132 ° 2 min 90 W/m² 11,9 °C 14,2 °C 3,2 km/h (1 Bft)
30.10.2023 14:28 21,2 °C 14,3 °C 65 % 85 % 1002,5 hPa 0,0 l/m² 1,3 km/h (1 Bft) SO 132 ° 2 min 91 W/m² 11,8 °C 14,3 °C 3,2 km/h (1 Bft)
30.10.2023 14:30 21,2 °C 14,3 °C 65 % 85 % 1002,4 hPa 0,0 l/m² 1,6 km/h (1 Bft) SO 132 ° 2 min 93 W/m² 11,8 °C 14,3 °C 3,2 km/h (1 Bft)
30.10.2023 14:32 21,3 °C 14,3 °C 65 % 85 % 1002,4 hPa 0,0 l/m² 3,5 km/h (1 Bft) SO 132 ° 2 min 95 W/m² 11,8 °C 14,3 °C 6,4 km/h (2 Bft)
30.10.2023 14:33 21,2 °C 14,3 °C 65 % 85 % 1002,3 hPa 0,0 l/m² 3,8 km/h (1 Bft) SO 132 ° 1 min 93 W/m² 11,8 °C 14,3 °C 4,8 km/h (1 Bft)
30.10.2023 14:34 21,2 °C 14,3 °C 65 % 85 % 1002,3 hPa 0,0 l/m² 2,3 km/h (1 Bft) SO 132 ° 1 min 93 W/m² 11,8 °C 14,3 °C 3,2 km/h (1 Bft)
30.10.2023 14:36 21,3 °C 14,3 °C 65 % 85 % 1002,3 hPa 0,0 l/m² 3,4 km/h (1 Bft) SO 132 ° 2 min 90 W/m² 11,8 °C 14,3 °C 4,8 km/h (1 Bft)
30.10.2023 14:38 21,3 °C 14,4 °C 65 % 85 % 1002,3 hPa 0,0 l/m² 3,1 km/h (1 Bft) SO 132 ° 2 min 90 W/m² 11,9 °C 14,4 °C 4,8 km/h (1 Bft)
30.10.2023 14:40 21,3 °C 14,3 °C 65 % 85 % 1002,3 hPa 0,0 l/m² 4,6 km/h (1 Bft) SO 132 ° 2 min 95 W/m² 11,8 °C 14,3 °C 6,4 km/h (2 Bft)
30.10.2023 14:42 21,3 °C 14,3 °C 66 % 85 % 1002,3 hPa 0,0 l/m² 3,6 km/h (1 Bft) SO 132 ° 2 min 104 W/m² 11,8 °C 14,3 °C 4,8 km/h (1 Bft)
30.10.2023 14:43 21,3 °C 14,3 °C 65 % 85 % 1002,2 hPa 0,0 l/m² 4,8 km/h (1 Bft) SO 132 ° 1 min 104 W/m² 11,8 °C 14,3 °C 6,4 km/h (2 Bft)
30.10.2023 14:44 21,3 °C 14,3 °C 65 % 86 % 1002,2 hPa 0,0 l/m² 4,7 km/h (1 Bft) SO 132 ° 1 min 104 W/m² 12,0 °C 14,3 °C 6,4 km/h (2 Bft)
30.10.2023 14:46 21,3 °C 14,3 °C 65 % 86 % 1002,2 hPa 0,0 l/m² 5,8 km/h (2 Bft) O 94 ° 2 min 98 W/m² 12,0 °C 14,3 °C 9,7 km/h (2 Bft)
30.10.2023 14:48 21,3 °C 14,3 °C 65 % 86 % 1002,3 hPa 0,0 l/m² 5,9 km/h (2 Bft) O 95 ° 2 min 90 W/m² 12,0 °C 14,3 °C 9,7 km/h (2 Bft)
30.10.2023 14:50 21,3 °C 14,2 °C 65 % 85 % 1002,2 hPa 0,0 l/m² 8,3 km/h (2 Bft) O 93 ° 2 min 86 W/m² 11,7 °C 13,1 °C 11,3 km/h (2 Bft)
30.10.2023 14:52 21,3 °C 14,2 °C 64 % 85 % 1002,1 hPa 0,0 l/m² 5,6 km/h (2 Bft) O 92 ° 2 min 84 W/m² 11,7 °C 14,2 °C 9,7 km/h (2 Bft)
30.10.2023 14:53 21,3 °C 14,2 °C 63 % 85 % 1002,1 hPa 0,0 l/m² 6,4 km/h (2 Bft) O 92 ° 1 min 81 W/m² 11,7 °C 14,2 °C 9,7 km/h (2 Bft)
30.10.2023 14:54 21,3 °C 14,2 °C 63 % 85 % 1002,1 hPa 0,0 l/m² 7,0 km/h (2 Bft) O 92 ° 1 min 77 W/m² 11,7 °C 13,8 °C 9,7 km/h (2 Bft)
30.10.2023 14:56 21,2 °C 14,2 °C 63 % 85 % 1002,1 hPa 0,0 l/m² 5,2 km/h (1 Bft) O 97 ° 2 min 67 W/m² 11,7 °C 14,2 °C 6,4 km/h (2 Bft)
30.10.2023 14:58 21,2 °C 14,2 °C 63 % 85 % 1002,0 hPa 0,0 l/m² 3,9 km/h (1 Bft) O 98 ° 2 min 58 W/m² 11,7 °C 14,2 °C 4,8 km/h (1 Bft)
30.10.2023 15:00 21,2 °C 14,2 °C 63 % 85 % 1001,9 hPa 0,0 l/m² 3,3 km/h (1 Bft) O 97 ° 2 min 53 W/m² 11,7 °C 14,2 °C 4,8 km/h (1 Bft)
30.10.2023 15:02 21,2 °C 14,2 °C 63 % 85 % 1001,9 hPa 0,0 l/m² 5,1 km/h (1 Bft) O 98 ° 0 min 49 W/m² 11,7 °C 14,2 °C 6,4 km/h (2 Bft)
30.10.2023 15:03 21,2 °C 14,2 °C 63 % 85 % 1001,9 hPa 0,0 l/m² 3,2 km/h (1 Bft) O 98 ° 0 min 49 W/m² 11,7 °C 14,2 °C 3,2 km/h (1 Bft)
30.10.2023 15:04 21,2 °C 14,1 °C 63 % 85 % 1001,9 hPa 0,0 l/m² 3,9 km/h (1 Bft) O 98 ° 0 min 47 W/m² 11,6 °C 14,1 °C 4,8 km/h (1 Bft)
30.10.2023 15:06 21,2 °C 14,1 °C 63 % 85 % 1001,9 hPa 0,0 l/m² 4,4 km/h (1 Bft) O 96 ° 0 min 44 W/m² 11,6 °C 14,1 °C 6,4 km/h (2 Bft)
30.10.2023 15:08 21,2 °C 14,1 °C 63 % 86 % 1001,9 hPa 0,0 l/m² 6,7 km/h (2 Bft) O 90 ° 0 min 42 W/m² 11,8 °C 13,9 °C 9,7 km/h (2 Bft)
30.10.2023 15:10 21,2 °C 14,1 °C 63 % 86 % 1001,9 hPa 0,0 l/m² 7,2 km/h (2 Bft) O 90 ° 0 min 44 W/m² 11,8 °C 13,6 °C 11,3 km/h (2 Bft)
30.10.2023 15:12 21,2 °C 14,1 °C 63 % 86 % 1001,8 hPa 0,0 l/m² 6,8 km/h (2 Bft) O 91 ° 0 min 46 W/m² 11,8 °C 13,9 °C 9,7 km/h (2 Bft)
30.10.2023 15:13 21,2 °C 14,0 °C 63 % 86 % 1001,8 hPa 0,0 l/m² 6,5 km/h (2 Bft) O 88 ° 0 min 47 W/m² 11,7 °C 14,0 °C 8,0 km/h (2 Bft)
30.10.2023 15:14 21,2 °C 14,0 °C 63 % 86 % 1001,8 hPa 0,0 l/m² 4,7 km/h (1 Bft) O 88 ° 0 min 47 W/m² 11,7 °C 14,0 °C 6,4 km/h (2 Bft)
30.10.2023 15:16 21,2 °C 13,9 °C 63 % 86 % 1001,8 hPa 0,0 l/m² 4,0 km/h (1 Bft) O 87 ° 0 min 46 W/m² 11,6 °C 13,9 °C 6,4 km/h (2 Bft)
30.10.2023 15:18 21,1 °C 13,9 °C 63 % 86 % 1001,9 hPa 0,0 l/m² 5,5 km/h (2 Bft) O 87 ° 0 min 44 W/m² 11,6 °C 13,9 °C 6,4 km/h (2 Bft)
30.10.2023 15:20 21,1 °C 13,9 °C 63 % 86 % 1001,9 hPa 0,0 l/m² 7,4 km/h (2 Bft) O 88 ° 0 min 44 W/m² 11,6 °C 13,3 °C 11,3 km/h (2 Bft)
30.10.2023 15:22 21,1 °C 13,9 °C 63 % 86 % 1001,9 hPa 0,0 l/m² 7,0 km/h (2 Bft) O 86 ° 0 min 42 W/m² 11,6 °C 13,5 °C 11,3 km/h (2 Bft)
30.10.2023 15:23 21,1 °C 13,9 °C 63 % 86 % 1002,0 hPa 0,0 l/m² 6,3 km/h (2 Bft) O 88 ° 0 min 40 W/m² 11,6 °C 13,9 °C 8,0 km/h (2 Bft)
30.10.2023 15:24 21,1 °C 13,8 °C 63 % 86 % 1002,0 hPa 0,0 l/m² 6,3 km/h (2 Bft) O 88 ° 0 min 39 W/m² 11,5 °C 13,8 °C 8,0 km/h (2 Bft)
30.10.2023 15:26 21,1 °C 13,8 °C 63 % 87 % 1001,9 hPa 0,0 l/m² 6,1 km/h (2 Bft) O 88 ° 0 min 37 W/m² 11,7 °C 13,8 °C 8,0 km/h (2 Bft)
30.10.2023 15:28 21,1 °C 13,8 °C 63 % 87 % 1001,9 hPa 0,0 l/m² 5,1 km/h (1 Bft) O 87 ° 0 min 37 W/m² 11,7 °C 13,8 °C 8,0 km/h (2 Bft)
30.10.2023 15:30 21,1 °C 13,8 °C 63 % 87 % 1002,0 hPa 0,0 l/m² 8,3 km/h (2 Bft) O 90 ° 0 min 37 W/m² 11,7 °C 12,7 °C 12,9 km/h (3 Bft)
30.10.2023 15:32 21,1 °C 13,7 °C 63 % 87 % 1002,0 hPa 0,0 l/m² 8,2 km/h (2 Bft) O 86 ° 0 min 37 W/m² 11,6 °C 12,6 °C 12,9 km/h (3 Bft)
30.10.2023 15:33 21,1 °C 13,7 °C 63 % 87 % 1001,9 hPa 0,0 l/m² 5,9 km/h (2 Bft) O 87 ° 0 min 39 W/m² 11,6 °C 13,7 °C 8,0 km/h (2 Bft)
30.10.2023 15:34 21,1 °C 13,7 °C 63 % 87 % 1001,9 hPa 0,0 l/m² 4,6 km/h (1 Bft) O 86 ° 0 min 39 W/m² 11,6 °C 13,7 °C 8,0 km/h (2 Bft)
30.10.2023 15:36 21,2 °C 13,7 °C 63 % 87 % 1001,9 hPa 0,0 l/m² 5,3 km/h (1 Bft) O 83 ° 0 min 40 W/m² 11,6 °C 13,7 °C 8,0 km/h (2 Bft)
30.10.2023 15:38 21,2 °C 13,7 °C 63 % 87 % 1001,9 hPa 0,0 l/m² 5,3 km/h (1 Bft) O 82 ° 0 min 40 W/m² 11,6 °C 13,7 °C 8,0 km/h (2 Bft)
30.10.2023 15:40 21,2 °C 13,7 °C 63 % 87 % 1001,9 hPa 0,0 l/m² 5,5 km/h (2 Bft) O 84 ° 0 min 47 W/m² 11,6 °C 13,7 °C 8,0 km/h (2 Bft)
30.10.2023 15:42 21,2 °C 13,7 °C 63 % 87 % 1001,9 hPa 0,0 l/m² 6,1 km/h (2 Bft) O 83 ° 2 min 53 W/m² 11,6 °C 13,7 °C 8,0 km/h (2 Bft)
30.10.2023 15:43 21,2 °C 13,7 °C 63 % 87 % 1001,8 hPa 0,0 l/m² 7,0 km/h (2 Bft) O 83 ° 1 min 53 W/m² 11,6 °C 13,3 °C 11,3 km/h (2 Bft)
30.10.2023 15:44 21,2 °C 13,7 °C 63 % 87 % 1001,8 hPa 0,0 l/m² 8,0 km/h (2 Bft) O 85 ° 1 min 53 W/m² 11,6 °C 12,7 °C 11,3 km/h (2 Bft)
30.10.2023 15:45 21,2 °C 13,7 °C 63 % 87 % 1001,8 hPa 0,0 l/m² 8,0 km/h (2 Bft) O 86 ° 1 min 53 W/m² 11,6 °C 12,7 °C 11,3 km/h (2 Bft)
30.10.2023 15:46 21,2 °C 13,7 °C 63 % 87 % 1001,8 hPa 0,0 l/m² 8,0 km/h (2 Bft) O 85 ° 0 min 51 W/m² 11,6 °C 12,7 °C 11,3 km/h (2 Bft)
30.10.2023 15:47 21,2 °C 13,7 °C 63 % 87 % 1001,7 hPa 0,0 l/m² 9,7 km/h (2 Bft) O 90 ° 0 min 49 W/m² 11,6 °C 11,8 °C 11,3 km/h (2 Bft)
30.10.2023 15:48 21,2 °C 13,6 °C 63 % 87 % 1001,7 hPa 0,0 l/m² 3,2 km/h (1 Bft) O 88 ° 0 min 47 W/m² 11,5 °C 13,6 °C 11,3 km/h (2 Bft)
30.10.2023 15:49 21,2 °C 13,6 °C 63 % 88 % 1001,6 hPa 0,0 l/m² 6,4 km/h (2 Bft) O 88 ° 0 min 46 W/m² 11,6 °C 13,6 °C 11,3 km/h (2 Bft)
30.10.2023 15:50 21,2 °C 13,6 °C 63 % 88 % 1001,6 hPa 0,0 l/m² 4,8 km/h (1 Bft) O 88 ° 0 min 44 W/m² 11,6 °C 13,6 °C 11,3 km/h (2 Bft)
30.10.2023 15:51 21,2 °C 13,5 °C 63 % 88 % 1001,6 hPa 0,0 l/m² 4,8 km/h (1 Bft) O 88 ° 0 min 42 W/m² 11,6 °C 13,5 °C 11,3 km/h (2 Bft)
30.10.2023 15:52 21,2 °C 13,5 °C 63 % 88 % 1001,7 hPa 0,0 l/m² 4,8 km/h (1 Bft) O 88 ° 0 min 40 W/m² 11,6 °C 13,5 °C 11,3 km/h (2 Bft)
30.10.2023 15:53 21,2 °C 13,4 °C 63 % 88 % 1001,6 hPa 0,0 l/m² 6,2 km/h (2 Bft) O 88 ° 0 min 39 W/m² 11,5 °C 13,4 °C 11,3 km/h (2 Bft)
30.10.2023 15:55 21,2 °C 13,4 °C 63 % 88 % 1001,6 hPa 0,0 l/m² 4,5 km/h (1 Bft) O 88 ° 0 min 37 W/m² 11,5 °C 13,4 °C 6,4 km/h (2 Bft)
30.10.2023 15:56 21,2 °C 13,4 °C 63 % 88 % 1001,5 hPa 0,0 l/m² 3,9 km/h (1 Bft) O 87 ° 0 min 35 W/m² 11,5 °C 13,4 °C 6,4 km/h (2 Bft)
30.10.2023 15:57 21,2 °C 13,4 °C 63 % 88 % 1001,5 hPa 0,0 l/m² 3,4 km/h (1 Bft) O 87 ° 0 min 33 W/m² 11,5 °C 13,4 °C 4,8 km/h (1 Bft)
30.10.2023 15:58 21,2 °C 13,3 °C 63 % 88 % 1001,5 hPa 0,0 l/m² 4,4 km/h (1 Bft) O 87 ° 0 min 33 W/m² 11,4 °C 13,3 °C 6,4 km/h (2 Bft)
30.10.2023 16:00 21,2 °C 13,3 °C 63 % 88 % 1001,5 hPa 0,0 l/m² 4,6 km/h (1 Bft) O 86 ° 0 min 30 W/m² 11,4 °C 13,3 °C 6,4 km/h (2 Bft)
30.10.2023 16:03 21,2 °C 13,3 °C 63 % 88 % 1001,5 hPa 0,0 l/m² 5,4 km/h (2 Bft) O 86 ° 0 min 26 W/m² 11,4 °C 13,3 °C 8,0 km/h (2 Bft)
30.10.2023 16:05 21,2 °C 13,3 °C 63 % 88 % 1001,5 hPa 0,0 l/m² 5,7 km/h (2 Bft) O 86 ° 0 min 25 W/m² 11,4 °C 13,3 °C 8,0 km/h (2 Bft)
30.10.2023 16:07 21,2 °C 13,4 °C 63 % 88 % 1001,5 hPa 0,0 l/m² 4,7 km/h (1 Bft) O 86 ° 0 min 23 W/m² 11,5 °C 13,4 °C 6,4 km/h (2 Bft)
30.10.2023 16:09 21,2 °C 13,3 °C 63 % 88 % 1001,6 hPa 0,0 l/m² 4,9 km/h (1 Bft) O 86 ° 0 min 25 W/m² 11,4 °C 13,3 °C 6,4 km/h (2 Bft)
30.10.2023 16:11 21,2 °C 13,3 °C 63 % 89 % 1001,4 hPa 0,0 l/m² 6,1 km/h (2 Bft) O 86 ° 0 min 25 W/m² 11,5 °C 13,3 °C 8,0 km/h (2 Bft)
30.10.2023 16:12 21,2 °C 13,3 °C 63 % 88 % 1001,4 hPa 0,0 l/m² 6,7 km/h (2 Bft) O 86 ° 0 min 25 W/m² 11,4 °C 13,1 °C 8,0 km/h (2 Bft)
30.10.2023 16:13 21,2 °C 13,3 °C 63 % 89 % 1001,4 hPa 0,0 l/m² 4,1 km/h (1 Bft) O 85 ° 0 min 25 W/m² 11,5 °C 13,3 °C 6,4 km/h (2 Bft)
30.10.2023 16:14 21,2 °C 13,3 °C 63 % 89 % 1001,5 hPa 0,0 l/m² 5,3 km/h (1 Bft) O 85 ° 0 min 25 W/m² 11,5 °C 13,3 °C 6,4 km/h (2 Bft)
30.10.2023 16:16 21,2 °C 13,3 °C 63 % 89 % 1001,5 hPa 0,0 l/m² 5,1 km/h (1 Bft) O 84 ° 0 min 23 W/m² 11,5 °C 13,3 °C 8,0 km/h (2 Bft)
30.10.2023 16:18 21,2 °C 13,2 °C 63 % 89 % 1001,4 hPa 0,0 l/m² 3,7 km/h (1 Bft) O 84 ° 0 min 21 W/m² 11,4 °C 13,2 °C 6,4 km/h (2 Bft)
30.10.2023 16:20 21,2 °C 13,2 °C 63 % 89 % 1001,4 hPa 0,0 l/m² 3,9 km/h (1 Bft) O 84 ° 0 min 18 W/m² 11,4 °C 13,2 °C 6,4 km/h (2 Bft)
30.10.2023 16:23 21,2 °C 13,2 °C 63 % 89 % 1001,4 hPa 0,0 l/m² 3,4 km/h (1 Bft) O 84 ° 0 min 12 W/m² 11,4 °C 13,2 °C 6,4 km/h (2 Bft)
30.10.2023 16:25 21,2 °C 13,2 °C 63 % 89 % 1001,4 hPa 0,0 l/m² 3,4 km/h (1 Bft) O 84 ° 0 min 11 W/m² 11,4 °C 13,2 °C 4,8 km/h (1 Bft)
30.10.2023 16:27 21,2 °C 13,1 °C 63 % 89 % 1001,3 hPa 0,0 l/m² 4,1 km/h (1 Bft) O 84 ° 0 min 11 W/m² 11,3 °C 13,1 °C 4,8 km/h (1 Bft)
30.10.2023 16:29 21,2 °C 13,1 °C 63 % 89 % 1001,4 hPa 0,0 l/m² 4,8 km/h (1 Bft) O 84 ° 0 min 9 W/m² 11,3 °C 13,1 °C 6,4 km/h (2 Bft)
30.10.2023 16:31 21,2 °C 13,0 °C 63 % 89 % 1001,4 hPa 0,0 l/m² 4,6 km/h (1 Bft) O 84 ° 0 min 7 W/m² 11,2 °C 13,0 °C 6,4 km/h (2 Bft)
30.10.2023 16:32 21,2 °C 12,9 °C 63 % 89 % 1001,3 hPa 0,0 l/m² 4,0 km/h (1 Bft) O 84 ° 0 min 7 W/m² 11,1 °C 12,9 °C 4,8 km/h (1 Bft)
30.10.2023 16:33 21,2 °C 12,9 °C 63 % 89 % 1001,3 hPa 0,0 l/m² 4,3 km/h (1 Bft) O 84 ° 0 min 7 W/m² 11,1 °C 12,9 °C 4,8 km/h (1 Bft)
30.10.2023 16:34 21,2 °C 12,9 °C 63 % 89 % 1001,3 hPa 0,0 l/m² 5,2 km/h (1 Bft) O 84 ° 0 min 5 W/m² 11,1 °C 12,9 °C 6,4 km/h (2 Bft)
30.10.2023 16:36 21,2 °C 12,8 °C 63 % 90 % 1001,3 hPa 0,0 l/m² 4,2 km/h (1 Bft) O 84 ° 0 min 5 W/m² 11,2 °C 12,8 °C 6,4 km/h (2 Bft)
30.10.2023 16:38 21,2 °C 12,8 °C 63 % 90 % 1001,2 hPa 0,0 l/m² 3,4 km/h (1 Bft) O 84 ° 0 min 0 W/m² 11,2 °C 12,8 °C 6,4 km/h (2 Bft)
30.10.2023 16:40 21,2 °C 12,8 °C 63 % 90 % 1001,2 hPa 0,0 l/m² 3,2 km/h (1 Bft) O 83 ° 0 min 0 W/m² 11,2 °C 12,8 °C 4,8 km/h (1 Bft)
30.10.2023 16:43 21,2 °C 12,8 °C 63 % 90 % 1001,1 hPa 0,0 l/m² 3,0 km/h (1 Bft) O 83 ° 0 min 0 W/m² 11,2 °C 12,8 °C 6,4 km/h (2 Bft)
30.10.2023 16:45 21,2 °C 12,8 °C 63 % 90 % 1001,2 hPa 0,0 l/m² 4,2 km/h (1 Bft) O-NO 74 ° 0 min 0 W/m² 11,2 °C 12,8 °C 6,4 km/h (2 Bft)
30.10.2023 16:47 21,2 °C 12,8 °C 63 % 90 % 1001,2 hPa 0,0 l/m² 4,6 km/h (1 Bft) O-NO 61 ° 0 min 0 W/m² 11,2 °C 12,8 °C 8,0 km/h (2 Bft)
30.10.2023 16:49 21,2 °C 12,9 °C 63 % 90 % 1001,0 hPa 0,0 l/m² 4,8 km/h (1 Bft) O-NO 60 ° 0 min 0 W/m² 11,3 °C 12,9 °C 8,0 km/h (2 Bft)
30.10.2023 16:51 21,2 °C 12,9 °C 63 % 90 % 1001,1 hPa 0,0 l/m² 5,1 km/h (1 Bft) NO 55 ° 0 min 0 W/m² 11,3 °C 12,9 °C 8,0 km/h (2 Bft)
30.10.2023 16:52 21,2 °C 12,9 °C 63 % 90 % 1001,0 hPa 0,0 l/m² 5,0 km/h (1 Bft) O-NO 57 ° 0 min 0 W/m² 11,3 °C 12,9 °C 8,0 km/h (2 Bft)
30.10.2023 16:53 21,2 °C 12,9 °C 63 % 90 % 1001,0 hPa 0,0 l/m² 7,3 km/h (2 Bft) NO 56 ° 0 min 0 W/m² 11,3 °C 12,3 °C 11,3 km/h (2 Bft)
30.10.2023 16:54 21,2 °C 12,9 °C 63 % 90 % 1000,9 hPa 0,0 l/m² 8,3 km/h (2 Bft) NO 55 ° 0 min 0 W/m² 11,3 °C 11,7 °C 14,5 km/h (3 Bft)
30.10.2023 16:56 21,2 °C 12,9 °C 63 % 90 % 1000,8 hPa 0,0 l/m² 6,6 km/h (2 Bft) NO 55 ° 0 min 0 W/m² 11,3 °C 12,8 °C 9,7 km/h (2 Bft)
30.10.2023 16:58 21,1 °C 12,9 °C 63 % 90 % 1000,8 hPa 0,0 l/m² 6,1 km/h (2 Bft) O-NO 57 ° 0 min 0 W/m² 11,3 °C 12,9 °C 9,7 km/h (2 Bft)
30.10.2023 17:00 21,1 °C 12,9 °C 63 % 90 % 1000,7 hPa 0,0 l/m² 7,9 km/h (2 Bft) O-NO 65 ° 0 min 0 W/m² 11,3 °C 12,0 °C 12,9 km/h (3 Bft)
30.10.2023 17:03 21,1 °C 12,9 °C 63 % 90 % 1000,7 hPa 0,0 l/m² 5,5 km/h (2 Bft) O-NO 76 ° 0 min 0 W/m² 11,3 °C 12,9 °C 12,9 km/h (3 Bft)
30.10.2023 17:05 21,2 °C 12,9 °C 63 % 90 % 1000,7 hPa 0,0 l/m² 6,6 km/h (2 Bft) O-NO 77 ° 0 min 0 W/m² 11,3 °C 12,8 °C 12,9 km/h (3 Bft)
30.10.2023 17:07 21,2 °C 12,9 °C 63 % 90 % 1000,7 hPa 0,0 l/m² 6,7 km/h (2 Bft) O-NO 78 ° 0 min 0 W/m² 11,3 °C 12,7 °C 12,9 km/h (3 Bft)
30.10.2023 17:09 21,1 °C 12,9 °C 63 % 90 % 1000,6 hPa 0,0 l/m² 8,1 km/h (2 Bft) O-NO 72 ° 0 min 0 W/m² 11,3 °C 11,8 °C 14,5 km/h (3 Bft)
30.10.2023 17:11 21,1 °C 12,9 °C 63 % 90 % 1000,7 hPa 0,0 l/m² 8,4 km/h (2 Bft) O 82 ° 0 min 0 W/m² 11,3 °C 11,7 °C 14,5 km/h (3 Bft)
30.10.2023 17:12 21,2 °C 12,9 °C 63 % 90 % 1000,6 hPa 0,0 l/m² 10,1 km/h (2 Bft) O 86 ° 0 min 0 W/m² 11,3 °C 10,7 °C 14,5 km/h (3 Bft)
30.10.2023 17:13 21,2 °C 12,9 °C 63 % 90 % 1000,6 hPa 0,0 l/m² 7,6 km/h (2 Bft) O 80 ° 0 min 0 W/m² 11,3 °C 12,1 °C 12,9 km/h (3 Bft)
30.10.2023 17:14 21,1 °C 12,9 °C 63 % 90 % 1000,6 hPa 0,0 l/m² 8,6 km/h (2 Bft) O-NO 78 ° 0 min 0 W/m² 11,3 °C 11,5 °C 12,9 km/h (3 Bft)
30.10.2023 17:16 21,1 °C 12,9 °C 63 % 90 % 1000,7 hPa 0,0 l/m² 7,5 km/h (2 Bft) NO 56 ° 0 min 0 W/m² 11,3 °C 12,2 °C 12,9 km/h (3 Bft)
30.10.2023 17:18 21,1 °C 12,9 °C 63 % 90 % 1000,6 hPa 0,0 l/m² 5,8 km/h (2 Bft) O 81 ° 0 min 0 W/m² 11,3 °C 12,9 °C 11,3 km/h (2 Bft)
30.10.2023 17:20 21,1 °C 12,9 °C 63 % 90 % 1000,7 hPa 0,0 l/m² 7,7 km/h (2 Bft) O-NO 70 ° 0 min 0 W/m² 11,3 °C 12,1 °C 12,9 km/h (3 Bft)
30.10.2023 17:23 21,1 °C 12,8 °C 63 % 90 % 1000,6 hPa 0,0 l/m² 7,9 km/h (2 Bft) O-NO 72 ° 0 min 0 W/m² 11,2 °C 11,9 °C 14,5 km/h (3 Bft)
30.10.2023 17:25 21,1 °C 12,8 °C 63 % 90 % 1000,5 hPa 0,0 l/m² 8,5 km/h (2 Bft) O-NO 78 ° 0 min 0 W/m² 11,2 °C 11,5 °C 12,9 km/h (3 Bft)
30.10.2023 17:27 21,1 °C 12,8 °C 63 % 90 % 1000,6 hPa 0,0 l/m² 7,5 km/h (2 Bft) O 84 ° 0 min 0 W/m² 11,2 °C 12,1 °C 11,3 km/h (2 Bft)
30.10.2023 17:29 21,1 °C 12,8 °C 63 % 90 % 1000,6 hPa 0,0 l/m² 7,8 km/h (2 Bft) O-NO 74 ° 0 min 0 W/m² 11,2 °C 11,9 °C 12,9 km/h (3 Bft)
30.10.2023 17:31 21,1 °C 12,8 °C 63 % 90 % 1000,5 hPa 0,0 l/m² 7,5 km/h (2 Bft) O 85 ° 0 min 0 W/m² 11,2 °C 12,1 °C 11,3 km/h (2 Bft)
30.10.2023 17:32 21,1 °C 12,8 °C 63 % 90 % 1000,5 hPa 0,0 l/m² 5,2 km/h (1 Bft) O-NO 74 ° 0 min 0 W/m² 11,2 °C 12,8 °C 8,0 km/h (2 Bft)
30.10.2023 17:33 21,1 °C 12,8 °C 63 % 90 % 1000,5 hPa 0,0 l/m² 5,9 km/h (2 Bft) O-NO 76 ° 0 min 0 W/m² 11,2 °C 12,8 °C 9,7 km/h (2 Bft)
30.10.2023 17:34 21,1 °C 12,8 °C 63 % 90 % 1000,5 hPa 0,0 l/m² 6,9 km/h (2 Bft) O-NO 76 ° 0 min 0 W/m² 11,2 °C 12,5 °C 11,3 km/h (2 Bft)
30.10.2023 17:36 21,1 °C 12,8 °C 63 % 90 % 1000,5 hPa 0,0 l/m² 5,8 km/h (2 Bft) O 80 ° 0 min 0 W/m² 11,2 °C 12,8 °C 12,9 km/h (3 Bft)
30.10.2023 17:38 21,1 °C 12,8 °C 63 % 90 % 1000,4 hPa 0,0 l/m² 5,1 km/h (1 Bft) O-NO 78 ° 0 min 0 W/m² 11,2 °C 12,8 °C 11,3 km/h (2 Bft)
30.10.2023 17:40 21,1 °C 12,8 °C 63 % 90 % 1000,4 hPa 0,0 l/m² 5,1 km/h (1 Bft) O 79 ° 0 min 0 W/m² 11,2 °C 12,8 °C 11,3 km/h (2 Bft)
30.10.2023 17:43 21,1 °C 12,7 °C 63 % 90 % 1000,4 hPa 0,0 l/m² 7,4 km/h (2 Bft) O 79 ° 0 min 0 W/m² 11,1 °C 12,1 °C 12,9 km/h (3 Bft)
30.10.2023 17:45 21,1 °C 12,7 °C 63 % 90 % 1000,2 hPa 0,0 l/m² 7,6 km/h (2 Bft) O-NO 61 ° 0 min 0 W/m² 11,1 °C 11,9 °C 14,5 km/h (3 Bft)
30.10.2023 17:47 21,1 °C 12,7 °C 63 % 90 % 1000,2 hPa 0,0 l/m² 6,9 km/h (2 Bft) O-NO 71 ° 0 min 0 W/m² 11,1 °C 12,4 °C 11,3 km/h (2 Bft)
30.10.2023 17:49 21,1 °C 12,7 °C 63 % 90 % 1000,3 hPa 0,0 l/m² 5,7 km/h (2 Bft) O-NO 74 ° 0 min 0 W/m² 11,1 °C 12,7 °C 11,3 km/h (2 Bft)
30.10.2023 17:51 21,1 °C 12,7 °C 63 % 90 % 1000,3 hPa 0,0 l/m² 7,7 km/h (2 Bft) O-NO 76 ° 0 min 0 W/m² 11,1 °C 11,9 °C 12,9 km/h (3 Bft)
30.10.2023 17:52 21,1 °C 12,8 °C 63 % 90 % 1000,3 hPa 0,0 l/m² 6,4 km/h (2 Bft) O-NO 74 ° 0 min 0 W/m² 11,2 °C 12,8 °C 8,0 km/h (2 Bft)
30.10.2023 17:53 21,1 °C 12,7 °C 63 % 90 % 1000,3 hPa 0,0 l/m² 5,1 km/h (1 Bft) O 80 ° 0 min 0 W/m² 11,1 °C 12,7 °C 8,0 km/h (2 Bft)
30.10.2023 17:54 21,1 °C 12,7 °C 63 % 90 % 1000,3 hPa 0,0 l/m² 9,1 km/h (2 Bft) O-NO 71 ° 0 min 0 W/m² 11,1 °C 11,1 °C 11,3 km/h (2 Bft)
30.10.2023 17:56 21,1 °C 12,7 °C 63 % 90 % 1000,2 hPa 0,0 l/m² 9,8 km/h (2 Bft) O-NO 73 ° 0 min 0 W/m² 11,1 °C 10,7 °C 14,5 km/h (3 Bft)
30.10.2023 17:58 21,1 °C 12,7 °C 63 % 90 % 1000,0 hPa 0,0 l/m² 9,0 km/h (2 Bft) O 83 ° 0 min 0 W/m² 11,1 °C 11,1 °C 14,5 km/h (3 Bft)
30.10.2023 18:00 21,1 °C 12,8 °C 63 % 90 % 1000,1 hPa 0,0 l/m² 8,0 km/h (2 Bft) O-NO 76 ° 0 min 0 W/m² 11,2 °C 11,8 °C 14,5 km/h (3 Bft)
30.10.2023 18:03 21,1 °C 12,7 °C 63 % 90 % 1000,3 hPa 0,0 l/m² 10,1 km/h (2 Bft) O 94 ° 0 min 0 W/m² 11,1 °C 10,5 °C 16,1 km/h (3 Bft)
30.10.2023 18:05 21,1 °C 12,8 °C 63 % 90 % 1000,4 hPa 0,0 l/m² 7,8 km/h (2 Bft) O 84 ° 0 min 0 W/m² 11,2 °C 11,9 °C 12,9 km/h (3 Bft)
30.10.2023 18:07 21,1 °C 12,8 °C 63 % 90 % 1000,4 hPa 0,0 l/m² 7,9 km/h (2 Bft) O 88 ° 0 min 0 W/m² 11,2 °C 11,9 °C 12,9 km/h (3 Bft)
30.10.2023 18:09 21,1 °C 12,7 °C 63 % 90 % 1000,4 hPa 0,0 l/m² 6,3 km/h (2 Bft) O 99 ° 0 min 0 W/m² 11,1 °C 12,7 °C 9,7 km/h (2 Bft)
30.10.2023 18:11 21,1 °C 12,7 °C 63 % 89 % 1000,4 hPa 0,0 l/m² 9,9 km/h (2 Bft) O 98 ° 0 min 0 W/m² 10,9 °C 10,6 °C 12,9 km/h (3 Bft)
30.10.2023 18:12 21,1 °C 12,7 °C 63 % 89 % 1000,3 hPa 0,0 l/m² 7,8 km/h (2 Bft) O 95 ° 0 min 0 W/m² 10,9 °C 11,8 °C 11,3 km/h (2 Bft)
30.10.2023 18:13 21,1 °C 12,7 °C 63 % 89 % 1000,3 hPa 0,0 l/m² 6,2 km/h (2 Bft) O 90 ° 0 min 0 W/m² 10,9 °C 12,7 °C 9,7 km/h (2 Bft)
30.10.2023 18:14 21,1 °C 12,7 °C 63 % 89 % 1000,3 hPa 0,0 l/m² 6,0 km/h (2 Bft) O-NO 71 ° 0 min 0 W/m² 10,9 °C 12,7 °C 6,4 km/h (2 Bft)
30.10.2023 18:16 21,1 °C 12,7 °C 63 % 89 % 1000,2 hPa 0,0 l/m² 4,5 km/h (1 Bft) O 80 ° 0 min 0 W/m² 10,9 °C 12,7 °C 8,0 km/h (2 Bft)
30.10.2023 18:18 21,1 °C 12,7 °C 63 % 89 % 1000,3 hPa 0,0 l/m² 4,1 km/h (1 Bft) O 81 ° 0 min 0 W/m² 10,9 °C 12,7 °C 6,4 km/h (2 Bft)
30.10.2023 18:20 21,1 °C 12,7 °C 63 % 89 % 1000,1 hPa 0,0 l/m² 3,4 km/h (1 Bft) O-NO 71 ° 0 min 0 W/m² 10,9 °C 12,7 °C 6,4 km/h (2 Bft)
30.10.2023 18:23 21,1 °C 12,7 °C 63 % 89 % 1000,1 hPa 0,0 l/m² 2,5 km/h (1 Bft) O-NO 71 ° 0 min 0 W/m² 10,9 °C 12,7 °C 4,8 km/h (1 Bft)
30.10.2023 18:25 21,1 °C 12,7 °C 63 % 89 % 1000,0 hPa 0,0 l/m² 2,8 km/h (1 Bft) O-NO 71 ° 0 min 0 W/m² 10,9 °C 12,7 °C 4,8 km/h (1 Bft)
30.10.2023 18:27 21,1 °C 12,6 °C 63 % 89 % 1000,1 hPa 0,0 l/m² 2,4 km/h (1 Bft) O-NO 71 ° 0 min 0 W/m² 10,8 °C 12,6 °C 4,8 km/h (1 Bft)
30.10.2023 18:29 21,1 °C 12,6 °C 63 % 89 % 1000,1 hPa 0,0 l/m² 0,7 km/h (0 Bft) O-NO 71 ° 0 min 0 W/m² 10,8 °C 12,6 °C 3,2 km/h (1 Bft)
30.10.2023 18:31 21,1 °C 12,6 °C 63 % 89 % 1000,0 hPa 0,0 l/m² 1,5 km/h (1 Bft) O-NO 71 ° 0 min 0 W/m² 10,8 °C 12,6 °C 3,2 km/h (1 Bft)
30.10.2023 18:32 21,1 °C 12,6 °C 63 % 89 % 999,9 hPa 0,0 l/m² 1,8 km/h (1 Bft) O-NO 71 ° 0 min 0 W/m² 10,8 °C 12,6 °C 3,2 km/h (1 Bft)
30.10.2023 18:33 21,1 °C 12,6 °C 63 % 89 % 999,9 hPa 0,0 l/m² 2,4 km/h (1 Bft) O-NO 71 ° 0 min 0 W/m² 10,8 °C 12,6 °C 3,2 km/h (1 Bft)
30.10.2023 18:34 21,1 °C 12,6 °C 63 % 89 % 999,9 hPa 0,0 l/m² 2,7 km/h (1 Bft) O-NO 71 ° 0 min 0 W/m² 10,8 °C 12,6 °C 4,8 km/h (1 Bft)
30.10.2023 18:36 21,1 °C 12,5 °C 63 % 89 % 999,9 hPa 0,0 l/m² 1,8 km/h (1 Bft) O-NO 71 ° 0 min 0 W/m² 10,7 °C 12,5 °C 4,8 km/h (1 Bft)
30.10.2023 18:38 21,1 °C 12,5 °C 63 % 89 % 999,8 hPa 0,0 l/m² 2,2 km/h (1 Bft) O-NO 71 ° 0 min 0 W/m² 10,7 °C 12,5 °C 3,2 km/h (1 Bft)
30.10.2023 18:40 21,1 °C 12,4 °C 63 % 89 % 999,8 hPa 0,0 l/m² 1,6 km/h (1 Bft) O-NO 71 ° 0 min 0 W/m² 10,6 °C 12,4 °C 4,8 km/h (1 Bft)
30.10.2023 18:43 21,1 °C 12,4 °C 63 % 89 % 999,7 hPa 0,0 l/m² 2,9 km/h (1 Bft) O-NO 71 ° 0 min 0 W/m² 10,6 °C 12,4 °C 6,4 km/h (2 Bft)
30.10.2023 18:45 21,1 °C 12,4 °C 63 % 90 % 999,5 hPa 0,0 l/m² 1,3 km/h (1 Bft) O-NO 71 ° 0 min 0 W/m² 10,8 °C 12,4 °C 3,2 km/h (1 Bft)
30.10.2023 18:48 21,1 °C 12,4 °C 63 % 90 % 999,5 hPa 0,0 l/m² 2,0 km/h (1 Bft) O-NO 71 ° 0 min 0 W/m² 10,8 °C 12,4 °C 4,8 km/h (1 Bft)
30.10.2023 18:50 21,1 °C 12,3 °C 63 % 90 % 999,6 hPa 0,0 l/m² 1,2 km/h (1 Bft) O-NO 71 ° 0 min 0 W/m² 10,7 °C 12,3 °C 3,2 km/h (1 Bft)
30.10.2023 18:53 21,1 °C 12,3 °C 63 % 90 % 999,5 hPa 0,0 l/m² 1,4 km/h (1 Bft) O-NO 71 ° 0 min 0 W/m² 10,7 °C 12,3 °C 4,8 km/h (1 Bft)
30.10.2023 18:55 21,1 °C 12,3 °C 62 % 90 % 999,5 hPa 0,0 l/m² 1,9 km/h (1 Bft) O-NO 71 ° 0 min 0 W/m² 10,7 °C 12,3 °C 3,2 km/h (1 Bft)
30.10.2023 18:57 21,1 °C 12,3 °C 61 % 90 % 999,5 hPa 0,0 l/m² 2,5 km/h (1 Bft) O-NO 71 ° 0 min 0 W/m² 10,7 °C 12,3 °C 6,4 km/h (2 Bft)
30.10.2023 18:59 21,1 °C 12,2 °C 61 % 90 % 999,5 hPa 0,0 l/m² 2,3 km/h (1 Bft) O-NO 71 ° 0 min 0 W/m² 10,6 °C 12,2 °C 4,8 km/h (1 Bft)
30.10.2023 19:01 21,1 °C 12,2 °C 61 % 90 % 999,4 hPa 0,0 l/m² 0,7 km/h (0 Bft) O-NO 70 ° 0 min 0 W/m² 10,6 °C 12,2 °C 3,2 km/h (1 Bft)
30.10.2023 19:02 21,0 °C 12,2 °C 61 % 90 % 999,4 hPa 0,0 l/m² 1,7 km/h (1 Bft) O-NO 71 ° 0 min 0 W/m² 10,6 °C 12,2 °C 3,2 km/h (1 Bft)
30.10.2023 19:03 21,0 °C 12,2 °C 61 % 90 % 999,4 hPa 0,0 l/m² 0,7 km/h (0 Bft) O-NO 71 ° 0 min 0 W/m² 10,6 °C 12,2 °C 3,2 km/h (1 Bft)
30.10.2023 19:04 21,0 °C 12,2 °C 61 % 90 % 999,3 hPa 0,0 l/m² 0,0 km/h (0 Bft) O-NO 71 ° 0 min 0 W/m² 10,6 °C 12,2 °C 0,0 km/h (0 Bft)
30.10.2023 19:06 21,0 °C 12,1 °C 61 % 89 % 999,3 hPa 0,0 l/m² 0,0 km/h (0 Bft) O-NO 71 ° 0 min 0 W/m² 10,3 °C 12,1 °C 0,0 km/h (0 Bft)
30.10.2023 19:08 21,0 °C 11,9 °C 61 % 89 % 999,3 hPa 0,0 l/m² 0,0 km/h (0 Bft) O-NO 70 ° 0 min 0 W/m² 10,1 °C 11,9 °C 0,0 km/h (0 Bft)
30.10.2023 19:10 21,0 °C 11,9 °C 62 % 90 % 999,3 hPa 0,0 l/m² 0,0 km/h (0 Bft) O-NO 70 ° 0 min 0 W/m² 10,3 °C 11,9 °C 0,0 km/h (0 Bft)
30.10.2023 19:13 21,0 °C 11,8 °C 62 % 90 % 999,2 hPa 0,0 l/m² 0,0 km/h (0 Bft) O-NO 71 ° 0 min 0 W/m² 10,2 °C 11,8 °C 0,0 km/h (0 Bft)
30.10.2023 19:15 21,1 °C 11,7 °C 62 % 90 % 999,2 hPa 0,0 l/m² 0,0 km/h (0 Bft) O-NO 70 ° 0 min 0 W/m² 10,1 °C 11,7 °C 0,0 km/h (0 Bft)
30.10.2023 19:17 21,1 °C 11,6 °C 62 % 90 % 999,2 hPa 0,0 l/m² 0,0 km/h (0 Bft) O-NO 71 ° 0 min 0 W/m² 10,0 °C 11,6 °C 0,0 km/h (0 Bft)
30.10.2023 19:19 21,1 °C 11,4 °C 62 % 90 % 999,3 hPa 0,0 l/m² 0,0 km/h (0 Bft) O-NO 71 ° 0 min 0 W/m² 9,8 °C 11,4 °C 0,0 km/h (0 Bft)
30.10.2023 19:22 21,1 °C 11,4 °C 63 % 91 % 999,2 hPa 0,0 l/m² 0,0 km/h (0 Bft) O-NO 71 ° 0 min 0 W/m² 10,0 °C 11,4 °C 0,0 km/h (0 Bft)
30.10.2023 19:23 21,1 °C 11,3 °C 63 % 91 % 999,2 hPa 0,0 l/m² 0,0 km/h (0 Bft) O-NO 71 ° 0 min 0 W/m² 9,9 °C 11,3 °C 0,0 km/h (0 Bft)
30.10.2023 19:24 21,1 °C 11,3 °C 63 % 91 % 999,2 hPa 0,0 l/m² 0,0 km/h (0 Bft) O-NO 71 ° 0 min 0 W/m² 9,9 °C 11,3 °C 0,0 km/h (0 Bft)
30.10.2023 19:25 21,0 °C 11,3 °C 63 % 91 % 999,1 hPa 0,0 l/m² 0,0 km/h (0 Bft) O-NO 71 ° 0 min 0 W/m² 9,9 °C 11,3 °C 0,0 km/h (0 Bft)
30.10.2023 19:27 21,1 °C 11,3 °C 63 % 91 % 999,1 hPa 0,0 l/m² 0,5 km/h (0 Bft) O-NO 71 ° 0 min 0 W/m² 9,9 °C 11,3 °C 1,6 km/h (1 Bft)
30.10.2023 19:29 21,1 °C 11,3 °C 63 % 91 % 999,1 hPa 0,0 l/m² 0,4 km/h (0 Bft) O-NO 71 ° 0 min 0 W/m² 9,9 °C 11,3 °C 1,6 km/h (1 Bft)
30.10.2023 19:31 21,1 °C 11,3 °C 63 % 92 % 999,1 hPa 0,0 l/m² 0,0 km/h (0 Bft) O-NO 71 ° 0 min 0 W/m² 10,0 °C 11,3 °C 0,0 km/h (0 Bft)
30.10.2023 19:32 21,1 °C 11,2 °C 63 % 92 % 999,1 hPa 0,0 l/m² 0,0 km/h (0 Bft) O-NO 70 ° 0 min 0 W/m² 9,9 °C 11,2 °C 0,0 km/h (0 Bft)
30.10.2023 19:33 21,1 °C 11,2 °C 63 % 92 % 999,1 hPa 0,0 l/m² 0,0 km/h (0 Bft) O-NO 70 ° 0 min 0 W/m² 9,9 °C 11,2 °C 0,0 km/h (0 Bft)
30.10.2023 19:34 21,1 °C 11,2 °C 63 % 92 % 999,1 hPa 0,0 l/m² 0,0 km/h (0 Bft) O-NO 71 ° 0 min 0 W/m² 9,9 °C 11,2 °C 0,0 km/h (0 Bft)
30.10.2023 19:36 21,1 °C 11,1 °C 63 % 91 % 999,1 hPa 0,0 l/m² 0,0 km/h (0 Bft) O-NO 71 ° 0 min 0 W/m² 9,7 °C 11,1 °C 0,0 km/h (0 Bft)
30.10.2023 19:38 21,1 °C 11,1 °C 63 % 92 % 999,0 hPa 0,0 l/m² 0,0 km/h (0 Bft) O-NO 70 ° 0 min 0 W/m² 9,8 °C 11,1 °C 0,0 km/h (0 Bft)
30.10.2023 19:40 21,1 °C 11,0 °C 63 % 92 % 998,9 hPa 0,0 l/m² 0,0 km/h (0 Bft) O-NO 71 ° 0 min 0 W/m² 9,8 °C 11,0 °C 0,0 km/h (0 Bft)
30.10.2023 19:43 21,1 °C 10,9 °C 63 % 92 % 998,9 hPa 0,0 l/m² 0,0 km/h (0 Bft) O-NO 71 ° 0 min 0 W/m² 9,7 °C 10,9 °C 0,0 km/h (0 Bft)
30.10.2023 19:45 21,1 °C 10,9 °C 63 % 92 % 998,8 hPa 0,0 l/m² 0,0 km/h (0 Bft) O-NO 71 ° 0 min 0 W/m² 9,7 °C 10,9 °C 0,0 km/h (0 Bft)
30.10.2023 19:47 21,1 °C 10,9 °C 63 % 92 % 998,8 hPa 0,0 l/m² 0,0 km/h (0 Bft) O-NO 71 ° 0 min 0 W/m² 9,7 °C 10,9 °C 0,0 km/h (0 Bft)
30.10.2023 19:49 21,1 °C 10,9 °C 63 % 93 % 998,8 hPa 0,0 l/m² 0,0 km/h (0 Bft) O-NO 71 ° 0 min 0 W/m² 9,8 °C 10,9 °C 0,0 km/h (0 Bft)
30.10.2023 19:51 21,1 °C 10,9 °C 63 % 92 % 999,0 hPa 0,0 l/m² 0,0 km/h (0 Bft) O-NO 70 ° 0 min 0 W/m² 9,7 °C 10,9 °C 0,0 km/h (0 Bft)
30.10.2023 19:52 21,1 °C 10,9 °C 63 % 92 % 998,9 hPa 0,0 l/m² 0,0 km/h (0 Bft) O-NO 70 ° 0 min 0 W/m² 9,7 °C 10,9 °C 0,0 km/h (0 Bft)
30.10.2023 19:53 21,1 °C 10,9 °C 63 % 92 % 998,9 hPa 0,0 l/m² 0,0 km/h (0 Bft) O-NO 70 ° 0 min 0 W/m² 9,7 °C 10,9 °C 0,0 km/h (0 Bft)
30.10.2023 19:54 21,1 °C 10,9 °C 63 % 93 % 998,8 hPa 0,0 l/m² 0,0 km/h (0 Bft) O-NO 71 ° 0 min 0 W/m² 9,8 °C 10,9 °C 0,0 km/h (0 Bft)
30.10.2023 19:56 21,1 °C 10,9 °C 63 % 93 % 998,8 hPa 0,0 l/m² 0,0 km/h (0 Bft) O-NO 71 ° 0 min 0 W/m² 9,8 °C 10,9 °C 0,0 km/h (0 Bft)
30.10.2023 19:58 21,1 °C 10,9 °C 63 % 93 % 998,7 hPa 0,0 l/m² 0,0 km/h (0 Bft) O-NO 70 ° 0 min 0 W/m² 9,8 °C 10,9 °C 0,0 km/h (0 Bft)
30.10.2023 20:00 21,1 °C 11,0 °C 63 % 93 % 998,8 hPa 0,0 l/m² 0,0 km/h (0 Bft) O-NO 71 ° 0 min 0 W/m² 9,9 °C 11,0 °C 0,0 km/h (0 Bft)
30.10.2023 20:03 21,1 °C 11,1 °C 63 % 93 % 998,8 hPa 0,0 l/m² 0,0 km/h (0 Bft) O-NO 71 ° 0 min 0 W/m² 10,0 °C 11,1 °C 0,0 km/h (0 Bft)
30.10.2023 20:05 21,1 °C 11,1 °C 63 % 93 % 998,8 hPa 0,0 l/m² 0,2 km/h (0 Bft) O-NO 70 ° 0 min 0 W/m² 10,0 °C 11,1 °C 1,6 km/h (1 Bft)
30.10.2023 20:07 21,1 °C 11,1 °C 63 % 93 % 998,8 hPa 0,0 l/m² 0,1 km/h (0 Bft) O-NO 71 ° 0 min 0 W/m² 10,0 °C 11,1 °C 1,6 km/h (1 Bft)
30.10.2023 20:09 21,1 °C 11,1 °C 63 % 93 % 998,7 hPa 0,0 l/m² 0,9 km/h (0 Bft) O-NO 70 ° 0 min 0 W/m² 10,0 °C 11,1 °C 3,2 km/h (1 Bft)
30.10.2023 20:11 21,1 °C 11,1 °C 63 % 93 % 998,7 hPa 0,0 l/m² 3,4 km/h (1 Bft) W-NW 285 ° 0 min 0 W/m² 10,0 °C 11,1 °C 6,4 km/h (2 Bft)
30.10.2023 20:14 21,1 °C 11,1 °C 63 % 93 % 998,6 hPa 0,0 l/m² 2,6 km/h (1 Bft) W-NW 284 ° 0 min 0 W/m² 10,0 °C 11,1 °C 6,4 km/h (2 Bft)
30.10.2023 20:16 21,1 °C 11,0 °C 63 % 93 % 998,6 hPa 0,0 l/m² 0,3 km/h (0 Bft) W-NW 284 ° 0 min 0 W/m² 9,9 °C 11,0 °C 1,6 km/h (1 Bft)
30.10.2023 20:18 21,1 °C 11,0 °C 63 % 93 % 998,6 hPa 0,0 l/m² 0,3 km/h (0 Bft) W-NW 284 ° 0 min 0 W/m² 9,9 °C 11,0 °C 1,6 km/h (1 Bft)
30.10.2023 20:20 21,1 °C 11,0 °C 63 % 93 % 998,5 hPa 0,0 l/m² 0,9 km/h (0 Bft) W-NW 284 ° 0 min 0 W/m² 9,9 °C 11,0 °C 1,6 km/h (1 Bft)
30.10.2023 20:23 21,1 °C 11,0 °C 63 % 93 % 998,5 hPa 0,0 l/m² 0,0 km/h (0 Bft) W-NW 284 ° 0 min 0 W/m² 9,9 °C 11,0 °C 0,0 km/h (0 Bft)
30.10.2023 20:25 21,1 °C 11,0 °C 64 % 93 % 998,4 hPa 0,0 l/m² 0,0 km/h (0 Bft) W-NW 284 ° 0 min 0 W/m² 9,9 °C 11,0 °C 0,0 km/h (0 Bft)
30.10.2023 20:27 21,1 °C 11,0 °C 64 % 93 % 998,3 hPa 0,0 l/m² 0,0 km/h (0 Bft) W-NW 284 ° 0 min 0 W/m² 9,9 °C 11,0 °C 1,6 km/h (1 Bft)
30.10.2023 20:29 21,2 °C 11,0 °C 65 % 93 % 998,2 hPa 0,0 l/m² 0,0 km/h (0 Bft) W-NW 284 ° 0 min 0 W/m² 9,9 °C 11,0 °C 1,6 km/h (1 Bft)
30.10.2023 20:32 21,2 °C 11,1 °C 65 % 94 % 998,1 hPa 0,0 l/m² 0,3 km/h (0 Bft) W-NW 284 ° 0 min 0 W/m² 10,2 °C 11,1 °C 1,6 km/h (1 Bft)
30.10.2023 20:33 21,2 °C 11,1 °C 66 % 94 % 998,0 hPa 0,0 l/m² 2,0 km/h (1 Bft) W-NW 284 ° 0 min 0 W/m² 10,2 °C 11,1 °C 3,2 km/h (1 Bft)
30.10.2023 20:34 21,2 °C 11,1 °C 66 % 94 % 998,0 hPa 0,0 l/m² 2,1 km/h (1 Bft) W-NW 284 ° 0 min 0 W/m² 10,2 °C 11,1 °C 3,2 km/h (1 Bft)
30.10.2023 20:35 21,2 °C 11,1 °C 66 % 94 % 997,9 hPa 0,0 l/m² 0,9 km/h (0 Bft) W-NW 284 ° 0 min 0 W/m² 10,2 °C 11,1 °C 1,6 km/h (1 Bft)
30.10.2023 20:37 21,2 °C 11,1 °C 66 % 94 % 997,9 hPa 0,0 l/m² 0,1 km/h (0 Bft) W-NW 284 ° 0 min 0 W/m² 10,2 °C 11,1 °C 1,6 km/h (1 Bft)
30.10.2023 20:39 21,3 °C 11,2 °C 66 % 94 % 998,0 hPa 0,0 l/m² 0,1 km/h (0 Bft) W-NW 284 ° 0 min 0 W/m² 10,3 °C 11,2 °C 1,6 km/h (1 Bft)
30.10.2023 20:42 21,3 °C 11,0 °C 66 % 93 % 997,8 hPa 0,0 l/m² 0,0 km/h (0 Bft) W-NW 284 ° 0 min 0 W/m² 9,9 °C 11,0 °C 0,0 km/h (0 Bft)
30.10.2023 20:45 21,3 °C 10,9 °C 65 % 93 % 997,9 hPa 0,0 l/m² 1,7 km/h (1 Bft) W 270 ° 0 min 0 W/m² 9,8 °C 10,9 °C 3,2 km/h (1 Bft)
30.10.2023 20:47 21,3 °C 10,9 °C 65 % 93 % 998,0 hPa 0,0 l/m² 3,4 km/h (1 Bft) S-SW 211 ° 0 min 0 W/m² 9,8 °C 10,9 °C 4,8 km/h (1 Bft)
30.10.2023 20:49 21,3 °C 10,8 °C 65 % 94 % 998,2 hPa 0,0 l/m² 4,4 km/h (1 Bft) S-SW 200 ° 0 min 0 W/m² 9,9 °C 10,8 °C 4,8 km/h (1 Bft)
30.10.2023 20:51 21,3 °C 10,9 °C 65 % 94 % 998,1 hPa 0,0 l/m² 3,7 km/h (1 Bft) S-SW 200 ° 0 min 0 W/m² 10,0 °C 10,9 °C 4,8 km/h (1 Bft)
30.10.2023 20:54 21,3 °C 10,9 °C 65 % 94 % 998,2 hPa 0,0 l/m² 3,8 km/h (1 Bft) S-SW 200 ° 0 min 0 W/m² 10,0 °C 10,9 °C 6,4 km/h (2 Bft)
30.10.2023 20:56 21,3 °C 10,9 °C 65 % 94 % 998,3 hPa 0,0 l/m² 2,0 km/h (1 Bft) S-SW 200 ° 0 min 0 W/m² 10,0 °C 10,9 °C 4,8 km/h (1 Bft)
30.10.2023 20:58 21,3 °C 10,9 °C 65 % 94 % 998,2 hPa 0,0 l/m² 0,2 km/h (0 Bft) S-SW 200 ° 0 min 0 W/m² 10,0 °C 10,9 °C 1,6 km/h (1 Bft)
30.10.2023 21:00 21,3 °C 10,9 °C 65 % 94 % 998,2 hPa 0,0 l/m² 0,0 km/h (0 Bft) S-SW 200 ° 0 min 0 W/m² 10,0 °C 10,9 °C 0,0 km/h (0 Bft)
30.10.2023 21:03 21,4 °C 11,0 °C 65 % 94 % 998,4 hPa 0,0 l/m² 0,1 km/h (0 Bft) S-SW 200 ° 0 min 0 W/m² 10,1 °C 11,0 °C 3,2 km/h (1 Bft)
30.10.2023 21:05 21,4 °C 11,0 °C 65 % 94 % 998,4 hPa 0,0 l/m² 1,9 km/h (1 Bft) S-SW 200 ° 0 min 0 W/m² 10,1 °C 11,0 °C 4,8 km/h (1 Bft)
30.10.2023 21:07 21,4 °C 11,0 °C 65 % 94 % 998,2 hPa 0,0 l/m² 0,0 km/h (0 Bft) S-SW 200 ° 0 min 0 W/m² 10,1 °C 11,0 °C 0,0 km/h (0 Bft)
30.10.2023 21:09 21,4 °C 11,0 °C 65 % 94 % 998,2 hPa 0,0 l/m² 0,0 km/h (0 Bft) S-SW 200 ° 0 min 0 W/m² 10,1 °C 11,0 °C 0,0 km/h (0 Bft)
30.10.2023 21:12 21,4 °C 11,0 °C 65 % 94 % 998,1 hPa 0,0 l/m² 0,0 km/h (0 Bft) S-SW 200 ° 0 min 0 W/m² 10,1 °C 11,0 °C 0,0 km/h (0 Bft)
30.10.2023 21:13 21,4 °C 11,1 °C 65 % 94 % 998,1 hPa 0,0 l/m² 0,0 km/h (0 Bft) S-SW 200 ° 0 min 0 W/m² 10,2 °C 11,1 °C 0,0 km/h (0 Bft)
30.10.2023 21:14 21,4 °C 11,1 °C 65 % 94 % 998,1 hPa 0,0 l/m² 0,0 km/h (0 Bft) S-SW 200 ° 0 min 0 W/m² 10,2 °C 11,1 °C 0,0 km/h (0 Bft)
30.10.2023 21:15 21,4 °C 11,1 °C 65 % 94 % 998,1 hPa 0,0 l/m² 0,0 km/h (0 Bft) S-SW 200 ° 0 min 0 W/m² 10,2 °C 11,1 °C 0,0 km/h (0 Bft)
30.10.2023 21:17 21,4 °C 11,1 °C 65 % 94 % 997,9 hPa 0,0 l/m² 0,0 km/h (0 Bft) S-SW 200 ° 0 min 0 W/m² 10,2 °C 11,1 °C 0,0 km/h (0 Bft)
30.10.2023 21:19 21,5 °C 11,1 °C 65 % 94 % 997,9 hPa 0,0 l/m² 0,8 km/h (0 Bft) S-SW 200 ° 0 min 0 W/m² 10,2 °C 11,1 °C 3,2 km/h (1 Bft)
30.10.2023 21:21 21,5 °C 11,1 °C 65 % 94 % 997,8 hPa 0,0 l/m² 1,5 km/h (1 Bft) S-SW 201 ° 0 min 0 W/m² 10,2 °C 11,1 °C 3,2 km/h (1 Bft)
30.10.2023 21:22 21,5 °C 11,1 °C 65 % 94 % 997,8 hPa 0,0 l/m² 1,5 km/h (1 Bft) S-SW 203 ° 0 min 0 W/m² 10,2 °C 11,1 °C 3,2 km/h (1 Bft)
30.10.2023 21:23 21,5 °C 11,1 °C 65 % 94 % 997,8 hPa 0,0 l/m² 0,6 km/h (0 Bft) S-SW 203 ° 0 min 0 W/m² 10,2 °C 11,1 °C 1,6 km/h (1 Bft)
30.10.2023 21:24 21,5 °C 11,1 °C 65 % 94 % 997,9 hPa 0,0 l/m² 0,0 km/h (0 Bft) S-SW 203 ° 0 min 0 W/m² 10,2 °C 11,1 °C 0,0 km/h (0 Bft)
30.10.2023 21:26 21,5 °C 11,0 °C 65 % 94 % 997,8 hPa 0,0 l/m² 0,0 km/h (0 Bft) S-SW 203 ° 0 min 0 W/m² 10,1 °C 11,0 °C 0,0 km/h (0 Bft)
30.10.2023 21:28 21,6 °C 11,0 °C 65 % 94 % 997,7 hPa 0,0 l/m² 0,0 km/h (0 Bft) S-SW 203 ° 0 min 0 W/m² 10,1 °C 11,0 °C 0,0 km/h (0 Bft)
30.10.2023 21:30 21,6 °C 11,0 °C 65 % 94 % 997,6 hPa 0,0 l/m² 0,4 km/h (0 Bft) S-SW 203 ° 0 min 0 W/m² 10,1 °C 11,0 °C 3,2 km/h (1 Bft)
30.10.2023 21:32 21,6 °C 11,1 °C 65 % 94 % 997,5 hPa 0,0 l/m² 3,4 km/h (1 Bft) W 269 ° 0 min 0 W/m² 10,2 °C 11,1 °C 6,4 km/h (2 Bft)
30.10.2023 21:33 21,6 °C 11,1 °C 65 % 94 % 997,5 hPa 0,0 l/m² 0,6 km/h (0 Bft) W 269 ° 0 min 0 W/m² 10,2 °C 11,1 °C 1,6 km/h (1 Bft)
30.10.2023 21:34 21,6 °C 11,0 °C 65 % 94 % 997,5 hPa 0,0 l/m² 1,9 km/h (1 Bft) W 269 ° 0 min 0 W/m² 10,1 °C 11,0 °C 3,2 km/h (1 Bft)
30.10.2023 21:35 21,6 °C 11,1 °C 65 % 94 % 997,4 hPa 0,0 l/m² 2,3 km/h (1 Bft) W 269 ° 0 min 0 W/m² 10,2 °C 11,1 °C 3,2 km/h (1 Bft)
30.10.2023 21:37 21,6 °C 11,1 °C 65 % 94 % 997,4 hPa 0,0 l/m² 0,7 km/h (0 Bft) W 269 ° 0 min 0 W/m² 10,2 °C 11,1 °C 3,2 km/h (1 Bft)
30.10.2023 21:39 21,6 °C 11,1 °C 65 % 94 % 997,3 hPa 0,0 l/m² 1,2 km/h (1 Bft) W 269 ° 0 min 0 W/m² 10,2 °C 11,1 °C 4,8 km/h (1 Bft)
30.10.2023 21:41 21,6 °C 11,1 °C 64 % 94 % 997,5 hPa 0,0 l/m² 0,0 km/h (0 Bft) W 269 ° 0 min 0 W/m² 10,2 °C 11,1 °C 0,0 km/h (0 Bft)
30.10.2023 21:42 21,6 °C 11,1 °C 64 % 94 % 997,3 hPa 0,0 l/m² 0,0 km/h (0 Bft) W 269 ° 0 min 0 W/m² 10,2 °C 11,1 °C 0,0 km/h (0 Bft)
30.10.2023 21:43 21,6 °C 11,1 °C 64 % 94 % 997,3 hPa 0,0 l/m² 0,0 km/h (0 Bft) W 269 ° 0 min 0 W/m² 10,2 °C 11,1 °C 0,0 km/h (0 Bft)
30.10.2023 21:44 21,6 °C 11,1 °C 64 % 94 % 997,4 hPa 0,0 l/m² 0,2 km/h (0 Bft) W 269 ° 0 min 0 W/m² 10,2 °C 11,1 °C 1,6 km/h (1 Bft)
30.10.2023 21:47 21,6 °C 11,1 °C 64 % 94 % 998,0 hPa 0,0 l/m² 8,9 km/h (2 Bft) SO 142 ° 0 min 0 W/m² 10,2 °C 9,4 °C 16,1 km/h (3 Bft)
30.10.2023 21:49 21,6 °C 11,1 °C 64 % 94 % 998,2 hPa 0,0 l/m² 8,9 km/h (2 Bft) SO 140 ° 0 min 0 W/m² 10,2 °C 9,4 °C 14,5 km/h (3 Bft)
30.10.2023 21:51 21,6 °C 11,2 °C 64 % 94 % 997,9 hPa 0,0 l/m² 1,9 km/h (1 Bft) SO 141 ° 0 min 0 W/m² 10,3 °C 11,2 °C 6,4 km/h (2 Bft)
30.10.2023 21:52 21,6 °C 11,2 °C 64 % 94 % 997,8 hPa 0,0 l/m² 0,5 km/h (0 Bft) SO 140 ° 0 min 0 W/m² 10,3 °C 11,2 °C 3,2 km/h (1 Bft)
30.10.2023 21:53 21,6 °C 11,2 °C 64 % 94 % 997,8 hPa 0,0 l/m² 0,0 km/h (0 Bft) SO 140 ° 0 min 0 W/m² 10,3 °C 11,2 °C 0,0 km/h (0 Bft)
30.10.2023 21:54 21,6 °C 11,2 °C 64 % 94 % 997,8 hPa 0,0 l/m² 0,0 km/h (0 Bft) SO 140 ° 0 min 0 W/m² 10,3 °C 11,2 °C 0,0 km/h (0 Bft)
30.10.2023 21:56 21,6 °C 11,2 °C 64 % 94 % 998,1 hPa 0,0 l/m² 1,6 km/h (1 Bft) SO 142 ° 0 min 0 W/m² 10,3 °C 11,2 °C 4,8 km/h (1 Bft)
30.10.2023 21:58 21,6 °C 11,2 °C 64 % 94 % 998,1 hPa 0,0 l/m² 1,8 km/h (1 Bft) S 169 ° 0 min 0 W/m² 10,3 °C 11,2 °C 3,2 km/h (1 Bft)
30.10.2023 22:00 21,6 °C 11,2 °C 64 % 94 % 997,9 hPa 0,0 l/m² 1,9 km/h (1 Bft) SW 227 ° 0 min 0 W/m² 10,3 °C 11,2 °C 4,8 km/h (1 Bft)
30.10.2023 22:03 21,6 °C 11,2 °C 63 % 94 % 997,8 hPa 0,0 l/m² 4,1 km/h (1 Bft) SW 235 ° 0 min 0 W/m² 10,3 °C 11,2 °C 6,4 km/h (2 Bft)
30.10.2023 22:05 21,6 °C 11,2 °C 63 % 94 % 997,8 hPa 0,0 l/m² 0,6 km/h (0 Bft) SW 235 ° 0 min 0 W/m² 10,3 °C 11,2 °C 3,2 km/h (1 Bft)
30.10.2023 22:06 21,6 °C 11,2 °C 63 % 94 % 997,8 hPa 0,0 l/m² 0,0 km/h (0 Bft) SW 235 ° 0 min 0 W/m² 10,3 °C 11,2 °C 0,0 km/h (0 Bft)
30.10.2023 22:07 21,6 °C 11,2 °C 63 % 94 % 997,8 hPa 0,0 l/m² 0,0 km/h (0 Bft) SW 235 ° 0 min 0 W/m² 10,3 °C 11,2 °C 0,0 km/h (0 Bft)
30.10.2023 22:08 21,6 °C 11,2 °C 63 % 94 % 997,8 hPa 0,0 l/m² 0,0 km/h (0 Bft) SW 235 ° 0 min 0 W/m² 10,3 °C 11,2 °C 0,0 km/h (0 Bft)
30.10.2023 22:10 21,6 °C 11,2 °C 63 % 94 % 997,8 hPa 0,0 l/m² 0,0 km/h (0 Bft) SW 235 ° 0 min 0 W/m² 10,3 °C 11,2 °C 0,0 km/h (0 Bft)
30.10.2023 22:12 21,6 °C 11,2 °C 64 % 94 % 997,8 hPa 0,0 l/m² 0,0 km/h (0 Bft) SW 235 ° 0 min 0 W/m² 10,3 °C 11,2 °C 0,0 km/h (0 Bft)
30.10.2023 22:13 21,6 °C 11,2 °C 63 % 94 % 997,7 hPa 0,2 l/m² 0,0 km/h (0 Bft) SW 235 ° 0 min 0 W/m² 10,3 °C 11,2 °C 0,0 km/h (0 Bft)
30.10.2023 22:14 21,6 °C 11,2 °C 63 % 94 % 997,7 hPa 0,0 l/m² 0,0 km/h (0 Bft) SW 235 ° 0 min 0 W/m² 10,3 °C 11,2 °C 0,0 km/h (0 Bft)
30.10.2023 22:15 21,6 °C 11,2 °C 64 % 94 % 997,7 hPa 0,0 l/m² 0,0 km/h (0 Bft) SW 235 ° 0 min 0 W/m² 10,3 °C 11,2 °C 0,0 km/h (0 Bft)
30.10.2023 22:17 21,6 °C 11,2 °C 64 % 94 % 997,7 hPa 0,0 l/m² 0,0 km/h (0 Bft) SW 235 ° 0 min 0 W/m² 10,3 °C 11,2 °C 0,0 km/h (0 Bft)
30.10.2023 22:19 21,6 °C 11,2 °C 64 % 94 % 997,6 hPa 0,0 l/m² 0,0 km/h (0 Bft) SW 235 ° 0 min 0 W/m² 10,3 °C 11,2 °C 0,0 km/h (0 Bft)
30.10.2023 22:21 21,6 °C 11,1 °C 64 % 94 % 997,6 hPa 0,0 l/m² 0,0 km/h (0 Bft) SW 235 ° 0 min 0 W/m² 10,2 °C 11,1 °C 0,0 km/h (0 Bft)
30.10.2023 22:24 21,6 °C 11,2 °C 64 % 94 % 997,5 hPa 0,0 l/m² 0,4 km/h (0 Bft) SW 236 ° 0 min 0 W/m² 10,3 °C 11,2 °C 1,6 km/h (1 Bft)
30.10.2023 22:26 21,6 °C 11,2 °C 64 % 94 % 997,4 hPa 0,0 l/m² 0,1 km/h (0 Bft) SW 236 ° 0 min 0 W/m² 10,3 °C 11,2 °C 1,6 km/h (1 Bft)
30.10.2023 22:28 21,6 °C 11,2 °C 63 % 94 % 997,2 hPa 0,0 l/m² 0,2 km/h (0 Bft) SW 236 ° 0 min 0 W/m² 10,3 °C 11,2 °C 1,6 km/h (1 Bft)
30.10.2023 22:30 21,6 °C 11,2 °C 63 % 94 % 997,0 hPa 0,0 l/m² 2,8 km/h (1 Bft) W 262 ° 0 min 0 W/m² 10,3 °C 11,2 °C 4,8 km/h (1 Bft)
30.10.2023 22:32 21,5 °C 11,2 °C 63 % 94 % 996,8 hPa 0,0 l/m² 5,5 km/h (2 Bft) NW 306 ° 0 min 0 W/m² 10,3 °C 11,2 °C 8,0 km/h (2 Bft)
30.10.2023 22:33 21,5 °C 11,2 °C 63 % 94 % 996,8 hPa 0,0 l/m² 4,2 km/h (1 Bft) NW 311 ° 0 min 0 W/m² 10,3 °C 11,2 °C 6,4 km/h (2 Bft)
30.10.2023 22:34 21,5 °C 11,2 °C 63 % 94 % 996,8 hPa 0,0 l/m² 4,4 km/h (1 Bft) NW 313 ° 0 min 0 W/m² 10,3 °C 11,2 °C 6,4 km/h (2 Bft)
30.10.2023 22:35 21,4 °C 11,2 °C 63 % 94 % 996,9 hPa 0,0 l/m² 1,3 km/h (1 Bft) NW 319 ° 0 min 0 W/m² 10,3 °C 11,2 °C 4,8 km/h (1 Bft)
30.10.2023 22:37 21,5 °C 11,2 °C 63 % 94 % 996,7 hPa 0,0 l/m² 0,1 km/h (0 Bft) NW 318 ° 0 min 0 W/m² 10,3 °C 11,2 °C 1,6 km/h (1 Bft)
30.10.2023 22:39 21,5 °C 11,2 °C 63 % 94 % 996,7 hPa 0,0 l/m² 0,8 km/h (0 Bft) NW 323 ° 0 min 0 W/m² 10,3 °C 11,2 °C 3,2 km/h (1 Bft)
30.10.2023 22:41 21,4 °C 11,2 °C 64 % 94 % 996,7 hPa 0,0 l/m² 0,0 km/h (0 Bft) NW 323 ° 0 min 0 W/m² 10,3 °C 11,2 °C 0,0 km/h (0 Bft)
30.10.2023 22:42 21,4 °C 11,2 °C 63 % 94 % 996,6 hPa 0,0 l/m² 0,0 km/h (0 Bft) NW 323 ° 0 min 0 W/m² 10,3 °C 11,2 °C 0,0 km/h (0 Bft)
30.10.2023 22:43 21,4 °C 11,2 °C 63 % 94 % 996,6 hPa 0,0 l/m² 0,0 km/h (0 Bft) NW 323 ° 0 min 0 W/m² 10,3 °C 11,2 °C 0,0 km/h (0 Bft)
30.10.2023 22:44 21,4 °C 11,2 °C 64 % 94 % 996,6 hPa 0,0 l/m² 0,0 km/h (0 Bft) NW 323 ° 0 min 0 W/m² 10,3 °C 11,2 °C 0,0 km/h (0 Bft)
30.10.2023 22:46 21,4 °C 11,2 °C 64 % 94 % 996,5 hPa 0,0 l/m² 0,1 km/h (0 Bft) NW 313 ° 0 min 0 W/m² 10,3 °C 11,2 °C 1,6 km/h (1 Bft)
30.10.2023 22:48 21,4 °C 11,2 °C 64 % 94 % 996,4 hPa 0,0 l/m² 1,6 km/h (1 Bft) W-NW 300 ° 0 min 0 W/m² 10,3 °C 11,2 °C 3,2 km/h (1 Bft)
30.10.2023 22:50 21,4 °C 11,2 °C 64 % 94 % 996,4 hPa 0,0 l/m² 0,4 km/h (0 Bft) W-NW 300 ° 0 min 0 W/m² 10,3 °C 11,2 °C 1,6 km/h (1 Bft)
30.10.2023 22:52 21,4 °C 11,2 °C 64 % 94 % 996,4 hPa 0,0 l/m² 0,7 km/h (0 Bft) W-NW 302 ° 0 min 0 W/m² 10,3 °C 11,2 °C 4,8 km/h (1 Bft)
30.10.2023 22:53 21,4 °C 11,2 °C 64 % 94 % 996,4 hPa 0,0 l/m² 0,2 km/h (0 Bft) W-NW 302 ° 0 min 0 W/m² 10,3 °C 11,2 °C 1,6 km/h (1 Bft)
30.10.2023 22:55 21,4 °C 11,2 °C 64 % 94 % 996,3 hPa 0,0 l/m² 0,6 km/h (0 Bft) W-NW 300 ° 0 min 0 W/m² 10,3 °C 11,2 °C 3,2 km/h (1 Bft)
30.10.2023 22:57 21,3 °C 11,2 °C 64 % 94 % 996,3 hPa 0,0 l/m² 0,1 km/h (0 Bft) W-NW 300 ° 0 min 0 W/m² 10,3 °C 11,2 °C 1,6 km/h (1 Bft)
30.10.2023 22:59 21,3 °C 11,2 °C 64 % 94 % 996,3 hPa 0,0 l/m² 0,0 km/h (0 Bft) W-NW 300 ° 0 min 0 W/m² 10,3 °C 11,2 °C 0,0 km/h (0 Bft)
30.10.2023 23:01 21,3 °C 11,2 °C 64 % 94 % 996,2 hPa 0,0 l/m² 0,0 km/h (0 Bft) W-NW 300 ° 0 min 0 W/m² 10,3 °C 11,2 °C 0,0 km/h (0 Bft)
30.10.2023 23:02 21,3 °C 11,3 °C 64 % 94 % 996,3 hPa 0,0 l/m² 0,0 km/h (0 Bft) W-NW 300 ° 0 min 0 W/m² 10,4 °C 11,3 °C 0,0 km/h (0 Bft)
30.10.2023 23:03 21,3 °C 11,2 °C 64 % 94 % 996,3 hPa 0,0 l/m² 0,0 km/h (0 Bft) W-NW 300 ° 0 min 0 W/m² 10,3 °C 11,2 °C 0,0 km/h (0 Bft)
30.10.2023 23:04 21,3 °C 11,3 °C 64 % 94 % 996,3 hPa 0,0 l/m² 0,0 km/h (0 Bft) W-NW 300 ° 0 min 0 W/m² 10,4 °C 11,3 °C 0,0 km/h (0 Bft)
30.10.2023 23:06 21,3 °C 11,3 °C 64 % 94 % 996,3 hPa 0,0 l/m² 0,0 km/h (0 Bft) W-NW 300 ° 0 min 0 W/m² 10,4 °C 11,3 °C 0,0 km/h (0 Bft)
30.10.2023 23:08 21,3 °C 11,2 °C 64 % 94 % 996,3 hPa 0,0 l/m² 0,0 km/h (0 Bft) W-NW 300 ° 0 min 0 W/m² 10,3 °C 11,2 °C 0,0 km/h (0 Bft)
30.10.2023 23:10 21,3 °C 11,3 °C 64 % 94 % 996,3 hPa 0,0 l/m² 0,0 km/h (0 Bft) W-NW 300 ° 0 min 0 W/m² 10,4 °C 11,3 °C 0,0 km/h (0 Bft)
30.10.2023 23:12 21,3 °C 11,3 °C 64 % 94 % 996,4 hPa 0,2 l/m² 0,0 km/h (0 Bft) W-NW 300 ° 0 min 0 W/m² 10,4 °C 11,3 °C 0,0 km/h (0 Bft)
30.10.2023 23:13 21,3 °C 11,2 °C 64 % 94 % 996,3 hPa 0,0 l/m² 0,0 km/h (0 Bft) W-NW 300 ° 0 min 0 W/m² 10,3 °C 11,2 °C 0,0 km/h (0 Bft)
30.10.2023 23:14 21,3 °C 11,3 °C 64 % 94 % 996,3 hPa 0,0 l/m² 0,0 km/h (0 Bft) W-NW 300 ° 0 min 0 W/m² 10,4 °C 11,3 °C 0,0 km/h (0 Bft)
30.10.2023 23:15 21,3 °C 11,2 °C 64 % 94 % 996,2 hPa 0,0 l/m² 0,0 km/h (0 Bft) W-NW 300 ° 0 min 0 W/m² 10,3 °C 11,2 °C 0,0 km/h (0 Bft)
30.10.2023 23:16 21,3 °C 11,2 °C 64 % 94 % 996,3 hPa 0,0 l/m² 0,0 km/h (0 Bft) N 0 ° 0 min 0 W/m² 10,3 °C 11,2 °C 0,0 km/h (0 Bft)
30.10.2023 23:17 21,3 °C 11,3 °C 64 % 94 % 996,2 hPa 0,0 l/m² 0,0 km/h (0 Bft) N 0 ° 0 min 0 W/m² 10,4 °C 11,3 °C 0,0 km/h (0 Bft)
30.10.2023 23:23 21,3 °C 11,2 °C 64 % 94 % 996,1 hPa 0,0 l/m² 0,0 km/h (0 Bft) W-NW 300 ° 0 min 0 W/m² 10,3 °C 11,2 °C 0,0 km/h (0 Bft)
30.10.2023 23:25 21,3 °C 11,3 °C 64 % 94 % 996,1 hPa 0,0 l/m² 0,0 km/h (0 Bft) W-NW 300 ° 0 min 0 W/m² 10,4 °C 11,3 °C 1,6 km/h (1 Bft)
30.10.2023 23:26 21,3 °C 11,2 °C 64 % 94 % 996,1 hPa 0,0 l/m² 0,0 km/h (0 Bft) W-NW 300 ° 0 min 0 W/m² 10,3 °C 11,2 °C 0,0 km/h (0 Bft)
30.10.2023 23:28 21,3 °C 11,3 °C 64 % 94 % 996,0 hPa 0,0 l/m² 0,0 km/h (0 Bft) W-NW 300 ° 0 min 0 W/m² 10,4 °C 11,3 °C 0,0 km/h (0 Bft)
30.10.2023 23:30 21,2 °C 11,3 °C 64 % 94 % 996,1 hPa 0,0 l/m² 0,0 km/h (0 Bft) W-NW 300 ° 0 min 0 W/m² 10,4 °C 11,3 °C 0,0 km/h (0 Bft)
30.10.2023 23:31 21,2 °C 11,3 °C 64 % 94 % 996,0 hPa 0,0 l/m² 0,0 km/h (0 Bft) W-NW 300 ° 0 min 0 W/m² 10,4 °C 11,3 °C 0,0 km/h (0 Bft)
30.10.2023 23:32 21,2 °C 11,3 °C 64 % 94 % 996,0 hPa 0,0 l/m² 0,0 km/h (0 Bft) W-NW 300 ° 0 min 0 W/m² 10,4 °C 11,3 °C 0,0 km/h (0 Bft)
30.10.2023 23:33 21,2 °C 11,3 °C 64 % 94 % 995,9 hPa 0,0 l/m² 0,0 km/h (0 Bft) W-NW 300 ° 0 min 0 W/m² 10,4 °C 11,3 °C 0,0 km/h (0 Bft)
30.10.2023 23:34 21,2 °C 11,3 °C 64 % 94 % 995,9 hPa 0,0 l/m² 0,0 km/h (0 Bft) W-NW 300 ° 0 min 0 W/m² 10,4 °C 11,3 °C 0,0 km/h (0 Bft)
30.10.2023 23:36 21,2 °C 11,2 °C 64 % 94 % 995,9 hPa 0,0 l/m² 0,0 km/h (0 Bft) W-NW 300 ° 0 min 0 W/m² 10,3 °C 11,2 °C 0,0 km/h (0 Bft)
30.10.2023 23:38 21,2 °C 11,2 °C 64 % 94 % 995,9 hPa 0,0 l/m² 0,0 km/h (0 Bft) W-NW 300 ° 0 min 0 W/m² 10,3 °C 11,2 °C 0,0 km/h (0 Bft)
30.10.2023 23:40 21,2 °C 11,2 °C 64 % 94 % 995,9 hPa 0,0 l/m² 0,0 km/h (0 Bft) W-NW 300 ° 0 min 0 W/m² 10,3 °C 11,2 °C 0,0 km/h (0 Bft)
30.10.2023 23:41 21,2 °C 11,1 °C 64 % 94 % 995,8 hPa 0,0 l/m² 0,0 km/h (0 Bft) W-NW 300 ° 0 min 0 W/m² 10,2 °C 11,1 °C 0,0 km/h (0 Bft)
30.10.2023 23:42 21,2 °C 11,2 °C 64 % 94 % 995,8 hPa 0,0 l/m² 0,0 km/h (0 Bft) W-NW 300 ° 0 min 0 W/m² 10,3 °C 11,2 °C 0,0 km/h (0 Bft)
30.10.2023 23:44 21,2 °C 11,1 °C 64 % 94 % 995,8 hPa 0,0 l/m² 0,0 km/h (0 Bft) W-NW 300 ° 0 min 0 W/m² 10,2 °C 11,1 °C 0,0 km/h (0 Bft)
30.10.2023 23:45 21,2 °C 11,1 °C 64 % 94 % 995,8 hPa 0,0 l/m² 0,0 km/h (0 Bft) W-NW 300 ° 0 min 0 W/m² 10,2 °C 11,1 °C 0,0 km/h (0 Bft)
30.10.2023 23:47 21,2 °C 11,1 °C 64 % 94 % 995,9 hPa 0,0 l/m² 0,0 km/h (0 Bft) W-NW 300 ° 0 min 0 W/m² 10,2 °C 11,1 °C 1,6 km/h (1 Bft)
30.10.2023 23:49 21,2 °C 11,1 °C 64 % 94 % 995,8 hPa 0,0 l/m² 2,1 km/h (1 Bft) W 278 ° 0 min 0 W/m² 10,2 °C 11,1 °C 3,2 km/h (1 Bft)
30.10.2023 23:50 21,2 °C 11,1 °C 64 % 94 % 995,8 hPa 0,0 l/m² 2,2 km/h (1 Bft) W 278 ° 0 min 0 W/m² 10,2 °C 11,1 °C 3,2 km/h (1 Bft)
30.10.2023 23:51 21,2 °C 11,1 °C 64 % 94 % 995,9 hPa 0,0 l/m² 2,3 km/h (1 Bft) W 278 ° 0 min 0 W/m² 10,2 °C 11,1 °C 3,2 km/h (1 Bft)
30.10.2023 23:52 21,2 °C 11,1 °C 64 % 94 % 995,9 hPa 0,0 l/m² 3,5 km/h (1 Bft) W 272 ° 0 min 0 W/m² 10,2 °C 11,1 °C 4,8 km/h (1 Bft)
30.10.2023 23:54 21,2 °C 11,1 °C 64 % 94 % 995,9 hPa 0,0 l/m² 3,1 km/h (1 Bft) W-SW 242 ° 0 min 0 W/m² 10,2 °C 11,1 °C 4,8 km/h (1 Bft)
30.10.2023 23:55 21,2 °C 11,1 °C 64 % 94 % 996,0 hPa 0,0 l/m² 5,0 km/h (1 Bft) SW 232 ° 0 min 0 W/m² 10,2 °C 11,1 °C 6,4 km/h (2 Bft)
30.10.2023 23:57 21,2 °C 11,1 °C 64 % 94 % 996,0 hPa 0,0 l/m² 4,4 km/h (1 Bft) SW 221 ° 0 min 0 W/m² 10,2 °C 11,1 °C 6,4 km/h (2 Bft)
30.10.2023 23:59 21,2 °C 11,0 °C 64 % 94 % 996,0 hPa 0,0 l/m² 3,8 km/h (1 Bft) S-SW 194 ° 0 min 0 W/m² 10,1 °C 11,0 °C 4,8 km/h (1 Bft)
_ Min-Zeit 08:06 02:15 12:25 12:56 23:50 - 23:47 - - - - 02:15 01:12 23:45
Minimum _ 20,9 °C 10,0 °C 59 % 80 % 995,8 hPa - 0,0 km/h (0 Bft) - - - - 8,3 °C 7,9 °C 0,0 km/h (0 Bft)
_ Max-Zeit 22:30 13:02 20:42 23:59 10:05 23:12 09:54 - - 12:46 12:42 13:00 13:02 09:56
Maximum _ 21,6 °C 15,2 °C 66 % 94 % 1004,7 hPa 0,2 l/m² 13,0 km/h
O (3 Bft)
- - 3 min 320 W/m² 12,3 °C 15,2 °C 17,7 km/h
O (3 Bft)
Durchschnitt _ 21,2 °C 12,1 °C 63 % 89 % 1002,0 hPa #0,4 l/m² 3,5 km/h (1 Bft) O - #5:19 h 33 W/m² 10,3 °C 12,0 °C 5,8 km/h (2 Bft)
© 2009 Mathias Hoßbach